[[[{"header":{"parameterUnit":"kt","parameterCategory":2,"dx":1,"dy":1,"la1":29.285339999999998,"la2":30.599998999999997,"lo1":-89.70041500000002,"lo2":-87.6738589999976,"nx":112,"ny":82,"refTime":"2022-10-17T12:00:00:Z","depth":0,"parameterNumber":1,"parameterNumberName":"U-component_of_WINDS"},"data":[13.2956,13.4778,13.4092,12.1158,11.8294,11.5079,10.1716,10.0321,10.0888,9.7431,9.8626,10.0651,10.1249,9.7585,9.4295,9.3846,9.0406,8.6219,0.0,8.0236,0.0,0.0,0.0,0.0,0.0,0.0,0.0,11.5487,11.3362,0.0,13.2132,13.4557,13.7243,14.0956,14.1704,14.2302,14.29,14.29,14.29,14.29,14.29,14.29,14.29,14.2227,14.2003,14.1928,14.133,14.1105,14.1031,13.9909,13.946,13.9311,13.8264,13.7815,13.8114,14.0283,14.1105,14.0976,14.0231,13.9022,13.7732,13.696,13.5714,13.457,13.457,13.457,13.457,13.457,13.3856,13.3072,13.3072,13.2358,13.1573,13.1573,13.1573,13.1573,13.1573,13.1573,13.1573,13.1573,13.1573,13.1573,13.1573,13.1573,13.1573,13.1573,13.1573,13.1573,13.1573,13.1573,13.1573,13.1573,13.1573,13.1359,13.0755,13.0755,12.9796,12.7665,12.7516,12.6163,12.2911,12.1261,11.9673,11.7964,11.641,11.4926,11.3991,11.3991,11.3454,11.2513,11.2513,11.2315,12.623,12.8084,12.7495,11.2744,11.0314,10.8061,9.53,9.4406,9.5342,9.2018,9.5193,9.751,9.4145,9.3472,9.3023,9.1453,9.0257,8.8312,0.0,0.0,0.0,0.0,0.0,0.0,0.0,0.0,10.9449,11.9897,11.881,12.3139,13.5647,13.7971,14.0378,14.3573,14.3648,14.3947,14.4545,14.4545,14.4545,14.4545,14.4545,14.4545,14.4545,14.3947,14.3648,14.3648,14.3124,14.29,14.2825,14.1704,14.118,14.1105,13.9984,13.9535,13.9705,14.1138,14.1692,14.1562,14.0796,13.9821,13.89,13.807,13.7044,13.6282,13.6282,13.6282,13.6282,13.6282,13.5498,13.4713,13.4713,13.3571,13.2358,13.2358,13.2001,13.1573,13.1573,13.1573,13.1573,13.1573,13.1573,13.1573,13.1573,13.1573,13.1573,13.1573,13.1573,13.1573,13.1573,13.1573,13.1573,13.1573,13.1573,13.1573,13.1573,13.1573,13.1145,13.0185,13.0114,12.8837,12.6178,12.4465,12.2852,12.1237,11.9131,11.7358,11.6355,11.5719,11.4661,11.3247,11.3718,11.3718,11.8834,11.7419,11.5672,10.2349,10.0234,9.9156,9.074,9.2425,9.4893,9.1902,9.4968,9.7286,9.407,9.3472,9.2949,9.1453,9.1453,0.0,0.0,0.0,0.0,0.0,0.0,0.0,0.0,10.7372,10.9226,12.498,12.0505,12.3274,13.7313,14.0108,14.25,14.5162,14.5293,14.6116,14.7686,14.7761,14.7835,14.7835,14.7835,14.7835,14.7761,14.6041,14.5293,14.5218,14.3723,14.305,14.2994,14.292,14.2845,14.2789,14.2714,14.2789,14.2617,14.0355,13.9565,13.9482,13.9482,13.887,13.7931,13.7931,13.7188,13.6425,13.6425,13.6425,13.6425,13.6425,13.6354,13.6354,13.6354,13.5212,13.3999,13.3999,13.2857,13.1716,13.1716,13.1716,13.1716,13.1716,13.1716,13.1645,13.1645,13.1716,13.1716,13.1645,13.1645,13.1645,13.1573,13.1573,13.1573,13.1573,13.1573,13.1573,13.1573,13.1573,13.1573,13.1573,13.1573,13.0898,12.944,12.7736,12.6061,12.4491,12.1301,11.9661,11.9488,11.7767,11.6202,11.486,11.6202,11.6136,10.7579,10.8482,10.9699,10.2216,10.1584,10.095,9.3771,9.1378,9.1079,9.2575,9.2051,0.0,0.0,0.0,9.2051,9.2724,0.0,9.8482,9.3921,10.0576,0.0,0.0,0.0,11.6172,12.4061,12.2803,12.6114,13.7313,13.0953,13.1476,14.2601,14.3778,14.4989,14.7013,14.7013,14.7237,14.7761,14.8957,14.9555,14.9555,14.9555,14.9555,14.9481,14.7835,14.7013,14.7013,14.6564,14.5915,14.5046,14.3857,14.293,14.2053,14.0799,14.1831,14.397,14.326,14.3094,14.3094,14.3094,14.2314,14.1162,14.0286,13.9894,13.9636,13.9636,13.9636,13.9636,13.9636,13.8851,13.7995,13.7995,13.6782,13.564,13.564,13.5283,13.4998,13.4998,13.5034,13.4962,13.4962,13.4068,13.3282,13.3282,13.4249,13.4635,13.353,13.3322,13.2924,13.1716,13.1573,13.1573,13.1573,13.1573,13.1573,13.1573,13.1573,13.1573,13.1573,13.1573,13.143,13.1002,12.944,12.7769,12.5816,12.3775,12.1615,11.9291,11.8807,11.7738,11.6325,11.7738,11.7672,10.3751,10.4723,10.6965,10.0501,10.1698,10.2221,9.3472,9.1079,9.1004,9.2276,0.0,0.0,0.0,0.0,0.0,0.0,10.1324,10.5287,10.1623,10.9998,11.7625,12.0916,12.4156,12.7238,13.0034,12.9592,13.3298,14.3088,13.6843,13.6245,14.477,14.5891,14.7088,14.8733,14.8808,14.9107,14.978,15.0752,15.12,15.12,15.12,15.12,15.12,15.0228,14.9406,14.8808,14.8808,14.7793,14.5891,14.5001,14.3975,14.2706,14.0785,14.1284,14.2953,14.2953,14.2953,14.2953,14.2953,14.2536,14.179,14.1181,14.092,14.092,14.092,14.092,14.092,14.092,14.0278,13.9565,13.9565,13.8423,13.721,13.721,13.6711,13.6282,13.6282,13.6319,13.6247,13.6211,13.5533,13.5105,13.5819,13.6026,13.6017,13.5124,13.4891,13.4315,13.2853,13.2534,13.232,13.1645,13.1573,13.1573,13.1573,13.1573,13.1573,13.1573,13.1573,13.1573,13.1573,13.0684,12.9724,12.8623,12.6253,12.4014,12.2222,12.0711,11.9553,11.8746,11.9553,11.9291,10.3193,10.2969,10.4689,9.7734,10.0202,10.1847,9.265,0.0,9.4669,9.4743,0.0,9.5117,9.7061,0.0,0.0,9.9604,10.753,11.284,11.0821,11.8448,12.5402,12.8319,13.5905,13.9228,13.4893,13.283,13.5632,14.4806,14.0358,13.9685,14.5517,14.7387,14.8957,15.0453,15.0527,15.12,15.2546,15.2771,15.2846,15.2846,15.2846,15.2846,15.2846,15.2696,15.1799,15.0527,15.0527,14.8912,14.6261,14.6116,14.5372,14.3984,14.2359,14.1532,14.1491,14.1491,14.1491,14.1491,14.1491,14.1348,14.1206,14.1206,14.1063,14.092,14.092,14.092,14.092,14.092,14.092,14.092,14.092,13.9921,13.8922,13.8922,13.7781,13.6782,13.6782,13.6782,13.6782,13.6816,13.6673,13.7029,13.8629,13.7622,13.6657,13.6515,13.6496,13.5994,13.4354,13.4244,13.3743,13.2249,13.2034,13.1892,13.1892,13.1892,13.1716,13.1573,13.1716,13.1716,13.1573,13.1573,13.1502,13.1288,12.8018,12.6268,12.6114,12.2902,12.1258,12.1258,12.1258,12.058,9.5192,9.3771,9.4743,9.579,9.5042,9.5491,0.0,0.0,0.0,11.4784,11.5905,11.6354,12.0616,12.0542,12.0317,12.1663,12.6898,12.9216,12.4879,13.7067,14.6639,14.7312,14.8234,14.8779,14.87,14.6396,14.5579,14.7106,14.7312,14.7985,14.9181,15.0752,15.1799,15.2098,15.2098,15.2247,15.2546,15.3967,15.464,15.464,15.464,15.464,15.4565,15.3219,15.2397,15.2098,15.2098,15.0552,14.7894,14.6989,14.5169,14.3266,14.5458,14.5601,14.4702,14.4702,14.4702,14.4702,14.4702,14.3846,14.2775,14.2775,14.1991,14.092,14.092,14.092,14.092,14.092,14.092,14.092,14.092,14.0706,14.0492,14.0492,14.0278,14.0064,14.0064,14.0064,14.0064,14.0064,13.9032,13.8604,14.0207,14.0238,13.9667,13.8304,13.8131,13.7561,13.6026,13.5748,13.5741,13.535,13.4244,13.3425,13.3425,13.3425,13.2996,13.1645,13.2853,13.2924,13.1645,13.1573,13.1002,12.9582,12.748,12.5708,12.4331,12.2354,12.1258,12.1258,12.1258,12.1127,9.2984,9.235,9.3622,9.3622,0.0,0.0,0.0,10.0352,10.424,11.5831,11.7551,11.927,12.6748,12.8019,12.8319,12.9141,13.4824,13.9759,14.1405,14.7985,15.2546,15.2546,15.1708,15.1221,15.1774,15.0549,14.9721,14.9423,15.0602,15.1425,15.1425,15.2173,15.2995,15.3818,15.3818,15.4266,15.5089,15.5986,15.636,15.636,15.636,15.636,15.636,15.5538,15.464,15.3818,15.3818,15.2342,14.9745,14.915,14.8081,14.6981,14.8061,14.8061,14.7469,14.7469,14.7469,14.7368,14.6786,14.6032,14.5277,14.4644,14.3917,14.3275,14.3275,14.3275,14.3132,14.2347,14.1562,14.092,14.092,14.092,14.092,14.092,14.092,14.092,14.092,14.092,14.092,14.092,14.0318,14.0032,14.0778,14.092,14.0706,13.9881,13.981,13.9199,13.7622,13.7386,13.7104,13.6354,13.5532,13.5069,13.5135,13.5064,13.4782,13.3999,13.4711,13.4387,13.2853,13.2781,13.2034,13.0399,12.8623,12.6872,12.5079,12.3451,12.2222,12.1258,12.1258,12.1258,9.2121,9.2575,9.4145,9.25,9.4594,0.0,9.938,10.1623,10.6708,11.8523,12.1289,12.4056,13.2356,13.4899,13.5721,13.5721,14.1105,14.7686,15.4715,15.464,15.3743,15.3668,15.2958,15.2476,15.2402,15.2031,15.1857,15.1815,15.2247,15.2754,15.307,15.3369,15.4192,15.5538,15.5612,15.6285,15.7631,15.7631,15.7631,15.7631,15.7631,15.7631,15.7631,15.7631,15.6884,15.5612,15.5612,15.4195,15.1812,15.1595,15.1672,15.1821,15.0896,15.0407,15.0149,15.0149,15.0149,15.0062,14.9103,14.8593,14.8077,14.682,14.623,14.5902,14.5745,14.563,14.5344,14.406,14.2561,14.1348,14.1348,14.1134,14.092,14.092,14.092,14.092,14.092,14.092,14.092,14.092,14.092,14.092,14.092,14.092,14.092,14.092,14.092,14.0452,13.9199,13.9057,13.8517,13.7338,13.6982,13.6777,13.6676,13.671,13.6604,13.6231,13.6496,13.6032,13.4391,13.4068,13.3353,13.2106,13.0399,12.8541,12.6285,12.5334,12.3741,12.1783,12.1431,12.1258,8.872,8.9135,9.0406,9.4444,9.3696,0.0,11.7401,12.114,12.5627,14.4396,14.9406,15.1275,15.3892,15.4491,15.464,15.464,15.4117,15.4715,15.7482,15.8005,15.7991,15.7631,15.7496,15.7284,15.6986,15.5566,15.4669,15.4715,15.3369,15.3219,15.479,15.6285,15.7183,15.7332,15.7407,15.7482,15.7631,15.7631,15.7631,15.7631,15.7631,15.7631,15.7631,15.7631,15.7557,15.7407,15.7407,15.63,15.4608,15.3587,15.3971,15.5231,15.5005,15.4378,15.3436,15.3436,15.3436,15.3436,15.3345,15.2302,15.0949,14.9774,14.8394,14.7102,14.6015,14.563,14.5558,14.5415,14.4202,14.2989,14.2989,14.1991,14.092,14.092,14.092,14.092,14.092,14.092,14.092,14.092,14.092,14.092,14.092,14.092,14.092,14.092,14.092,14.0849,14.0706,14.0706,14.0635,14.038,13.9128,13.8304,13.8344,13.8273,13.7734,13.6373,13.7592,13.7703,13.6058,13.4641,13.3886,13.3743,13.2106,12.9728,12.6311,12.7802,12.672,12.3526,12.1958,12.1258,8.7939,8.9359,9.0855,9.3846,0.0,0.0,11.6728,12.2262,12.9066,14.4994,14.8882,15.1051,15.6584,15.7631,15.7631,15.7631,15.7257,15.7269,15.8106,15.8543,15.8676,15.8275,15.823,15.808,15.7706,15.7033,15.6584,15.6584,15.5911,15.5837,15.6584,15.7257,15.7631,15.7631,15.7631,15.7631,15.7631,15.7631,15.7631,15.7631,15.7631,15.7631,15.7631,15.7631,15.7631,15.7631,15.7631,15.7257,15.6584,15.606,15.6228,15.6824,15.6824,15.6552,15.6047,15.6047,15.6047,15.5973,15.5211,15.4533,15.3853,15.2632,15.1819,15.1117,14.9846,14.9487,14.9124,14.7432,14.6486,14.5772,14.4845,14.3489,14.2276,14.2276,14.1562,14.092,14.092,14.092,14.092,14.092,14.092,14.092,14.092,14.092,14.092,14.092,14.092,14.092,14.092,14.092,14.092,14.092,14.0309,13.9952,13.9952,13.9952,13.9739,13.9057,13.9667,13.927,13.7622,13.692,13.6247,13.5279,13.3815,13.2215,13.0724,13.1435,13.108,12.9508,12.6718,12.4853,8.8462,0.0,0.0,0.0,0.0,0.0,12.2112,12.7571,13.3852,14.6116,14.8658,15.0527,15.651,15.7631,15.7631,15.7631,15.793,15.8225,15.8225,15.8545,15.8658,15.8275,15.8184,15.808,15.7706,15.7631,15.7631,15.7631,15.7631,15.7631,15.7631,15.7631,15.7631,15.7631,15.7631,15.7631,15.7631,15.7631,15.7631,15.7631,15.7631,15.7631,15.7631,15.7631,15.7631,15.7631,15.7631,15.7631,15.7631,15.7631,15.7631,15.7631,15.7631,15.7631,15.7631,15.7631,15.7631,15.7496,15.6547,15.6192,15.6047,15.4812,15.4476,15.4216,15.3085,15.2763,15.2241,14.9732,14.9363,14.9148,14.6745,14.5059,14.3774,14.3388,14.246,14.142,14.0992,14.1675,14.196,14.1063,14.1277,14.1348,14.0992,14.092,14.092,14.092,14.092,14.092,14.092,14.092,14.092,14.092,14.092,14.092,14.092,14.092,14.092,14.092,14.092,14.038,13.927,13.8843,13.8028,13.689,13.5354,13.4499,13.4569,13.446,13.4177,13.3746,13.0421,12.7798,0.0,0.0,0.0,11.1793,11.5232,12.0916,14.2003,14.447,14.5218,15.5238,15.7257,15.7332,15.7631,15.7631,15.7631,15.7631,15.793,15.823,15.8215,15.8569,15.8679,15.824,15.8253,15.808,15.7706,15.7631,15.7631,15.7631,15.7631,15.7631,15.7631,15.7631,15.7631,15.7631,15.7631,15.7631,15.7631,15.7631,15.7631,15.7631,15.7631,15.7631,15.7631,15.7631,15.7631,15.7631,15.7631,15.7631,15.7631,15.7631,15.7631,15.7631,15.7631,15.7631,15.7631,15.7631,15.7631,15.7631,15.7631,15.757,15.7371,15.612,15.56,15.5447,15.4303,15.3949,15.3676,15.2386,15.2894,15.2894,14.8849,14.67,14.513,14.3644,14.3215,14.2786,14.1206,14.3287,14.4583,14.1532,14.2103,14.2715,14.1134,14.092,14.092,14.092,14.092,14.092,14.092,14.092,14.092,14.092,14.092,14.092,14.092,14.092,14.092,14.092,14.092,14.092,14.0849,13.9342,13.8629,13.8558,13.6991,13.6174,13.6211,13.6211,13.5296,13.3708,13.1678,12.8891,9.7211,10.1698,10.7082,11.9196,12.6374,13.3104,14.3648,14.8658,15.2247,15.6734,15.7631,15.7631,15.7631,15.7631,15.7631,15.7631,15.793,15.823,15.823,15.8542,15.8657,15.8275,15.8242,15.808,15.7706,15.7631,15.7631,15.7631,15.7631,15.7631,15.7631,15.7631,15.7631,15.7631,15.7631,15.7631,15.7631,15.7631,15.7631,15.7631,15.7631,15.7631,15.7631,15.7631,15.7631,15.7631,15.7631,15.7631,15.7631,15.7631,15.7631,15.7631,15.7631,15.7631,15.7631,15.7631,15.7631,15.7631,15.7631,15.7631,15.757,15.717,15.6965,15.6757,15.5447,15.5131,15.4902,15.3715,15.3636,15.3445,15.1309,15.0317,14.9315,14.6931,14.5544,14.4328,14.2858,14.5371,14.7488,14.5656,14.5788,14.5299,14.2929,14.2501,14.2103,14.1063,14.092,14.092,14.092,14.092,14.092,14.092,14.092,14.092,14.092,14.092,14.092,14.092,14.092,14.092,14.092,14.038,14.0166,14.0166,13.8637,13.8352,13.9351,13.9351,13.9057,13.8418,13.6585,13.5118,10.2296,10.7605,11.3438,12.7346,13.5721,14.2078,14.8284,15.2995,15.636,15.7407,15.7631,15.7631,15.7631,15.7631,15.7631,15.7631,15.7856,15.8005,15.8005,15.823,15.8304,15.8005,15.8005,15.793,15.7631,15.7631,15.7631,15.7631,15.7631,15.7631,15.7631,15.7631,15.7631,15.7631,15.7631,15.7631,15.7631,15.7631,15.7631,15.7631,15.7631,15.7631,15.7631,15.7631,15.7631,15.7631,15.7631,15.7631,15.7631,15.7631,15.7631,15.7631,15.7631,15.7631,15.7631,15.7631,15.7631,15.7631,15.7631,15.7631,15.7631,15.7631,15.7631,15.7434,15.669,15.6408,15.6117,15.4929,15.4894,15.4782,15.2754,15.2499,15.2148,14.9387,14.7932,14.6924,14.6341,14.8733,15.0338,14.8546,14.8227,14.7618,14.5245,14.443,14.3613,14.196,14.1817,14.1603,14.0992,14.092,14.092,14.092,14.092,14.092,14.092,14.092,14.092,14.092,14.092,14.092,14.092,14.092,14.092,14.092,13.9921,13.985,14.092,14.092,14.092,14.092,13.9006,13.8198,10.581,11.1643,11.8672,13.6544,14.3274,14.7686,15.5837,15.7631,15.7631,15.7631,15.7631,15.7631,15.7631,15.7631,15.7631,15.7631,15.7631,15.7631,15.7631,15.7631,15.7631,15.7631,15.7631,15.7631,15.7631,15.7631,15.7631,15.7631,15.7631,15.7631,15.7631,15.7631,15.7631,15.7631,15.7631,15.7631,15.7631,15.7631,15.7631,15.7631,15.7631,15.7631,15.7631,15.7631,15.7631,15.7631,15.7631,15.7631,15.7631,15.7631,15.7631,15.7631,15.7631,15.7631,15.7631,15.7631,15.7631,15.7631,15.7631,15.7631,15.7631,15.7631,15.7631,15.7631,15.7631,15.7631,15.7371,15.612,15.669,15.6884,15.3324,15.3199,15.3483,15.0981,15.0267,15.0389,15.1436,15.3025,15.325,15.0215,14.9925,14.9576,14.7961,14.6602,14.5228,14.3573,14.3358,14.2858,14.1348,14.1063,14.1063,14.1063,14.0992,14.092,14.092,14.092,14.092,14.092,14.092,14.092,14.092,14.092,14.092,14.092,14.092,14.092,14.092,14.092,14.092,14.092,13.9127,13.8323,11.4485,12.3533,13.1459,14.5891,15.0079,15.1948,15.6584,15.7631,15.7631,15.7631,15.7631,15.7631,15.7631,15.7631,15.7631,15.7631,15.7631,15.7631,15.7631,15.7631,15.7631,15.7631,15.7631,15.7631,15.7631,15.7631,15.7631,15.7631,15.7631,15.7631,15.7631,15.7631,15.7631,15.7631,15.7631,15.7631,15.7631,15.7631,15.7631,15.7631,15.7631,15.7631,15.7631,15.7631,15.7631,15.7631,15.7631,15.7631,15.7631,15.7631,15.7631,15.7631,15.7631,15.7631,15.7631,15.7631,15.7631,15.7631,15.7631,15.7631,15.7631,15.7631,15.7631,15.7631,15.7631,15.7631,15.757,15.7233,15.7371,15.7183,15.5328,15.5066,15.489,15.3411,15.2934,15.3023,15.3359,15.5104,15.615,15.437,15.3433,15.211,14.9637,14.8223,14.6868,14.5208,14.5031,14.487,14.4512,14.3358,14.2715,14.2715,14.1675,14.092,14.092,14.092,14.092,14.092,14.092,14.092,14.092,14.092,14.092,14.092,14.092,14.092,14.092,14.092,14.092,14.092,14.051,14.021,11.2316,12.4056,13.617,14.9331,15.2546,15.3444,15.6884,15.7631,15.7631,15.7631,15.7631,15.7631,15.7631,15.7631,15.7631,15.7631,15.7631,15.7631,15.7631,15.7631,15.7631,15.7631,15.7631,15.7631,15.7631,15.7631,15.7631,15.7631,15.8304,15.8678,15.8678,15.8678,15.8678,15.8678,15.8005,15.7631,15.7631,15.7631,15.7631,15.7631,15.7631,15.7631,15.7631,15.7631,15.7631,15.7631,15.7631,15.7631,15.7631,15.7631,15.7631,15.7631,15.7631,15.7631,15.7631,15.7631,15.7631,15.7631,15.7631,15.7631,15.7631,15.7631,15.7631,15.7631,15.7631,15.7631,15.7631,15.7631,15.7631,15.7332,15.6001,15.5746,15.5339,15.4242,15.4388,15.4891,15.5473,15.6734,15.7407,15.6734,15.5178,15.3452,15.2,15.0196,14.846,14.6797,14.6583,14.6387,14.563,14.4845,14.4274,14.4257,14.3542,14.3001,14.3001,14.2317,14.196,14.196,14.1277,14.092,14.092,14.092,14.092,14.092,14.1634,14.2276,14.2989,14.2276,14.2276,14.2989,14.2276,14.1991,10.7306,12.0168,13.5721,14.8658,15.2247,15.3444,15.6584,15.7482,15.7631,15.7631,15.7631,15.7631,15.7631,15.7631,15.7631,15.7631,15.7631,15.7631,15.7631,15.7631,15.7631,15.7631,15.7631,15.7631,15.7631,15.7631,15.7706,15.793,15.9202,16.0099,16.0323,16.0099,15.9949,15.9949,15.8454,15.7631,15.7631,15.7631,15.7631,15.7631,15.7631,15.7631,15.7631,15.7631,15.7631,15.7631,15.7631,15.7631,15.7631,15.7631,15.7631,15.7631,15.7631,15.7631,15.7631,15.7631,15.7631,15.7631,15.7631,15.7631,15.7631,15.7631,15.7631,15.7631,15.7631,15.7631,15.7631,15.7631,15.7631,15.7407,15.6225,15.5926,15.5702,15.473,15.5253,15.6225,15.7407,15.7631,15.7631,15.7631,15.5926,15.4411,15.4176,15.2189,14.9934,14.846,14.8246,14.77,14.6442,14.5967,14.5849,14.5902,14.5687,14.5544,14.5544,14.44,14.3573,14.3573,14.2317,14.1562,14.1562,14.1562,14.1562,14.1562,14.2918,14.4202,14.563,14.4202,14.4274,14.5558,14.4202,14.3418,11.7102,12.5327,13.3702,14.5592,15.0602,15.307,15.5089,15.6659,15.7631,15.7631,15.7631,15.7631,15.7631,15.7631,15.7631,15.7631,15.7631,15.7631,15.7631,15.7631,15.7631,15.7631,15.7631,15.7631,15.7631,15.7631,15.8155,15.9501,15.98,16.0548,16.1968,16.0697,15.9949,15.9949,15.8454,15.7631,15.7631,15.7631,15.7631,15.7631,15.7631,15.7631,15.7631,15.7631,15.7631,15.7631,15.7631,15.7631,15.7631,15.7631,15.7631,15.7631,15.7631,15.7631,15.7631,15.7631,15.7631,15.7631,15.7631,15.7631,15.7631,15.7631,15.7631,15.7631,15.7631,15.7631,15.7631,15.7631,15.7631,15.7557,15.7407,15.7332,15.7257,15.7108,15.7183,15.7407,15.7631,15.7631,15.7631,15.7631,15.7332,15.6699,15.559,15.345,15.1457,15.0005,14.9791,14.972,14.9506,14.8318,14.7486,14.7463,14.6347,14.5635,14.5635,14.5371,14.5245,14.5102,14.4845,14.4845,14.4845,14.4845,14.4845,14.4845,14.5059,14.5344,14.563,14.5344,14.5344,14.563,14.5344,14.4488,11.3886,12.271,13.2207,13.9535,14.7013,15.2995,15.4715,15.6435,15.7407,15.651,15.7033,15.7631,15.7631,15.7631,15.7631,15.7631,15.7631,15.7631,15.7631,15.7631,15.7631,15.7631,15.7631,15.7631,15.7631,15.8379,15.9202,15.9949,16.1595,16.2941,16.3763,16.3015,16.2193,16.1295,15.9725,15.8454,15.7631,15.7631,15.7631,15.7631,15.7631,15.7631,15.7631,15.7631,15.7631,15.7631,15.7631,15.7631,15.7631,15.7631,15.7631,15.7631,15.7631,15.7631,15.7631,15.7631,15.7631,15.7631,15.7631,15.7631,15.7631,15.7631,15.7631,15.7631,15.7631,15.7631,15.7631,15.7631,15.7631,15.7631,15.7631,15.7631,15.7631,15.7631,15.7631,15.7631,15.7631,15.7631,15.7631,15.7631,15.7631,15.7257,15.5926,15.4783,15.3425,15.1571,15.1315,15.0981,15.0339,14.9577,14.9221,14.9221,14.846,14.7984,14.7984,14.7342,14.6816,14.6816,14.5986,14.563,14.563,14.7199,14.8055,14.8055,14.7271,14.7199,14.8055,14.7199,14.7271,14.8055,14.7199,14.6414,11.0895,12.0243,13.101,13.5422,14.305,15.0228,15.3369,15.5911,15.7257,15.5911,15.6136,15.6809,15.7482,15.7033,15.6809,15.7557,15.7631,15.7631,15.7631,15.7631,15.7631,15.7631,15.7631,15.7781,15.808,15.9276,16.0249,16.0996,16.3539,16.5184,16.5558,16.5184,16.4436,16.309,16.137,15.9949,15.8678,15.8678,15.8678,15.8678,15.8304,15.8155,15.8155,15.8529,15.8678,15.8678,15.8304,15.793,15.7631,15.7631,15.7631,15.7631,15.7631,15.7631,15.7631,15.7631,15.7631,15.7631,15.7631,15.7631,15.7631,15.7631,15.7631,15.7631,15.7631,15.7631,15.7631,15.7631,15.7631,15.7631,15.7631,15.7631,15.7631,15.7631,15.7631,15.7631,15.7631,15.7631,15.7631,15.7631,15.7631,15.7332,15.63,15.5926,15.5077,15.3214,15.2606,15.1743,15.0481,15.0267,15.0267,15.0267,15.0267,15.0267,15.0267,14.9172,14.8387,14.8412,14.7271,14.6628,14.6628,14.8983,15.0267,15.0267,14.9054,14.9054,15.0267,14.9054,14.9054,15.0267,14.8983,14.827,11.7924,12.3832,13.0188,13.7965,13.9535,14.118,14.8957,15.4266,15.7631,15.7482,15.5089,15.3967,15.7108,15.5164,15.4042,15.7108,15.7631,15.7631,15.7631,15.7631,15.7631,15.7631,15.7631,15.823,15.965,15.9875,16.1295,16.4361,16.4885,16.5633,16.7053,16.5782,16.496,16.481,16.3165,16.2193,16.2043,16.2043,16.2043,16.2043,16.0473,15.9725,15.98,16.137,16.2043,16.1968,16.0398,15.8977,15.7631,15.7631,15.7631,15.7631,15.7631,15.7631,15.7631,15.7631,15.7631,15.7631,15.7631,15.7631,15.7631,15.7631,15.7631,15.7631,15.7631,15.7631,15.7631,15.7631,15.7631,15.7631,15.7631,15.7631,15.7631,15.7631,15.7631,15.7631,15.7631,15.7631,15.7631,15.7631,15.7631,15.7631,15.7482,15.6449,15.5579,15.5473,15.3547,15.1743,15.0481,15.0267,15.0267,15.0267,15.0267,15.0267,15.0267,15.0125,15.0053,15.0053,14.9982,14.9839,14.9839,15.0125,15.0267,15.0267,15.0196,15.0196,15.0267,15.0196,15.0196,15.0267,15.0125,14.934,10.7156,11.3812,12.1589,12.5926,13.2431,13.946,14.5742,14.7237,14.8583,15.3593,15.4341,15.4192,15.4565,15.5164,15.5388,15.4715,15.6285,15.7631,15.7631,15.7631,15.7631,15.7631,15.7631,15.823,15.98,16.0922,16.2492,16.4885,16.5932,16.6679,16.7352,16.6754,16.6006,16.5109,16.4361,16.3539,16.2492,16.152,16.152,16.2492,16.0772,16.1071,16.3015,16.2641,16.2492,16.2417,16.1744,16.1146,16.0473,15.9501,15.965,16.0398,15.8379,15.823,15.9052,15.9052,15.9052,15.9052,15.9052,15.9052,15.8841,15.793,15.7631,15.7631,15.7631,15.7631,15.7631,15.7631,15.7631,15.7631,15.7631,15.7631,15.7631,15.7631,15.7631,15.7631,15.7631,15.7631,15.7631,15.7631,15.7631,15.7631,15.7631,15.7257,15.6884,15.6884,15.4787,15.2559,15.0524,15.0267,15.0267,15.0267,15.0267,15.0267,15.0267,15.0267,15.0267,15.0267,15.0267,15.0267,15.0267,15.0267,15.0267,15.0267,15.0267,15.0267,15.0267,15.0267,15.0267,15.0267,15.0267,14.9982,10.1399,10.7306,11.5083,11.8747,12.6599,13.5422,14.2825,14.1928,14.2078,15.0827,15.2023,15.1574,15.1873,15.2995,15.3668,15.2771,15.5388,15.7631,15.7631,15.7631,15.7631,15.7631,15.808,15.8977,16.0548,16.2268,16.3913,16.5633,16.6754,16.7352,16.7352,16.7352,16.6904,16.5782,16.5707,16.5184,16.3987,16.2716,16.2716,16.3913,16.2268,16.2941,16.5707,16.4511,16.3913,16.3913,16.3464,16.324,16.309,16.1445,16.1445,16.2268,15.9949,15.9725,16.0697,16.0697,16.0697,16.0697,16.0772,16.071,16.056,15.9439,15.8766,15.8318,15.8304,15.8005,15.7631,15.7631,15.7631,15.7631,15.7631,15.7631,15.7631,15.7631,15.7631,15.7631,15.7631,15.7631,15.7631,15.7631,15.7631,15.7631,15.7631,15.7631,15.7482,15.7108,15.5328,15.3229,15.1157,15.0481,15.0267,15.0267,15.0267,15.0267,15.0267,15.0267,15.0267,15.0267,15.0267,15.0267,15.0267,15.0267,15.0267,15.0267,15.0267,15.0267,15.0267,15.0267,15.0267,15.0267,15.0267,15.0267,10.5885,10.8278,11.2765,12.099,12.3084,12.6673,13.9909,14.0283,14.0657,15.0527,14.7462,14.447,14.9406,14.7536,14.6938,15.1799,15.5388,15.7631,15.7631,15.7631,15.7631,15.7631,15.8977,16.0622,16.2268,16.3987,16.5633,16.7203,16.7352,16.7352,16.7352,16.7352,16.7352,16.7352,16.7352,16.7352,16.7352,16.7278,16.7278,16.7278,16.5707,16.5782,16.7352,16.7352,16.7352,16.7203,16.5707,16.5034,16.4885,16.3165,16.2492,16.2492,16.2417,16.2417,16.2492,16.2492,16.2492,16.2492,16.2429,16.2504,16.2504,16.244,16.133,15.9986,15.9949,15.8889,15.7631,15.7631,15.7631,15.7631,15.7631,15.7631,15.7631,15.7631,15.7631,15.7631,15.7631,15.7631,15.7631,15.7631,15.7631,15.7631,15.7631,15.7631,15.7183,15.5926,15.473,15.3526,15.2348,15.0981,15.0267,15.0267,15.0267,15.0267,15.0267,15.0267,15.0267,15.0267,15.0267,15.0267,15.0267,15.0267,15.0267,15.0267,15.0267,15.0267,15.0267,15.0267,15.0267,15.0267,15.0267,15.0267,10.0875,10.4913,11.0222,11.5158,11.9719,12.5627,13.5572,13.6993,13.7441,14.1629,14.1778,14.2003,14.4695,14.8957,15.2098,15.2546,15.5388,15.7631,15.7631,15.7631,15.7631,15.7631,15.9052,16.0622,16.2342,16.4062,16.5707,16.7278,16.7352,16.7352,16.7352,16.7352,16.7352,16.7352,16.7352,16.7352,16.7352,16.6306,16.6306,16.7352,16.6904,16.6904,16.7352,16.7352,16.7352,16.7352,16.6829,16.6605,16.6605,16.6081,16.5184,16.4137,16.2941,16.3165,16.4212,16.4212,16.4212,16.4212,16.4223,16.4223,16.4073,16.2888,16.133,15.9986,15.9962,15.8903,15.7631,15.7631,15.7631,15.7631,15.7631,15.7631,15.7631,15.7631,15.7631,15.7631,15.7631,15.7631,15.7631,15.7631,15.7631,15.7631,15.7631,15.6958,15.615,15.5776,15.3982,15.2622,15.2314,15.0981,15.0267,15.0267,15.0267,15.0267,15.0267,15.0267,15.0267,15.0267,15.0267,15.0267,15.0267,15.0267,15.0267,15.0267,15.0267,15.0267,15.0267,15.0267,15.0267,15.0267,15.0267,15.0267,10.0651,10.4689,10.94,11.4036,11.77,12.2486,13.0786,13.2207,13.2581,13.5422,13.6843,13.804,13.9759,14.6265,15.1275,15.0827,15.4117,15.6884,15.7557,15.7631,15.7856,15.8454,15.9949,16.1595,16.3314,16.496,16.6306,16.7278,16.7352,16.7352,16.7352,16.7352,16.7352,16.7352,16.7352,16.7352,16.7352,16.638,16.638,16.7352,16.7352,16.7352,16.7352,16.7352,16.7352,16.7352,16.7352,16.7352,16.7352,16.7352,16.6829,16.5782,16.4735,16.496,16.5932,16.5932,16.5932,16.5932,16.5867,16.5867,16.5718,16.4671,16.3262,16.1917,16.1831,16.0772,15.9351,15.8753,15.8529,15.8678,15.9351,15.9501,15.9351,15.8678,15.8542,15.8393,15.7781,15.7631,15.7631,15.7631,15.7631,15.7482,15.7033,15.6225,15.5408,15.4459,15.3153,15.1957,15.1529,15.0767,15.0267,15.0267,15.0267,15.0267,15.0267,15.0267,15.0267,15.0267,15.0267,15.0267,15.0267,15.0267,15.0267,15.0267,15.0267,15.0267,15.0267,15.0267,15.0267,15.0267,15.0267,15.0267,10.3866,10.6783,10.9699,11.6205,11.7102,11.8373,12.615,12.6599,12.6599,13.101,13.1983,13.2581,13.4301,13.9984,14.5293,14.7835,15.1799,15.5313,15.7332,15.7557,15.808,15.965,16.137,16.309,16.4735,16.638,16.7352,16.7352,16.7352,16.7352,16.7352,16.7352,16.7352,16.7352,16.7352,16.7352,16.7352,16.7352,16.7352,16.7352,16.7352,16.7352,16.7352,16.7352,16.7352,16.7352,16.7288,16.7288,16.7352,16.7288,16.7288,16.7352,16.7352,16.7352,16.7352,16.7352,16.7352,16.7352,16.7352,16.7352,16.7352,16.7352,16.6316,16.5045,16.5023,16.3826,16.2193,16.056,16.0261,16.071,16.213,16.2504,16.2055,16.0411,15.9974,15.9537,15.7944,15.7631,15.7631,15.7557,15.7482,15.7108,15.5776,15.5516,15.4706,15.2606,15.21,15.16,15.041,15.0267,15.0267,15.0267,15.0267,15.0267,15.0267,15.0267,15.0267,15.0267,15.0267,15.0267,15.0267,15.0267,15.0267,15.0267,15.0267,15.0267,15.0267,15.0267,15.0267,15.0267,15.0267,15.0267,10.1324,10.424,10.7755,11.3139,11.8897,12.3757,12.5701,12.4879,12.3234,12.1888,12.2635,12.4056,12.5701,13.2431,14.118,15.1649,15.12,15.1425,15.6884,15.651,15.636,15.8005,16.0697,16.2641,16.3015,16.5707,16.7352,16.7352,16.7352,16.7352,16.7352,16.7352,16.7352,16.7352,16.7352,16.7352,16.7352,16.7352,16.7352,16.7352,16.7352,16.7352,16.7352,16.7352,16.7352,16.7288,16.6298,16.6445,16.7288,16.6298,16.6517,16.7352,16.7352,16.7352,16.7352,16.7352,16.7352,16.7352,16.7352,16.7352,16.7352,16.7352,16.6306,16.5034,16.5034,16.3838,16.2417,16.2043,16.2866,16.3688,16.2716,16.2492,16.2118,16.0348,15.9974,15.9589,15.8005,15.7631,15.7332,15.63,15.615,15.5776,15.452,15.3581,15.2842,15.2267,15.1386,15.0624,15.0339,15.0267,15.0267,15.0267,15.0267,15.0267,15.0267,15.0267,15.0267,15.0267,15.0267,15.0267,15.0267,15.0267,15.0267,15.0267,15.0267,15.0267,15.0267,15.0267,15.0267,15.0267,15.0267,15.0267,10.2371,10.6708,11.0895,11.284,11.7775,12.1962,12.1215,12.0317,11.9196,11.7401,11.7177,11.8747,12.3383,12.6673,13.2506,14.4171,14.634,14.8658,15.4491,15.651,15.7706,15.8603,16.1669,16.3688,16.3688,16.5932,16.7352,16.7352,16.7352,16.7352,16.7352,16.7352,16.7352,16.7352,16.7352,16.7352,16.7352,16.7352,16.7352,16.7352,16.7352,16.7352,16.7352,16.7352,16.7352,16.7288,16.6002,16.6151,16.7288,16.5926,16.6225,16.7352,16.7352,16.7352,16.7352,16.7352,16.7352,16.7352,16.7352,16.7352,16.7352,16.7352,16.6829,16.6081,16.6081,16.5483,16.4586,16.3838,16.481,16.5932,16.496,16.4735,16.4361,16.2653,16.2268,16.1656,15.9263,15.8739,15.808,15.6075,15.5676,15.5185,15.3481,15.2622,15.1957,15.1457,15.0695,15.0267,15.0267,15.0267,15.0267,15.0267,15.0267,15.0267,15.0267,15.0267,15.0267,15.0267,15.0267,15.0267,15.0267,15.0267,15.0267,15.0267,15.0267,15.0267,15.0267,15.0267,15.0267,15.0267,15.0267,15.0267,10.4913,11.0895,11.5382,11.4036,11.5756,11.7401,11.598,11.5457,11.5232,11.4933,11.4036,11.5457,12.2411,12.2262,12.3757,13.1908,13.9311,14.5966,15.1425,15.651,15.9725,15.9949,16.2941,16.5034,16.5034,16.6455,16.7352,16.7352,16.7352,16.7352,16.7352,16.7352,16.7352,16.7352,16.7352,16.7352,16.7352,16.7352,16.7352,16.7352,16.7352,16.7352,16.7352,16.7352,16.7288,16.7014,16.5772,16.5849,16.7014,16.562,16.6002,16.7352,16.7352,16.7352,16.7352,16.7352,16.7352,16.7352,16.7352,16.7352,16.7352,16.7352,16.7352,16.7352,16.7352,16.7352,16.7128,16.5782,16.6306,16.7352,16.7352,16.7352,16.6979,16.5408,16.5023,16.4187,16.1058,16.0235,15.9337,15.6734,15.5819,15.4819,15.2649,15.2029,15.1529,15.0481,15.0267,15.0267,15.0267,15.0267,15.0267,15.0267,15.0267,15.0267,15.0267,15.0267,15.0267,15.0267,15.0267,15.0267,15.0267,15.0267,15.0267,15.0267,15.0267,15.0267,15.0267,15.0267,15.0267,15.0267,15.0267,15.0267,10.6558,11.1718,11.5606,11.5382,11.5681,11.598,11.5681,11.4634,11.3288,11.1793,11.2466,11.3737,11.4933,11.927,12.2785,12.2935,13.1908,14.1704,14.9481,15.4865,15.8529,15.98,16.2941,16.5034,16.5034,16.6455,16.7352,16.7352,16.7352,16.7352,16.7352,16.7352,16.7352,16.7352,16.7352,16.7352,16.7352,16.7352,16.7352,16.7352,16.7352,16.7352,16.7352,16.7352,16.6803,16.562,16.446,16.4635,16.562,16.4371,16.53,16.7352,16.7352,16.7352,16.7352,16.7352,16.7352,16.7352,16.7352,16.7352,16.7352,16.7352,16.7352,16.7352,16.7352,16.7352,16.7278,16.7053,16.7203,16.7352,16.7352,16.7352,16.6979,16.5419,16.5045,16.4447,16.2515,16.1295,16.0011,15.8603,15.6424,15.4318,15.2863,15.1529,15.0481,15.0339,15.0267,15.0267,15.0267,15.0267,15.0267,15.0267,15.0267,15.0267,15.0267,15.0267,15.0267,15.0267,15.0267,15.0267,15.0267,15.0267,15.0267,15.0267,15.0267,15.0267,15.0267,15.0267,15.0267,15.0267,15.0267,15.0267,10.768,11.3213,11.8373,11.8373,11.9046,11.942,11.8597,11.7102,11.5457,11.3737,11.3363,11.3886,11.5606,11.7625,12.0317,12.4056,12.9814,13.6694,14.5069,15.3593,15.9202,15.9875,16.3688,16.6006,16.5109,16.6455,16.7352,16.7352,16.7352,16.7352,16.7352,16.7352,16.7352,16.7352,16.7352,16.7352,16.7352,16.7352,16.7352,16.7352,16.7352,16.7352,16.7352,16.7352,16.6659,16.5381,16.419,16.4007,16.446,16.3914,16.4722,16.6371,16.7081,16.7352,16.7352,16.7352,16.7352,16.7352,16.7352,16.7352,16.7352,16.7352,16.7352,16.7352,16.7352,16.7352,16.7352,16.7352,16.7352,16.7352,16.7352,16.7352,16.7203,16.6465,16.5718,16.4821,16.3187,16.1768,16.0264,15.813,15.6706,15.5171,15.3149,15.21,15.1315,15.041,15.0267,15.0267,15.0267,15.0267,15.0267,15.0267,15.0267,15.0267,15.0267,15.0267,15.0267,15.0267,15.0267,15.0267,15.0267,15.0267,15.0267,15.0267,15.0267,15.0267,15.0267,15.0267,15.0267,15.0267,15.0267,15.0267,11.2167,0.0,12.3608,12.3608,12.3907,12.3832,0.0,12.0243,11.8149,11.6055,11.4709,11.4634,11.7102,11.6504,11.7999,12.5178,12.7646,13.1758,14.0507,14.9555,15.6211,15.8529,16.324,16.5782,16.4586,16.6231,16.7352,16.7352,16.7352,16.7352,16.7352,16.7352,16.7352,16.7352,16.7352,16.7352,16.7352,16.7352,16.7352,16.7352,16.7352,16.7352,16.7352,16.7352,16.6517,16.4977,16.4099,16.3438,16.3242,16.3534,16.4371,16.5541,16.6871,16.7352,16.7352,16.7352,16.7352,16.7352,16.7352,16.7352,16.7352,16.7352,16.7352,16.7352,16.7352,16.7352,16.7352,16.7352,16.7352,16.7352,16.7352,16.7352,16.7352,16.7352,16.6316,16.5147,16.3916,16.2343,16.0673,15.8426,15.7507,15.6225,15.3764,15.3363,15.2649,15.0553,15.0624,15.0695,15.0339,15.0267,15.0267,15.0267,15.0267,15.0267,15.0267,15.0267,15.0267,15.0267,15.0267,15.0267,15.0267,15.0267,15.0267,15.0267,15.0267,15.0267,15.0267,15.0267,15.0267,15.0267,15.0267,15.0267,0.0,12.9291,13.2057,13.2057,12.9889,12.7272,12.5627,12.2785,0.0,11.6354,11.5532,11.5532,11.5831,11.5756,11.6878,12.0616,12.2561,12.6973,13.6843,14.0208,14.5143,15.4416,15.9875,16.2791,16.2716,16.5483,16.7352,16.7352,16.7352,16.7352,16.7352,16.7352,16.7352,16.7352,16.7352,16.7352,16.7352,16.7352,16.7352,16.7352,16.7352,16.7352,16.7352,16.7352,16.6076,16.382,16.3704,16.3015,16.2037,16.3142,16.4371,16.5541,16.6871,16.7352,16.7352,16.7352,16.7352,16.7352,16.7352,16.7352,16.7352,16.7352,16.7352,16.7352,16.7352,16.7352,16.7352,16.7352,16.7352,16.7352,16.7352,16.7352,16.7352,16.7352,16.6316,16.5407,16.5328,16.3332,16.1652,16.1367,15.9258,15.6937,15.519,15.5028,15.3841,15.0695,15.16,15.2029,15.0481,15.0267,15.0267,15.0267,15.0267,15.0267,15.0267,15.0267,15.0267,15.0267,15.0267,15.0267,15.0267,15.0267,15.0267,15.0267,15.0267,15.0267,15.0267,15.0267,15.0267,15.0267,15.0267,15.0267,12.9365,13.3478,13.5796,13.4749,13.2805,13.0412,12.772,12.458,12.1215,11.7924,11.7251,11.7251,11.7251,11.7251,11.8971,12.443,12.5776,12.9291,13.8114,14.1704,14.6265,15.4192,16.1295,16.5558,16.5558,16.6679,16.7352,16.7352,16.7352,16.7352,16.7352,16.7352,16.7352,16.7352,16.7352,16.7352,16.7352,16.7352,16.7352,16.7352,16.7352,16.7352,16.7352,16.6517,16.53,16.363,16.2811,16.1707,0.0,16.2738,16.3914,16.4548,16.6517,16.7352,16.7352,16.7352,16.7352,16.7352,16.7352,16.7352,16.7352,16.7352,16.7352,16.7352,16.7352,16.7352,16.7352,16.7352,16.7352,16.7352,16.7352,16.7352,16.7352,16.7352,16.5793,16.429,16.4389,16.2296,16.0526,16.0526,15.9686,15.8133,15.5545,15.5048,15.4006,15.0728,15.0811,15.091,15.0339,15.0267,15.0267,15.0267,15.0267,15.0267,15.0267,15.0267,15.0267,15.0267,15.0267,15.0267,15.0267,15.0267,15.0267,15.0267,15.0267,15.0267,15.0267,15.0267,15.0267,15.0267,15.0267,15.0267,13.5796,13.8862,14.0732,13.961,13.774,13.4974,13.0637,12.7047,12.3383,11.9046,11.8149,11.8149,11.8149,11.8149,12.0018,12.5627,12.7421,13.0936,13.9161,14.3124,14.7686,15.4341,16.0099,16.4137,16.5707,16.6754,16.7352,16.7352,16.7352,16.7352,16.7352,16.7352,16.7352,16.7352,16.7352,16.7352,16.7352,16.7352,16.7352,16.7352,16.7352,16.7352,16.7288,16.6002,16.4808,16.363,16.2811,16.1595,16.0532,16.3142,16.419,16.446,16.6517,16.7352,16.7352,16.7352,16.7352,16.7352,16.7352,16.7352,16.7352,16.7352,16.7352,16.7352,16.7352,16.7352,16.7352,16.7352,16.7352,16.7352,16.7352,16.7352,16.7278,16.6829,16.5195,16.3547,16.3189,16.1367,15.9757,15.9757,15.9757,15.8917,15.6312,15.6293,15.5342,15.1634,15.1452,15.1457,15.041,15.0267,15.0267,15.0267,15.0267,15.0267,15.0267,15.0267,15.0267,15.0267,15.0267,15.0267,15.0267,15.0267,15.0267,15.0267,15.0267,15.0267,15.0267,15.0267,15.0267,15.0267,15.0267,15.0267,14.3872,14.6489,14.7761,14.7761,14.5293,14.1105,13.4525,13.0412,12.6225,11.957,11.8149,11.8149,11.8149,11.8224,11.927,12.2561,12.5926,13.101,13.9161,14.3199,14.7686,15.4341,15.5164,15.7108,16.2043,16.5483,16.7352,16.7352,16.7352,16.7352,16.7352,16.7352,16.7352,16.7352,16.7352,16.7352,16.7352,16.7352,16.7352,16.7352,16.7352,16.7352,16.7288,16.6002,16.4808,16.363,16.363,16.2942,16.1928,16.4386,16.5461,16.5541,16.6871,16.7352,16.7352,16.7352,16.7352,16.7352,16.7352,16.7352,16.7352,16.7352,16.7352,16.7352,16.7352,16.7352,16.7352,16.7352,16.7352,16.7352,16.7352,16.7352,16.7053,16.5718,16.4532,16.3322,16.1945,16.0741,15.9757,15.9757,15.9757,15.9329,15.7721,15.8755,15.8187,15.3554,15.4055,15.3912,15.0695,15.0339,15.0339,15.0267,15.0267,15.0267,15.0267,15.0267,15.0267,15.0267,15.0267,15.0267,15.0267,15.0267,15.0267,15.0267,15.0267,15.0267,15.0267,15.0267,15.0267,15.0267,15.0267,15.0267,14.5667,14.7312,14.7761,14.7761,14.5293,14.1105,13.4525,13.0412,12.6225,11.957,11.8149,11.8149,11.8149,11.9121,12.099,12.4281,12.8618,13.3553,13.9535,14.4171,14.9481,15.6136,15.7856,16.0473,16.5408,16.6829,16.7352,16.7352,16.7352,16.7352,16.7352,16.7352,16.7352,16.7352,16.7352,16.7352,16.7352,16.7352,16.6871,16.6002,16.6002,16.5541,16.4796,16.4371,16.4007,16.363,16.363,16.3438,16.3242,16.4808,16.5461,16.5541,16.6871,16.7352,16.7352,16.7352,16.7352,16.7352,16.7352,16.7352,16.7352,16.7352,16.7352,16.7352,16.7352,16.7352,16.7352,16.7352,16.7352,16.7352,16.7352,16.6679,16.5867,16.5494,16.3824,16.2214,16.1815,16.0741,15.9757,15.9757,15.9757,15.9329,15.7721,15.7902,15.726,15.48,15.4742,15.4461,15.2363,15.2051,15.1574,15.041,15.0267,15.0267,15.0267,15.0267,15.0267,15.0267,15.0267,15.0267,15.0267,15.0267,15.0267,15.0267,15.0267,15.0267,15.0267,15.0267,15.0267,15.0267,15.0267,15.0267,14.5742,14.7237,14.7761,14.7761,14.6265,14.2751,13.4749,13.1459,12.7795,11.9794,11.8149,11.8373,11.9046,12.0542,12.3159,12.7795,13.2656,13.789,14.3498,14.7985,15.292,15.8903,16.0398,16.2641,16.6979,16.7352,16.7352,16.7352,16.7352,16.7352,16.7352,16.7352,16.7352,16.7352,16.7352,16.7352,16.7352,16.6871,16.6225,16.5461,16.4977,16.4371,16.363,16.3142,16.284,16.284,16.284,16.284,16.3042,16.4722,16.5461,16.5541,16.6871,16.7352,16.7352,16.7352,16.7352,16.7352,16.7352,16.7352,16.7352,16.7352,16.7352,16.7352,16.7352,16.7352,16.7352,16.7352,16.7352,16.7352,16.7352,16.6391,16.5161,16.4217,16.2799,16.1653,16.1026,16.0384,15.9757,15.9757,15.9757,15.9543,15.8561,15.8418,15.7792,15.6312,15.5994,15.5456,15.3978,15.3213,15.2378,15.1288,15.0695,15.0267,15.0267,15.0267,15.0267,15.0267,15.0267,15.0267,15.0267,15.0267,15.0267,15.0267,15.0267,15.0267,15.0267,15.0267,15.0267,15.0267,15.0267,15.0267,14.477,14.6489,14.7761,14.7761,14.7761,14.5218,13.5422,13.3179,13.0412,12.0467,11.8448,11.8822,12.0243,12.2262,12.5776,13.1983,13.7591,14.3424,14.9555,15.3294,15.7108,16.1744,16.2268,16.3464,16.6605,16.6904,16.6979,16.7128,16.7128,16.7203,16.7352,16.7352,16.7352,16.7352,16.7352,16.7288,16.7222,16.6002,16.5307,16.5061,16.4007,16.3438,16.3242,16.2181,16.1707,16.1707,16.1818,16.1965,16.2288,16.4474,16.5541,16.5698,16.6871,16.7352,16.7352,16.7352,16.7352,16.7352,16.7352,16.7352,16.7352,16.7352,16.7203,16.7053,16.7053,16.7053,16.7053,16.7053,16.7053,16.7053,16.7053,16.6092,16.4663,16.2324,16.1653,16.1169,15.9971,15.9757,15.9757,15.9757,15.9757,15.9757,15.9757,15.9757,15.9329,15.765,15.7436,15.674,15.5119,15.3608,15.2857,15.2714,15.1338,15.0267,15.0267,15.0267,15.0267,15.0267,15.0267,15.0267,15.0267,15.0267,15.0267,15.0267,15.0267,15.0267,15.0267,15.0267,15.0267,15.0267,15.0267,15.0267,14.477,14.6489,14.7761,14.7761,14.7761,14.5443,13.6918,13.4974,13.2132,12.2187,12.0168,11.9869,11.8897,12.4281,12.9739,13.2506,14.1479,14.9032,15.1724,15.5014,15.793,16.0249,16.0548,16.1295,16.3314,16.3539,16.4062,16.5483,16.5558,16.6081,16.7278,16.7352,16.7352,16.7352,16.7352,16.6871,16.5849,16.5541,16.4386,16.2531,16.2288,16.1595,16.0653,16.1442,16.1707,16.1818,16.2811,16.382,16.4648,16.5144,16.6002,16.7014,16.7288,16.7352,16.7352,16.7352,16.7352,16.7352,16.7352,16.7352,16.7352,16.7352,16.6017,16.4522,16.4522,16.4522,16.4522,16.4522,16.4522,16.4522,16.4522,16.4233,16.3622,16.2107,16.0955,16.0043,15.9829,15.9757,15.9757,15.9757,15.9757,15.9757,15.9757,15.9757,15.9329,15.765,15.7436,15.6439,15.3712,15.3,15.2836,15.2765,15.1266,15.0267,15.0267,15.0267,15.0267,15.0267,15.0267,15.0267,15.0267,15.0267,15.0267,15.0267,15.0267,15.0267,15.0267,15.0267,15.0267,15.0267,15.0267,15.0267,14.3872,14.5891,14.7761,14.7761,14.7761,14.619,14.0358,13.9012,13.6469,12.7272,12.4729,12.3458,12.099,12.6599,13.273,13.5946,14.4844,15.2247,15.464,15.651,15.823,15.98,15.9949,16.0622,16.2342,16.2492,16.3165,16.4885,16.5034,16.5408,16.6231,16.6979,16.7352,16.7352,16.6803,16.6076,16.5461,16.4207,16.3042,16.1707,16.117,16.0483,15.9757,16.0411,16.0819,16.0819,16.1555,16.2181,16.2694,16.3428,16.4423,16.5704,16.6193,16.6829,16.7352,16.7352,16.7352,16.7352,16.7352,16.6979,16.6424,16.6406,16.5236,16.3747,16.3747,16.3747,16.3747,16.3747,16.3747,16.3747,16.3747,16.3212,16.2531,16.1896,16.0741,15.9757,15.9757,15.9757,15.9757,15.9757,15.9757,15.9757,15.9757,15.9757,15.9329,15.765,15.7491,15.6564,15.4263,15.2551,15.1623,15.1623,15.0838,15.0267,15.0267,15.0267,15.0267,15.0267,15.0267,15.0267,15.0267,15.0267,15.0267,15.0267,15.0267,15.0267,15.0267,15.0267,15.0267,15.0267,15.0267,15.0267,14.2751,14.5218,14.7761,14.7761,14.7761,14.6863,14.3648,14.29,14.0657,13.288,12.9814,12.7646,12.4804,12.9739,13.5721,14.0059,14.791,15.4416,15.7257,15.7631,15.8155,15.9426,15.9576,16.0099,16.152,16.1669,16.2342,16.4062,16.4137,16.4436,16.5034,16.6231,16.7128,16.7352,16.6076,16.5226,16.4808,16.2738,16.1595,16.1442,16.0239,15.9757,15.9757,15.9757,15.9757,15.9757,15.9757,15.9938,16.0268,16.1241,16.2498,16.3749,16.4733,16.5867,16.7053,16.7053,16.7203,16.7352,16.7352,16.653,16.54,16.4893,16.398,16.2995,16.2995,16.2995,16.2995,16.2995,16.2995,16.2995,16.2995,16.2153,16.1439,16.1439,16.0598,15.9757,15.9757,15.9757,15.9757,15.9757,15.9757,15.9757,15.9757,15.9757,15.9186,15.7294,15.7117,15.6456,15.4477,15.198,15.0267,15.0267,15.0267,15.0267,15.0267,15.0267,15.0267,15.0267,15.0267,15.0267,15.0267,15.0267,15.0267,15.0267,15.0267,15.0267,15.0267,15.0267,15.0267,15.0267,15.0267,15.0267,14.2078,14.5218,14.7761,14.7761,14.7761,14.6863,14.3648,14.29,14.133,13.5946,13.2282,12.9964,12.9515,13.4899,14.0059,14.2227,15.0677,15.7108,15.7557,15.7631,15.7706,15.793,15.793,15.8005,15.823,15.8304,15.8977,16.0548,16.0622,16.1894,16.4885,16.5259,16.6006,16.7352,16.6076,16.4386,16.2288,16.1928,16.1098,16.0063,15.9884,15.9757,15.9757,15.9757,15.9757,15.9757,15.9757,16.0437,16.1457,16.1699,16.2581,16.3622,16.383,16.4671,16.5643,16.5643,16.6391,16.7352,16.7352,16.653,16.503,16.297,16.1367,16.0384,16.0384,16.0384,16.0384,16.0384,16.0384,16.0384,16.0384,16.0114,15.9971,15.9971,15.99,15.9757,15.9757,15.9757,15.9757,15.9757,15.9757,15.9757,15.9757,15.9757,15.883,15.5923,15.5476,15.4334,15.1338,15.0553,15.0267,15.0267,15.0267,15.0267,15.0267,15.0267,15.0267,15.0267,15.0267,15.0267,15.0267,15.0267,15.0267,15.0267,15.0267,15.0267,15.0267,15.0267,15.0267,15.0267,15.0267,15.0267,13.8339,14.2451,14.634,14.634,14.7013,14.7611,14.7162,14.7013,14.5891,14.1778,13.8339,13.5123,13.2356,13.7292,14.2003,14.2751,15.12,15.7631,15.7631,15.7631,15.7631,15.7631,15.7631,15.7631,15.7631,15.7631,15.8304,15.9875,15.9949,16.1071,16.3464,16.4511,16.5371,16.6298,16.5698,16.4207,16.1707,16.1054,16.0361,15.9757,15.9757,15.9757,15.9757,15.9757,15.9757,15.9757,15.9757,16.0044,16.0721,16.0721,16.1394,16.2674,16.3413,16.4412,16.5464,16.6224,16.6904,16.7278,16.653,16.5461,16.4081,16.2305,16.0812,15.9757,15.9757,15.9757,15.9757,15.9757,15.9757,15.9757,15.9757,15.9757,15.9757,15.9757,15.9757,15.9757,15.9757,15.9757,15.9757,15.9757,15.9757,15.9757,15.9757,15.8988,15.7705,15.5424,15.4406,15.2979,15.0624,15.0267,15.0267,15.0267,15.0267,15.0267,15.0267,15.0267,15.0267,15.0267,15.0267,15.0267,15.0267,15.0267,15.0267,15.0267,15.0267,15.0267,15.0267,15.0267,15.0267,15.0267,15.0267,15.0267,13.5048,13.9311,14.3573,14.4396,14.5592,14.6789,14.806,14.8658,14.8284,14.5742,14.2975,13.9984,13.6694,14.0507,14.4246,14.4695,15.2023,15.7631,15.7631,15.7631,15.7631,15.7631,0.0,15.7631,15.7631,15.7631,15.8155,15.9276,15.9351,16.0249,16.2342,16.3688,16.4714,16.5387,16.5144,16.3933,16.1707,16.0483,15.9757,15.9757,15.9757,15.9757,15.9757,15.9757,15.9757,15.9757,15.9757,15.9757,15.9757,15.9757,16.0384,16.1439,16.2709,16.3841,16.5193,16.6372,16.7053,16.7128,16.5568,16.4172,16.2924,16.1653,16.0598,15.9757,15.9757,15.9757,15.9757,15.9757,15.9757,15.9757,15.9757,15.9757,15.9757,15.9757,15.9757,15.9757,15.9757,15.9757,15.9757,15.9757,15.9757,15.9686,15.9329,15.7919,15.635,15.4814,15.36,15.2123,15.0481,15.0267,15.0267,15.0267,15.0267,15.0267,15.0267,15.0267,15.0267,15.0267,15.0267,15.0267,15.0267,15.0267,15.0267,15.0267,15.0267,15.0267,15.0267,15.0267,15.0267,15.0267,15.0267,15.0267,13.3777,13.6843,13.8937,14.2227,14.305,14.3124,14.3199,14.4396,14.5443,14.5218,14.3872,14.3124,14.4321,14.619,14.7985,14.963,15.4266,15.7631,15.7631,15.7631,15.7631,15.7631,15.7631,15.7631,15.7631,15.7631,15.7706,15.7781,15.7781,15.9127,16.2342,16.2567,16.352,16.5313,16.4281,16.3116,16.1707,16.0483,15.9757,15.9757,15.9757,15.9757,15.9757,15.9757,15.9757,15.9757,15.9757,15.9757,15.9757,15.9757,15.9829,15.9971,16.124,16.2592,16.3961,16.513,16.6241,16.7053,16.4597,16.2904,16.1653,16.0384,15.9829,15.9757,15.9757,15.9757,15.9757,15.9757,15.9757,15.9757,15.9757,15.9757,15.9757,15.9757,15.9757,15.9757,15.9757,15.9757,15.9757,15.9757,15.9757,15.9329,15.7792,15.6279,15.4742,15.3149,15.2863,15.21,15.0481,15.0267,15.0267,15.0267,15.0267,15.0267,15.0267,15.0267,15.0267,15.0267,15.0267,15.0267,15.0267,15.0267,15.0267,15.0267,15.0267,15.0267,15.0267,15.0267,15.0267,15.0267,15.0267,15.0267,12.8468,13.2656,13.6843,13.9086,14.1255,14.29,14.29,14.3349,14.4022,14.4994,14.3947,14.3349,14.4919,14.6564,14.8284,15.0004,15.3519,15.6435,15.7482,15.7631,15.7631,15.7631,15.7631,15.7631,15.7631,15.7631,15.7631,15.7631,15.7631,15.8603,16.0772,16.0178,16.0201,16.1203,16.0996,16.0296,15.8977,15.9438,15.9757,15.9757,15.9757,15.9757,15.9757,15.9757,15.9757,15.9757,15.9757,15.9757,15.9757,15.9757,16.0312,16.1098,16.2495,16.3672,16.497,16.6166,16.6391,16.5609,16.2068,16.0564,15.9829,15.7507,15.674,15.674,15.674,15.674,15.674,15.674,15.674,15.674,15.674,15.674,15.674,15.674,15.674,15.674,15.674,15.674,15.674,15.674,15.674,15.6597,15.6099,15.5529,15.4515,15.3077,15.1815,15.091,15.0339,15.0267,15.0267,15.0267,15.0267,15.0267,15.0267,15.0267,15.0267,15.0267,15.0267,15.0267,15.0267,15.0267,15.0267,15.0267,15.0267,15.0267,15.0267,15.0267,15.0267,15.0267,15.0267,15.0267,12.3757,12.7945,13.2506,13.4151,13.7067,13.9535,13.9535,14.0432,14.1479,14.2526,14.2825,14.3349,14.4919,14.6564,14.8434,15.0677,15.3294,15.5687,15.7407,15.7631,15.7631,15.7631,15.7631,15.7631,15.7631,15.7631,15.7631,15.7631,15.7631,15.8304,15.9875,15.8862,15.8389,15.879,15.8683,15.7997,15.6689,15.8187,15.8758,15.8187,15.883,15.9044,15.8972,15.9543,15.9757,15.9757,15.9757,15.9757,15.9829,16.0312,16.0955,16.1976,16.3557,16.4755,16.5494,16.6391,16.5258,16.2734,15.9667,15.833,15.767,15.5709,15.5138,15.5138,15.5138,15.5138,15.5138,15.5138,15.5138,15.5138,15.5138,15.5138,15.5138,15.5138,15.5138,15.5138,15.5138,15.5138,15.5138,15.5138,15.5138,15.4872,15.4444,15.4373,15.3855,15.2172,15.091,15.0267,15.0267,15.0267,15.0267,15.0267,15.0267,15.0267,15.0267,15.0267,15.0267,15.0267,15.0267,15.0267,15.0267,15.0267,15.0267,15.0267,15.0267,15.0267,15.0267,15.0267,15.0267,15.0267,15.0267,14.9982,12.0243,12.3009,12.5851,12.7496,13.0337,13.273,13.2805,13.5273,13.7591,13.774,14.0432,14.3199,14.477,14.6489,14.8733,15.1948,15.3892,15.5538,15.7257,15.7557,15.7557,15.7557,15.7631,15.7631,15.7631,15.7631,15.7631,15.7631,15.7631,15.8304,15.98,15.8713,15.8233,15.8623,15.7489,15.6298,15.5048,15.6618,15.6618,15.5119,15.6707,15.7349,15.7456,15.8972,15.9686,15.9686,15.9686,15.9757,15.9829,16.1169,16.1779,16.2089,16.4418,16.5419,16.5419,16.5195,16.2407,15.8561,15.7365,15.617,15.5034,15.4962,15.4962,15.4962,15.4962,15.4962,15.4962,15.4962,15.4962,15.4962,15.4962,15.4962,15.4962,15.4962,15.4962,15.4962,15.4962,15.4962,15.4962,15.4962,15.4962,15.4532,15.2934,15.272,15.21,15.0553,15.0267,15.0267,15.0267,15.0267,15.0267,15.0267,15.0267,15.0267,15.0267,15.0267,15.0267,15.0267,15.0267,15.0267,15.0267,15.0267,15.0267,15.0267,15.0267,15.0267,15.0196,15.0196,15.0196,15.0196,15.0196,14.934,12.0243,12.1364,12.2486,12.4034,12.6052,12.797,12.9139,13.011,13.1805,13.5422,13.7815,13.9759,14.1405,14.4022,14.6639,14.8733,15.0453,15.2173,15.3743,15.5014,15.5837,15.5837,15.6884,15.7631,15.7631,15.7631,15.7631,15.7631,15.7631,15.7856,15.823,15.6264,15.5193,15.5257,15.4385,15.3721,15.3499,15.5048,15.5566,15.5102,15.5566,15.5742,15.5772,15.7403,15.8133,15.8133,15.8133,15.8632,15.9615,16.1098,16.2799,16.4343,16.39,16.4308,16.4671,16.0785,15.8611,15.7252,15.4864,15.3792,15.3268,15.1957,15.16,15.16,15.16,15.16,15.16,15.16,15.16,15.16,15.16,15.16,15.16,15.16,15.16,15.16,15.16,15.16,15.16,15.16,15.16,15.1457,15.0981,15.091,15.0767,15.0339,15.0267,15.0267,15.0267,15.0267,15.0267,15.0267,15.0267,15.0267,15.0267,15.0267,15.0267,15.0267,15.0267,15.0267,15.0267,15.0267,15.0267,15.0267,15.0267,14.9697,14.8555,14.8555,14.7984,14.6914,14.6914,14.67,11.3977,11.4005,11.5079,11.7392,11.8186,11.9728,12.4807,12.4906,12.5354,13.0287,13.3179,13.5273,13.6918,13.9909,14.3124,14.619,14.8135,15.0004,15.2247,15.3444,15.4341,15.5014,15.5986,15.6584,15.6584,15.7257,15.7631,15.7631,15.7631,15.7631,15.7631,15.529,15.4008,15.396,15.2479,15.2001,15.25,15.412,15.4834,15.4639,15.5242,15.5557,15.5654,15.6508,15.7331,15.799,15.7956,15.8384,15.9098,16.0151,16.1376,16.2589,16.1629,16.1768,16.1853,15.6843,15.5001,15.4747,15.2506,15.1743,15.16,15.0553,15.0267,15.0267,15.0267,15.0267,15.0267,15.0267,15.0267,15.0267,15.0267,15.0267,15.0267,15.0267,15.0267,15.0267,15.0267,15.0267,15.0267,15.0267,15.0267,15.0267,15.0267,15.0267,15.0267,15.0267,15.0267,15.0267,15.0267,15.0267,15.0267,15.0267,15.0267,15.0267,15.0267,15.0267,15.0267,15.0267,15.0267,15.0267,15.0267,15.0267,14.9982,14.934,14.934,14.8555,14.6985,14.6985,14.6486,14.563,14.563,14.4202,10.4053,10.3695,10.5779,10.845,10.8003,10.9316,0.0,11.8336,11.7717,12.2887,12.6524,12.9365,13.1459,13.4675,13.8638,14.3573,14.5816,14.806,15.1275,15.1948,15.2621,15.4117,15.4491,15.4715,15.5089,15.651,15.7407,15.7631,15.7631,15.7631,15.7631,15.5299,15.3912,15.396,15.1672,15.0981,15.222,15.3766,15.4258,15.3911,15.532,15.6009,15.6009,15.6154,15.6933,15.8163,15.8315,15.8272,15.8228,15.8482,15.868,15.8784,15.8636,15.8259,15.7378,15.349,15.1957,15.1815,15.0695,15.0267,15.0267,15.0267,15.0267,15.0267,15.0267,15.0267,15.0267,15.0267,15.0267,15.0267,15.0267,15.0267,15.0267,15.0267,15.0267,15.0267,15.0267,15.0267,15.0267,15.0267,15.0267,15.0267,15.0267,15.0267,15.0267,15.0267,15.0267,15.0267,15.0267,15.0267,15.0267,15.0267,15.0267,15.0267,15.0267,15.0267,15.0267,15.0267,15.0267,15.0196,15.0053,15.0053,14.9268,14.7699,14.7699,14.6842,14.5059,14.5059,14.4916,14.4559,14.4559,14.142,0.0,0.0,0.0,0.0,0.0,0.0,0.0,10.4708,10.603,11.2378,11.6279,11.9869,12.4206,12.8767,13.3478,13.8413,14.0657,14.29,14.619,14.7835,14.8808,14.9107,15.0378,15.2188,15.4879,15.5403,15.615,15.7557,15.7631,15.7631,15.7631,15.5314,15.3918,15.4007,15.2577,15.1886,15.2291,15.3467,15.4043,15.3968,15.4265,15.4339,15.4414,15.5674,15.5823,15.4935,15.6194,15.6194,15.5453,15.6806,15.7952,15.8665,15.7398,15.4974,15.1795,15.0954,15.0624,15.0624,15.041,15.0267,15.0267,15.0267,15.0267,15.0267,15.0267,15.0267,15.0267,15.0267,15.0267,15.0267,15.0267,15.0267,15.0267,15.0267,15.0267,15.0267,15.0267,15.0267,15.0267,15.0267,15.0267,15.0267,15.0267,15.0267,15.0267,15.0267,15.0267,15.0267,15.0267,15.0267,15.0267,15.0267,15.0267,15.0267,15.0267,15.0267,15.0267,15.0267,15.0267,14.9697,14.8412,14.8412,14.7627,14.6129,14.6058,14.4702,14.1848,14.1848,14.0564,13.8066,13.8066,13.6068,0.0,0.0,0.0,0.0,0.0,0.0,0.0,0.0,0.0,0.0,0.0,11.0596,11.3886,0.0,12.6898,13.101,13.5871,13.9984,14.2451,14.4919,14.6489,14.6433,14.8003,15.0021,15.2487,15.3399,15.4221,15.5104,15.5926,15.6374,15.6374,15.5403,15.4846,15.4913,15.3698,15.331,15.4022,15.4483,15.5178,15.5776,15.5776,15.5776,15.5776,15.6599,15.6524,15.5776,15.5926,15.5627,15.5131,15.5411,15.5453,15.5439,15.3912,15.2029,15.0267,15.0267,15.0267,15.0267,15.0267,15.0267,15.0267,15.0267,15.0267,15.0267,15.0267,15.0267,15.0267,15.0267,15.0267,15.0267,15.0267,15.0267,15.0267,15.0267,15.0267,15.0267,15.0267,15.0267,15.0267,15.0267,15.0267,15.0267,15.0267,15.0267,15.0267,15.0267,15.0267,15.0267,15.0267,15.0267,14.934,14.703,14.67,14.6771,14.6771,14.6771,14.777,15.0125,14.9554,14.8412,14.6842,14.6771,14.5701,14.3346,14.3275,14.1348,13.7424,13.7424,13.6211,13.3856,13.0646,12.8362,0.0,0.0,0.0,0.0,0.0,0.0,0.0,0.0,0.0,0.0,0.0,0.0,0.0,0.0,0.0,12.3933,13.096,13.6843,13.946,14.1853,14.3443,14.3742,14.5553,14.7421,14.9124,15.0709,15.183,15.2129,15.3683,15.473,15.5104,15.5178,15.5379,15.5696,15.483,15.4774,15.5702,15.5926,15.6599,15.7631,15.7631,0.0,15.7631,15.7407,15.7257,15.7183,15.5926,15.525,15.5009,15.3997,15.2863,15.1672,15.0339,14.9791,14.972,14.9506,14.9577,14.9791,14.9791,14.9934,15.0267,15.0267,15.0267,15.0267,14.9863,14.9791,0.0,14.9435,14.9577,14.9791,14.9791,15.0005,15.0267,15.0267,15.0267,15.0267,15.0267,15.0267,15.0267,15.0267,15.0267,15.0267,15.0267,14.9934,14.9577,14.8959,14.9649,14.9863,14.8959,14.9649,14.8769,14.5073,14.4573,14.4573,14.4631,14.3489,14.4845,14.9554,14.7485,14.5415,14.3846,14.3774,14.2347,13.9208,13.8851,13.6782,13.3072,13.2715,13.1573,12.9575,12.137,11.823,0.0,0.0,0.0,0.0,0.0,0.0,0.0,0.0,0.0,0.0,0.0,0.0,0.0,0.0,0.0,0.0,12.5753,13.131,13.7217,13.726,13.713,13.8488,14.1444,14.4059,14.5611,14.7255,14.8882,15.0435,15.1989,15.3502,15.5029,15.4146,0.0,0.0,0.0,15.5548,15.5702,15.6884,15.7482,15.7631,15.7631,15.7631,15.7631,15.6449,15.5926,15.5851,15.4669,15.3573,15.2647,15.2457,15.1672,15.0339,14.8745,14.8246,14.7984,14.6655,14.6939,14.8246,14.8246,0.0,0.0,15.0267,15.0267,14.9934,14.8603,14.8246,14.7842,14.6513,14.7201,14.8246,14.8246,14.9221,15.0267,15.0267,15.0267,15.0267,15.0267,15.0267,15.0267,15.0267,15.0267,15.0267,15.0267,14.915,14.7273,14.4497,14.7628,14.8745,14.4568,14.77,15.0125,14.9554,14.9435,0.0,14.9411,14.4417,14.3204,14.7913,14.2847,13.8994,13.7353,13.7281,13.5854,13.2715,13.1288,13.0289,12.9789,12.8434,12.615,12.2797,10.817,10.4317,0.0,0.0,0.0,0.0,0.0,0.0,0.0,0.0,0.0,0.0,0.0,0.0,0.0,0.0,0.0,0.0,11.7842,12.3637,12.7346,12.9764,13.2478,13.6043,13.8509,14.0378,14.1405,14.3553,14.49,14.4938,14.791,15.0136,15.0827,15.2129,15.325,15.3847,15.3922,15.437,15.5328,15.5926,15.6734,15.7631,15.7631,15.7257,15.6449,15.5926,15.5379,15.4565,15.3447,15.2687,15.21,15.1386,15.0695,14.9934,0.0,0.0,0.0,0.0,14.603,14.653,14.6561,14.6939,14.7557,14.7557,14.7557,14.7415,14.6726,14.6583,14.6387,14.5816,14.603,14.6602,14.6561,14.77,14.8888,14.8888,14.9577,15.0267,15.0267,15.0267,15.0267,15.0267,14.9506,0.0,14.7717,14.7011,14.6038,14.4781,14.6271,14.6858,14.4948,14.637,14.6822,14.5002,14.491,14.5156,14.6058,14.3774,0.0,0.0,0.0,14.1991,14.0421,13.9422,0.0,0.0,0.0,12.2868,11.8302,11.4021,0.0,0.0,9.7824,9.5754,0.0,0.0,0.0,0.0,0.0,0.0,0.0,0.0,0.0,0.0,0.0,0.0,0.0,0.0,0.0,0.0,11.0494,11.6624,11.7804,12.2214,12.6874,13.0908,13.4024,13.5348,13.4196,13.774,13.9696,13.8643,14.2994,14.5891,14.6358,14.8991,15.1008,15.1905,15.1905,15.2786,15.4416,15.4431,15.5029,15.6225,15.6225,15.5627,15.4445,15.4486,15.3895,15.2791,15.1957,15.1457,15.091,14.9934,14.9363,14.8603,14.5564,14.4302,14.4185,14.3287,14.3001,14.3031,14.35,14.3952,14.4308,14.4308,14.4308,14.4237,14.381,14.366,14.3613,14.3144,14.3685,14.4287,14.44,14.5824,14.7296,14.7273,14.8175,14.8959,14.8959,14.8959,14.8959,14.8959,14.7035,14.5157,14.4471,14.3945,14.3337,14.2509,14.3876,14.4447,14.3215,14.445,14.4729,14.2469,14.2531,14.3275,14.4417,14.3346,14.3988,14.7128,14.4631,14.2918,14.2633,13.985,13.6782,13.3357,12.5508,11.7374,0.0,0.0,0.0,0.0,0.0,0.0,0.0,0.0,0.0,0.0,0.0,0.0,0.0,0.0,0.0,0.0,0.0,0.0,0.0,0.0,0.0,0.0,0.0,0.0,11.1123,11.533,11.9134,12.0974,12.6774,12.8418,12.2783,12.8864,13.2955,13.1929,13.7292,14.1255,14.2938,14.4582,14.6881,15.0211,15.0361,15.1091,15.2662,15.2637,15.2666,15.2741,15.2741,15.2218,15.1199,15.1427,15.1005,14.9934,15.0267,14.9506,14.7984,14.7984,14.7201,14.5398,14.2377,14.1063,14.0778,13.7622,13.6515,13.6728,13.8304,13.9769,14.1063,14.1063,14.1063,14.0737,13.927,13.8843,13.8446,13.6982,13.8772,14.1063,14.1063,14.3358,14.5687,14.5707,14.5682,14.5753,14.5753,14.5753,14.5753,14.5753,14.2032,13.9342,14.0849,13.9881,13.7765,13.4729,13.9525,0.0,13.7196,14.1889,14.5544,14.5415,14.6771,14.7699,14.777,14.3632,14.2347,14.5487,13.9921,13.7923,14.0849,13.5141,13.1787,13.1645,12.3867,11.5234,10.5886,0.0,0.0,0.0,0.0,0.0,0.0,0.0,0.0,0.0,0.0,0.0,0.0,0.0,0.0,0.0,0.0,0.0,0.0,0.0,0.0,0.0,0.0,0.0,0.0,10.9806,11.5526,11.7146,12.0304,12.0392,11.5452,12.0941,12.4397,12.3305,13.0861,13.5699,13.6234,13.993,14.2506,14.3628,14.477,14.6657,14.9388,14.9406,15.0453,15.2605,15.1873,15.0901,14.9738,14.9152,14.8218,14.7011,14.7201,14.6868,14.637,14.6343,14.3589,13.9215,13.7083,13.6278,13.6212,13.5176,13.4713,13.4927,13.6498,13.7391,13.7605,13.664,13.5605,13.4641,13.4106,13.3892,13.4035,13.457,13.5462,13.6533,13.7632,13.9342,14.1277,14.2191,14.2476,14.3089,14.5174,14.3988,14.2876,14.3917,13.7814,13.1613,12.884,13.1435,13.2574,12.8414,13.3073,13.7247,13.7734,13.9667,14.1806,14.3764,14.4496,14.53,14.6298,14.4872,14.406,14.406,14.2062,14.0421,13.9422,13.7353,13.4784,13.1645,12.6935,11.7303,10.2604,0.0,0.0,0.0,0.0,0.0,0.0,0.0,0.0,0.0,0.0,0.0,0.0,0.0,0.0,0.0,0.0,0.0,0.0,0.0,0.0,0.0,0.0,0.0,0.0,0.0,0.0,11.4658,11.5031,0.0,10.8319,11.171,11.3788,11.2677,12.0896,12.6524,12.7594,13.238,13.5871,13.7666,13.993,14.2396,14.5069,14.5237,14.6433,14.8434,14.7462,14.6338,14.515,14.4995,14.4317,14.317,14.3668,14.3597,14.2957,14.1929,13.7709,13.2,13.0363,12.8663,12.7262,12.7863,12.8403,12.9226,13.1359,13.2463,13.2606,13.1145,12.8371,12.5705,12.5705,12.4536,12.3865,12.7119,12.8474,12.962,13.2928,13.5424,13.721,13.8247,13.8922,13.9739,14.1864,13.9779,13.7489,13.7493,13.1566,12.5207,12.0408,12.3015,12.4944,12.2444,12.6456,13.122,13.5495,13.7561,13.9443,14.1302,14.253,14.3687,14.4613,14.5228,14.4916,14.3346,14.2704,14.1277,13.8708,13.6996,13.3642,12.8291,12.351,11.3878,0.0,0.0,0.0,0.0,0.0,0.0,0.0,0.0,0.0,0.0,0.0,0.0,0.0,0.0,0.0,0.0,0.0,0.0,0.0,0.0,0.0,0.0,0.0,0.0,0.0,0.0,0.0,11.2483,11.0497,0.0,0.0,0.0,0.0,10.0568,10.8094,11.408,11.7269,12.2118,12.7098,13.2052,13.5295,13.7815,13.9888,14.0323,14.0676,14.0784,13.9755,13.8723,13.7806,13.9382,13.9453,13.8487,13.9952,13.9739,13.8131,13.4534,12.9511,12.3912,12.1863,11.8425,11.4626,11.6166,11.7646,11.9433,12.2958,12.508,12.6036,12.4408,11.97,11.4671,11.422,11.1033,0.0,0.0,11.7688,12.0351,12.685,13.086,13.3139,13.3496,13.4748,13.5884,13.6066,13.3464,13.0261,12.6661,12.3393,11.9441,11.4291,0.0,11.4449,11.5783,11.9133,12.3808,13.0328,13.521,13.8416,13.8517,14.1194,14.3089,14.3161,14.4559,14.4702,14.3132,14.1634,14.0064,13.8352,13.3642,12.8077,12.1655,11.3735,0.0,0.0,0.0,0.0,0.0,0.0,0.0,0.0,0.0,0.0,0.0,0.0,0.0,0.0,0.0,0.0,0.0,0.0,0.0,0.0,0.0,0.0,0.0,0.0,0.0,0.0,9.4752,9.9438,10.3546,10.027,9.5676,0.0,0.0,0.0,0.0,0.0,0.0,10.7048,11.193,11.6795,12.1795,12.3338,12.7197,13.3673,13.3118,13.4054,13.6402,13.5295,13.4705,13.4462,13.5283,13.5426,13.5283,13.6747,13.6604,13.4391,12.5379,12.0,11.6894,11.0627,10.7467,10.6463,10.6902,10.7228,10.8563,11.5211,11.7816,11.7646,11.4944,11.2073,10.8722,10.2837,0.0,0.0,0.0,0.0,10.9296,11.6768,12.0241,12.2758,12.7627,12.9017,12.9941,13.232,12.9372,12.3732,11.4643,11.0363,10.4428,9.2609,9.5447,0.0,9.6776,10.6137,11.6045,12.3525,12.9657,13.4748,13.8273,13.9342,14.0196,14.1491,14.1919,14.1491,13.9921,13.9422,13.7495,13.35,12.7649,12.1013,11.3592,0.0,0.0,0.0,0.0,0.0,0.0,0.0,0.0,0.0,0.0,0.0,0.0,0.0,0.0,0.0,0.0,0.0,0.0,0.0,0.0,0.0,0.0,0.0,0.0,0.0,0.0,0.0,8.9174,9.4561,9.7311,9.309,8.8523,0.0,0.0,0.0,0.0,0.0,0.0,0.0,0.0,0.0,11.1162,11.3184,11.6478,12.1516,12.3948,12.5797,12.6905,12.825,12.8607,12.8321,12.8535,12.9147,12.9867,13.0755,12.8688,12.421,11.7946,11.1559,10.5328,0.0,0.0,0.0,0.0,9.7642,9.8941,10.402,10.6208,10.6237,10.2375,0.0,0.0,0.0,0.0,0.0,0.0,0.0,10.0094,10.8294,11.3932,11.8493,12.2758,12.4251,12.5207,12.7078,11.8383,10.8016,10.1109,9.7349,9.1973,8.1944,8.3808,0.0,0.0,0.0,10.8835,11.8808,12.6844,13.2857,13.6211,13.7703,13.8914,13.985,13.9921,13.9565,13.8708,13.6711,13.3072,12.7649,12.0728,11.1951,0.0,0.0,0.0,0.0,0.0,0.0,0.0,0.0,0.0,0.0,0.0,0.0,0.0,0.0,0.0,0.0,0.0,0.0,0.0,0.0,0.0,0.0,0.0,0.0,0.0,0.0,0.0,0.0,0.0,9.1122,9.1781,0.0,0.0,0.0,0.0,0.0,0.0,0.0,0.0,0.0,0.0,0.0,0.0,0.0,10.5476,10.7017,11.3254,11.5733,11.4611,11.8801,12.0346,11.9609,11.9847,12.1078,12.2951,12.1683,0.0,11.179,11.049,0.0,0.0,0.0,0.0,0.0,0.0,0.0,0.0,0.0,0.0,0.0,0.0,0.0,0.0,0.0,0.0,0.0,0.0,0.0,0.0,0.0,0.0,11.4306,11.6214,11.8373,11.9419,11.7753,10.3446,9.0136,8.7585,8.4895,8.1333,0.0,0.0,0.0,0.0,0.0,0.0,11.432,12.4779,13.1716,13.3743,13.6425,13.8059,13.8209,13.828,13.8138,13.7709,13.2857,12.7078,12.0514,11.295,0.0,0.0,0.0,0.0,0.0,0.0,0.0,0.0,0.0,0.0,0.0,0.0,0.0,0.0,0.0,0.0,0.0,0.0,0.0,0.0,0.0,0.0,0.0,0.0,0.0,0.0,0.0,0.0,0.0,0.0,0.0,0.0,0.0,0.0,0.0,0.0,0.0,0.0,0.0,0.0,0.0,0.0,0.0,0.0,0.0,0.0,0.0,0.0,0.0,0.0,10.5904,10.686,10.679,10.7942,11.0861,11.4408,10.6586,10.4639,10.6384,9.8484,0.0,0.0,0.0,0.0,0.0,0.0,0.0,0.0,0.0,0.0,0.0,0.0,0.0,0.0,0.0,0.0,0.0,0.0,0.0,0.0,0.0,0.0,9.6156,9.9525,10.4519,10.5759,9.5268,0.0,0.0,0.0,0.0,0.0,0.0,0.0,0.0,0.0,0.0,0.0,10.6495,11.9457,12.9368,13.3425,13.4427,13.5281,13.6602,13.6711,13.5569,13.3,12.5865,11.8373,0.0,0.0,0.0,0.0,0.0,0.0,0.0,0.0,0.0,0.0,0.0,0.0,0.0,0.0,0.0,0.0,0.0,0.0,0.0,0.0,0.0,0.0,0.0,0.0,0.0,0.0,0.0,0.0,0.0,0.0,0.0,0.0,0.0,0.0,0.0,0.0,0.0,0.0,0.0,0.0,0.0,0.0,0.0,0.0,0.0,0.0,0.0,0.0,0.0,0.0,0.0,0.0,0.0,0.0,0.0,0.0,0.0,0.0,9.6929,9.2696,0.0,0.0,0.0,0.0,0.0,0.0,0.0,0.0,0.0,0.0,0.0,0.0,0.0,0.0,0.0,0.0,0.0,0.0,0.0,0.0,0.0,0.0,0.0,0.0,0.0,0.0,0.0,0.0,0.0,0.0,0.0,0.0,0.0,0.0,0.0,0.0,0.0,0.0,0.0,0.0,10.3145,11.6962,12.7205,13.1145,13.2965,13.428,13.5033,13.4998,13.271,12.6993,11.9317,0.0,0.0,0.0,0.0,0.0,0.0,0.0,0.0,0.0,0.0,0.0,0.0,0.0,0.0,0.0,0.0,0.0,0.0,0.0,0.0,0.0,0.0,0.0,0.0,0.0,0.0,0.0,0.0,0.0,0.0,0.0,0.0,0.0,0.0,0.0,0.0,0.0,0.0,0.0,0.0,0.0,0.0,0.0,0.0,0.0,0.0,0.0,0.0,0.0,0.0,0.0,0.0,0.0,0.0,0.0,0.0,0.0,0.0,0.0,8.8049,8.2656,0.0,0.0,0.0,0.0,0.0,0.0,0.0,0.0,0.0,0.0,0.0,0.0,0.0,0.0,0.0,0.0,0.0,0.0,0.0,0.0,0.0,0.0,0.0,0.0,0.0,0.0,0.0,0.0,0.0,0.0,0.0,0.0,0.0,0.0,0.0,0.0,0.0,0.0,0.0,0.0,10.1557,11.5551,12.5784,12.8908,13.1754,13.3388,13.3393,13.3177,12.9351,12.1107,11.2645,0.0,0.0,0.0,0.0,0.0,0.0,0.0,0.0,0.0,0.0,0.0,0.0,0.0,0.0,0.0,0.0,0.0,0.0,0.0,0.0,0.0,0.0,0.0,0.0,0.0,0.0,0.0,0.0,0.0,0.0,0.0,0.0,0.0,0.0,0.0,0.0,0.0,0.0,0.0,0.0,0.0,0.0,0.0,0.0,0.0,0.0,0.0,0.0,0.0,0.0,0.0,0.0,0.0,0.0,0.0,0.0,0.0,0.0,0.0,0.0,0.0,0.0,0.0,0.0,0.0,0.0,0.0,0.0,0.0,0.0,0.0,0.0,0.0,0.0,0.0,0.0,0.0,0.0,0.0,0.0,0.0,0.0,0.0,0.0,0.0,0.0,0.0,0.0,0.0,0.0,0.0,0.0,0.0,0.0,0.0,0.0,0.0,0.0,0.0,0.0,0.0,10.0059,11.4982,12.5822,12.8941,13.0827,13.1859,13.1787,13.0542,12.5651,11.6274,0.0,0.0,0.0,0.0,0.0,0.0,0.0,0.0,0.0,0.0,0.0,0.0,0.0,0.0,0.0,0.0,0.0,0.0,0.0,0.0,0.0,0.0,0.0,0.0,0.0,0.0,0.0,0.0,0.0,0.0,0.0,0.0,0.0,0.0,0.0,0.0,0.0,0.0,0.0,0.0,0.0,0.0,0.0,0.0,0.0,0.0,0.0,0.0,0.0,0.0,0.0,0.0,0.0,0.0,0.0,0.0,0.0,0.0,0.0,0.0,0.0,0.0,0.0,0.0,0.0,0.0,0.0,0.0,0.0,0.0,0.0,0.0,0.0,0.0,0.0,0.0,0.0,0.0,0.0,0.0,0.0,0.0,0.0,0.0,0.0,0.0,0.0,0.0,0.0,0.0,0.0,0.0,0.0,0.0,0.0,0.0,0.0,0.0,0.0,0.0,0.0,0.0,9.7648,11.2211,12.3277,12.7476,12.9219,13.0178,13.0178,12.9615,12.3598,11.031,0.0,0.0,0.0,0.0,0.0,0.0,0.0,0.0,0.0,0.0,0.0,0.0,0.0,0.0,0.0,0.0,0.0,0.0,0.0,0.0,0.0,0.0,0.0,0.0,0.0,0.0,0.0,0.0,0.0,0.0,0.0,0.0,0.0,0.0,0.0,0.0,0.0,0.0,0.0,0.0,0.0,0.0,0.0,0.0,0.0,0.0,0.0,0.0,0.0,0.0,0.0,0.0,0.0,0.0,0.0,0.0,0.0,0.0,0.0,0.0,0.0,0.0,0.0,0.0,0.0,0.0,0.0,0.0,0.0,0.0,0.0,0.0,0.0,0.0,0.0,0.0,0.0,0.0,0.0,0.0,0.0,0.0,0.0,0.0,0.0,0.0,0.0,0.0,0.0,0.0,0.0,0.0,0.0,0.0,0.0,0.0,0.0,0.0,0.0,0.0,0.0,0.0,9.6505,11.0596,12.137,12.5836,12.7678,12.8565,12.8535,12.8148,12.1318,10.5957,0.0,0.0,0.0,0.0,0.0,0.0,0.0,0.0,0.0,0.0,0.0,0.0,0.0,0.0,0.0,0.0,0.0,0.0,0.0,0.0,0.0,0.0,0.0,0.0,0.0,0.0,0.0,0.0,0.0,0.0,0.0,0.0,0.0,0.0,0.0,0.0,0.0,0.0,0.0,0.0,0.0,0.0,0.0,0.0,0.0,0.0,0.0,0.0,0.0,0.0,0.0,0.0,0.0,0.0,0.0,0.0,0.0,0.0,0.0,0.0,0.0,0.0,0.0,0.0,0.0,0.0,0.0,0.0,0.0,0.0,0.0,0.0,0.0,0.0,0.0,0.0,0.0,0.0,0.0,0.0,0.0,0.0,0.0,0.0,0.0,0.0,0.0,0.0,0.0,0.0,0.0,0.0,0.0,0.0,0.0,0.0,0.0,0.0,0.0,0.0,0.0,0.0,9.7482,11.104,12.0936,12.4268,12.6036,12.6993,12.6993,12.5492,11.861,0.0,0.0,0.0,0.0,0.0,0.0,0.0,0.0,0.0,0.0,0.0,0.0,0.0,0.0,0.0,0.0,0.0,0.0,0.0,0.0,0.0,0.0,0.0,0.0,0.0,0.0,0.0,0.0,0.0,0.0,0.0,0.0,0.0,0.0,0.0,0.0,0.0,0.0,0.0,0.0,0.0,0.0,0.0,0.0,0.0,0.0,0.0,0.0,0.0,0.0,0.0,0.0,0.0,0.0,0.0,0.0,0.0,0.0,0.0,0.0,0.0,0.0,0.0,0.0,0.0,0.0,0.0,0.0,0.0,0.0,0.0,0.0,0.0,0.0,0.0,0.0,0.0,0.0,0.0,0.0,0.0,0.0,0.0,0.0,0.0,0.0,0.0,0.0,0.0,0.0,0.0,0.0,0.0,0.0,0.0,0.0,0.0,0.0,0.0,0.0,0.0,0.0,0.0,9.4719,10.619,11.5783,12.2129,12.4295,12.5393,12.5393,12.4894,11.8516,10.4305,0.0,0.0,0.0,0.0,0.0,0.0,0.0,0.0,0.0,0.0,0.0,0.0,0.0,0.0,0.0,0.0,0.0,0.0,0.0,0.0,0.0,0.0,0.0,0.0,0.0,0.0,0.0,0.0,0.0,0.0,0.0,0.0,0.0,0.0,0.0,0.0,0.0,0.0,0.0,0.0,0.0,0.0,0.0,0.0,0.0,0.0,0.0,0.0,0.0,0.0,0.0,0.0,0.0,0.0,0.0,0.0,0.0,0.0,0.0,0.0,0.0,0.0,0.0,0.0,0.0,0.0,0.0,0.0,0.0,0.0,0.0,0.0,0.0,0.0,0.0,0.0,0.0,0.0,0.0,0.0,0.0,0.0,0.0,0.0,0.0,0.0,0.0,0.0,0.0,0.0,0.0,0.0,0.0,0.0,0.0,0.0,0.0,0.0,0.0,0.0,0.0,0.0,0.0,10.5356,11.5162,12.0656,12.2654,12.3439,12.2797,12.3039,11.7332,10.3389,0.0,0.0,0.0,0.0,0.0,0.0,0.0,0.0,0.0,0.0,0.0,0.0,0.0,0.0,0.0,0.0,0.0,0.0,0.0,0.0,0.0,0.0,0.0,0.0,0.0,0.0,0.0,0.0,0.0,0.0,0.0,0.0,0.0,0.0,0.0,0.0,0.0,0.0,0.0,0.0,0.0,0.0,0.0,0.0,0.0,0.0,0.0,0.0,0.0,0.0,0.0,0.0,0.0,0.0,0.0,0.0,0.0,0.0,0.0,0.0,0.0,0.0,0.0,0.0,0.0,0.0,0.0,0.0,0.0,0.0,0.0,0.0,0.0,0.0,0.0,0.0,0.0,0.0,0.0,0.0,0.0,0.0,0.0,0.0,0.0,0.0,0.0,0.0,0.0,0.0,0.0,0.0,0.0,0.0,0.0,0.0,0.0,0.0,0.0,0.0,0.0,0.0,0.0,10.7385,11.7374,11.9372,12.087,12.1227,11.9871,12.0468,11.5235,10.19,9.5978,0.0,0.0,0.0,0.0,0.0,0.0,0.0,0.0,0.0,0.0,0.0,0.0,0.0,0.0,0.0,0.0,0.0,0.0,0.0,0.0,0.0,0.0,0.0,0.0,0.0,0.0,0.0,0.0,0.0,0.0,0.0,0.0,0.0,0.0,0.0,0.0,0.0,0.0,0.0,0.0,0.0,0.0,0.0,0.0,0.0,0.0,0.0,0.0,0.0,0.0,0.0,0.0,0.0,0.0,0.0,0.0,0.0,0.0,0.0,0.0,0.0,0.0,0.0,0.0,0.0,0.0,0.0,0.0,0.0,0.0,0.0,0.0,0.0,0.0,0.0,0.0,0.0,0.0,0.0,0.0,0.0,0.0,0.0,0.0,0.0,0.0,0.0,0.0,0.0,0.0,0.0,0.0,0.0,0.0,0.0,0.0,0.0,0.0,0.0,0.0,0.0,0.0,10.3995,11.0952,11.7303,11.8302,11.8872,11.9657,11.9532,11.4081,10.1829,9.5978,0.0,0.0,0.0,0.0,0.0,0.0,0.0,0.0,0.0,0.0,0.0,0.0,0.0,0.0,0.0,0.0,0.0,0.0,0.0,0.0,0.0,0.0,0.0,0.0,0.0,0.0,0.0,0.0,0.0,0.0,0.0,0.0,0.0,0.0,0.0,0.0,0.0,0.0,0.0,0.0,0.0,0.0,0.0,0.0,0.0,0.0,0.0,0.0,0.0,0.0,0.0,0.0,0.0,0.0,0.0,0.0,0.0,0.0,0.0,0.0,0.0,0.0,0.0,0.0,0.0,0.0,0.0,0.0,0.0,0.0,0.0,0.0,0.0,0.0,0.0,0.0,0.0,0.0,0.0,0.0,0.0,0.0,0.0,0.0,0.0,0.0,0.0,0.0,0.0,0.0,0.0,0.0,0.0,0.0,0.0,0.0,0.0,0.0,0.0,0.0,0.0,0.0,9.4367,10.2818,11.5091,11.7017,11.7631,11.8174,11.7915,11.2807,10.1384,9.4813,0.0,0.0,0.0,0.0,0.0,0.0,0.0,0.0,0.0,0.0,0.0,0.0,0.0,0.0,0.0,0.0,0.0,0.0,0.0,0.0,0.0,0.0,0.0,0.0,0.0,0.0,0.0,0.0,0.0,0.0,0.0,0.0,0.0,0.0,0.0,0.0,0.0,0.0,0.0,0.0,0.0,0.0,0.0,0.0,0.0,0.0,0.0,0.0,0.0,0.0,0.0,0.0,0.0,0.0,0.0,0.0,0.0,0.0,0.0,0.0,0.0,0.0,0.0,0.0,0.0,0.0,0.0,0.0,0.0,0.0,0.0,0.0,0.0,0.0,0.0,0.0,0.0,0.0,0.0,0.0,0.0,0.0,0.0,0.0,0.0,0.0,0.0,0.0,0.0,0.0,0.0,0.0,0.0,0.0,0.0,0.0,0.0,0.0,0.0,0.0,0.0,0.0,0.0,9.5826,11.1309,11.5344,11.681,11.6671,11.6327,11.1463,10.043,0.0,0.0,0.0,0.0,0.0,0.0,0.0,0.0,0.0,0.0,0.0,0.0,0.0,0.0,0.0,0.0,0.0,0.0,0.0,0.0,0.0,0.0,0.0,0.0,0.0,0.0,0.0,0.0,0.0,0.0,0.0,0.0,0.0,0.0,0.0,0.0,0.0,0.0,0.0,0.0,0.0,0.0,0.0,0.0,0.0,0.0,0.0,0.0,0.0,0.0,0.0,0.0,0.0,0.0,0.0,0.0,0.0,0.0,0.0,0.0,0.0,0.0,0.0,0.0,0.0,0.0,0.0,0.0,0.0,0.0,0.0,0.0,0.0,0.0,0.0,0.0,0.0,0.0,0.0,0.0,0.0,0.0,0.0,0.0,0.0,0.0,0.0,0.0,0.0,0.0,0.0,0.0,0.0,0.0,0.0,0.0,0.0,0.0,0.0,0.0,0.0,0.0,0.0,0.0,9.5754,10.2533,11.0091,11.5445,11.7439,11.5765,10.9816,9.8675,0.0,0.0,0.0,0.0,0.0,0.0,0.0,0.0,0.0,0.0,0.0,0.0,0.0,0.0]}],[{"header":{"parameterUnit":"kt","parameterCategory":2,"dx":1,"dy":1,"la1":29.285339999999998,"la2":30.599998999999997,"lo1":-89.70041500000002,"lo2":-87.6738589999976,"nx":112,"ny":82,"refTime":"2022-10-17T12:00:00:Z","depth":0,"parameterNumber":2,"parameterNumberName":"V-component_of_WINDS"},"data":[0.0,0.0,-0.0878,-0.5025,-0.957,-1.2857,-1.2714,-1.343,-1.4853,-1.8058,-1.8279,-1.7747,-1.7853,-1.7207,-1.6627,-1.6548,-1.5941,-1.5203,0.0,-1.4148,0.0,0.0,0.0,0.0,0.0,0.0,0.0,-2.0623,-2.1266,0.0,-2.3298,-2.5242,-2.5746,-2.4854,-2.4986,-2.5092,-2.5197,-2.5197,-2.5197,-2.5197,-2.5197,-2.5197,-2.5197,-2.5078,-2.5039,-2.5026,-2.492,-2.4881,-2.4868,-2.467,-2.4591,-2.4564,-2.438,-2.4301,-2.4353,-2.4736,-2.4881,-2.5175,-2.7894,-3.2415,-3.7228,-4.0245,-4.4752,-4.8979,-4.8979,-4.8979,-4.8979,-4.8979,-4.872,-4.8434,-4.8434,-4.8174,-4.7889,-4.7889,-4.7889,-4.7889,-4.7889,-4.7889,-4.7889,-4.7889,-4.7889,-4.7889,-4.7889,-4.7889,-4.7889,-4.7889,-4.7889,-4.7889,-4.7889,-4.7889,-4.7889,-4.7889,-4.7889,-4.7811,-4.7914,-4.7914,-4.7884,-4.7732,-4.7043,-4.6544,-4.6567,-4.9918,-5.5804,-6.4717,-6.486,-6.5022,-6.4822,-6.4822,-6.4844,-6.4959,-6.4959,-6.4845,-0.3305,-0.4753,-0.7519,-1.185,-1.5995,-1.8568,-1.6162,-1.6434,-1.7241,-1.7262,-1.7214,-1.7194,-1.66,-1.6482,-1.6403,-1.6126,-1.5915,-1.5572,0.0,0.0,0.0,0.0,0.0,0.0,0.0,0.0,-2.3764,-2.1411,-2.2288,-2.31,-2.3918,-2.5571,-2.6334,-2.5316,-2.5329,-2.5382,-2.5487,-2.5487,-2.5487,-2.5487,-2.5487,-2.5487,-2.5487,-2.5382,-2.5329,-2.5329,-2.5237,-2.5197,-2.5184,-2.4986,-2.4894,-2.4881,-2.4683,-2.4604,-2.4948,-2.8394,-2.9472,-3.009,-3.2829,-3.616,-3.9829,-4.2872,-4.652,-4.9603,-4.9603,-4.9603,-4.9603,-4.9603,-4.9317,-4.9031,-4.9031,-4.8616,-4.8174,-4.8174,-4.8045,-4.7889,-4.7889,-4.7889,-4.7889,-4.7889,-4.7889,-4.7889,-4.7889,-4.7889,-4.7889,-4.7889,-4.7889,-4.7889,-4.7889,-4.7889,-4.7889,-4.7889,-4.7889,-4.7889,-4.7889,-4.7889,-4.7733,-4.7705,-4.7679,-4.785,-4.7804,-4.6535,-4.9635,-5.7827,-6.3677,-6.6736,-6.6502,-6.547,-6.4872,-6.5054,-6.4995,-6.4995,-1.0397,-1.4417,-1.9098,-1.9432,-1.8351,-1.7038,-1.5796,-1.6297,-1.6732,-1.6205,-1.6745,-1.7154,-1.6587,-1.6482,-1.6389,-1.6126,-1.6126,0.0,0.0,0.0,0.0,0.0,0.0,0.0,0.0,-2.5036,-2.3715,-2.2319,-2.5065,-2.5922,-2.4521,-2.8505,-2.9316,-2.5923,-2.5619,-2.5764,-2.6041,-2.6054,-2.6067,-2.6067,-2.6067,-2.6067,-2.6054,-2.5751,-2.5619,-2.5606,-2.5342,-2.5224,-2.5536,-2.5522,-2.5509,-2.582,-2.5807,-2.582,-2.6754,-3.4669,-3.7723,-3.8027,-3.8027,-4.0477,-4.3821,-4.3821,-4.6569,-4.9655,-4.9655,-4.9655,-4.9655,-4.9655,-4.9629,-4.9629,-4.9629,-4.9213,-4.8772,-4.8772,-4.8356,-4.7941,-4.7941,-4.7941,-4.7941,-4.7941,-4.7941,-4.7915,-4.7915,-4.7941,-4.7941,-4.7915,-4.7915,-4.7915,-4.7889,-4.7889,-4.7889,-4.7889,-4.7889,-4.7889,-4.7889,-4.7889,-4.7889,-4.7889,-4.7889,-4.7967,-4.7753,-4.7759,-4.6819,-4.4697,-6.0809,-6.9435,-7.0033,-6.663,-6.5076,-6.4984,-6.5076,-6.5039,-1.6318,-1.7425,-1.9343,-1.8484,-1.8141,-1.78,-1.6534,-1.6112,-1.606,-1.6323,-1.6231,0.0,0.0,0.0,-1.6231,-1.635,0.0,-1.7365,-1.6561,-1.7734,0.0,0.0,0.0,-2.7087,-2.8357,-2.8069,-2.6806,-2.4521,-2.4271,-2.4368,-2.5144,-2.6323,-2.6872,-2.5922,-2.5922,-2.5962,-2.6054,-2.6265,-2.6371,-2.6371,-2.6371,-2.6371,-2.6357,-2.6067,-2.5922,-2.5922,-2.5843,-2.7703,-3.05,-3.025,-3.2014,-3.476,-3.4453,-3.4706,-3.5229,-3.7717,-3.8342,-3.8342,-3.8342,-4.1144,-4.5186,-4.8304,-4.9883,-5.0823,-5.0823,-5.0823,-5.0823,-5.0823,-5.0538,-5.0226,-5.0226,-4.9785,-4.9369,-4.9369,-4.9239,-4.9135,-4.9135,-4.8815,-4.8789,-4.8789,-4.8135,-4.7853,-4.7853,-4.9195,-5.0338,-5.0257,-4.8855,-4.7725,-4.7941,-4.7889,-4.7889,-4.7889,-4.7889,-4.7889,-4.7889,-4.7889,-4.7889,-4.7889,-4.7889,-4.7837,-4.7681,-4.7753,-4.7453,-4.7041,-5.1586,-5.9316,-6.9918,-6.8939,-6.8663,-6.8521,-6.8663,-6.8624,-1.8528,-1.8701,-1.9102,-1.7721,-1.7932,-1.8024,-1.6482,-1.606,-1.6047,-1.6271,0.0,0.0,0.0,0.0,0.0,0.0,-1.7866,-1.8565,-1.7919,-1.9396,-2.0741,-2.1321,-2.7241,-3.1724,-3.212,-3.2011,-2.9857,-2.5874,-2.4129,-2.4024,-2.5527,-2.5725,-2.5936,-2.6226,-2.6239,-2.6292,-2.641,-2.6582,-2.6661,-2.6661,-2.6661,-2.6661,-2.6661,-2.6489,-2.6344,-2.6239,-2.6239,-2.8394,-3.2343,-3.2146,-3.4565,-3.8906,-4.2037,-4.3532,-4.4046,-4.4046,-4.4046,-4.4046,-4.4046,-4.5626,-4.8131,-5.0342,-5.1291,-5.1291,-5.1291,-5.1291,-5.1291,-5.1291,-5.1057,-5.0797,-5.0797,-5.0382,-4.994,-4.994,-4.9759,-4.9603,-4.9603,-4.9279,-4.9254,-4.9577,-4.8996,-4.8841,-4.9099,-5.052,-5.1193,-5.1194,-4.943,-4.7894,-4.7699,-4.7911,-4.7834,-4.7915,-4.7889,-4.7889,-4.7889,-4.7889,-4.7889,-4.7889,-4.7889,-4.7889,-4.7889,-4.7888,-4.7858,-4.7771,-5.3917,-6.1493,-6.9856,-7.0044,-7.0071,-6.9947,-7.0071,-6.9918,-1.8196,-1.8156,-1.8459,-1.7233,-1.7668,-1.7958,-1.6337,0.0,-1.6693,-1.6706,0.0,-1.6772,-1.7115,0.0,0.0,-1.7563,-1.896,-1.9897,-1.9541,-2.0886,-2.2112,-2.2626,-3.1064,-3.6331,-3.52,-3.5281,-3.2562,-2.6185,-2.4749,-2.463,-2.5659,-2.5988,-2.6265,-2.6529,-2.6542,-2.6661,-2.6898,-2.6938,-2.6951,-2.6951,-2.6951,-2.6951,-2.6951,-2.6924,-2.6766,-2.6542,-2.6542,-2.8608,-3.2425,-3.2728,-3.5572,-4.0269,-4.7633,-5.1164,-5.1499,-5.1499,-5.1499,-5.1499,-5.1499,-5.1447,-5.1395,-5.1395,-5.1343,-5.1291,-5.1291,-5.1291,-5.1291,-5.1291,-5.1291,-5.1291,-5.1291,-5.0927,-5.0564,-5.0564,-5.0148,-4.9785,-4.9785,-4.9785,-4.9785,-5.0135,-5.0083,-5.0213,-5.1143,-5.1455,-5.1434,-5.1381,-4.9681,-4.8158,-4.8238,-4.7868,-4.769,-4.7808,-4.7731,-4.7679,-4.7679,-4.7679,-4.7941,-4.7889,-4.7941,-4.7941,-4.7889,-4.7889,-4.7863,-4.7785,-6.0719,-6.8202,-6.9906,-6.9889,-7.0009,-7.0009,-7.0009,-6.9968,-1.6785,-1.6534,-1.6706,-1.689,-1.6759,-1.6838,0.0,0.0,0.0,-2.0239,-2.0437,-2.0516,-2.1268,-2.1255,-2.1215,-2.1453,-2.2375,-2.2784,-2.2019,-2.4169,-2.5856,-2.5975,-3.0833,-3.2643,-2.8904,-3.1451,-3.1276,-2.627,-2.5975,-2.6094,-2.6305,-2.6582,-2.6766,-2.6819,-2.6819,-2.6845,-2.6898,-2.7149,-2.7267,-2.7267,-2.7267,-2.7267,-2.7254,-2.7017,-2.6872,-2.6819,-2.6819,-2.8924,-3.3126,-3.6308,-4.0259,-4.3801,-4.6212,-4.9425,-5.2667,-5.2667,-5.2667,-5.2667,-5.2667,-5.2356,-5.1966,-5.1966,-5.168,-5.1291,-5.1291,-5.1291,-5.1291,-5.1291,-5.1291,-5.1291,-5.1291,-5.1213,-5.1135,-5.1135,-5.1057,-5.0979,-5.0979,-5.0979,-5.0979,-5.0979,-5.026,-5.0106,-5.1031,-5.1389,-5.118,-5.1366,-5.0959,-5.0749,-5.052,-4.9073,-4.7735,-4.793,-4.7868,-4.7904,-4.7904,-4.7904,-4.775,-4.7915,-4.7699,-4.7725,-4.7915,-4.7889,-4.7681,-4.7805,-5.0537,-5.7952,-6.9985,-6.9931,-7.0009,-7.0009,-7.0009,-6.9933,-1.6187,-1.6284,-1.6508,-1.6508,0.0,0.0,0.0,-1.7695,-1.838,-2.0424,-2.0727,-2.1031,-2.2349,-2.2573,-2.2626,-2.2771,-2.3773,-2.4643,-2.4933,-2.6094,-2.6898,-2.6898,-3.0521,-3.2488,-3.019,-3.2,-3.1142,-2.6684,-2.6555,-2.67,-2.67,-2.6832,-2.6977,-2.7122,-2.7122,-2.7201,-2.7346,-2.7505,-2.7571,-2.7571,-2.7571,-2.7571,-2.7571,-2.7425,-2.7267,-2.7122,-2.7122,-2.9267,-3.3198,-3.512,-3.7264,-3.9384,-4.1758,-4.4209,-4.6143,-4.6143,-4.6143,-4.6465,-4.8758,-4.9571,-4.9669,-5.1933,-5.2382,-5.2148,-5.2148,-5.2148,-5.2096,-5.181,-5.1525,-5.1291,-5.1291,-5.1291,-5.1291,-5.1291,-5.1291,-5.1291,-5.1291,-5.1291,-5.1291,-5.1291,-5.0725,-5.0622,-5.1239,-5.1291,-5.1213,-5.1258,-5.1232,-5.1353,-5.1455,-5.0344,-4.9563,-4.9629,-4.9665,-4.9161,-4.7854,-4.7829,-4.8392,-4.9435,-4.8366,-4.7919,-4.7699,-4.7673,-4.7731,-4.7784,-4.7771,-5.5166,-7.0048,-6.9845,-6.9856,-7.0009,-7.0009,-7.0009,-1.5829,-1.6323,-1.66,-1.631,-1.6679,0.0,-1.7523,-1.7919,-1.8815,-2.0899,-2.1387,-2.1874,-2.3338,-2.3786,-2.3931,-2.3931,-2.4881,-2.6041,-2.728,-2.7267,-2.7109,-2.7096,-3.0078,-3.2062,-3.2047,-3.1969,-3.0551,-2.7111,-2.6845,-2.6591,-2.699,-2.7043,-2.7188,-2.7425,-2.7439,-2.7557,-2.7795,-2.7795,-2.7795,-2.7795,-2.7795,-2.7795,-2.7795,-2.7795,-2.7663,-2.7439,-2.7439,-2.9275,-3.2269,-3.2915,-3.3278,-3.4006,-3.7273,-3.8898,-3.9881,-3.9881,-3.9881,-4.0209,-4.4166,-4.5075,-4.5979,-5.0554,-5.1783,-5.2025,-5.2687,-5.3005,-5.2901,-5.2433,-5.1888,-5.1447,-5.1447,-5.1369,-5.1291,-5.1291,-5.1291,-5.1291,-5.1291,-5.1291,-5.1291,-5.1291,-5.1291,-5.1291,-5.1291,-5.1291,-5.1291,-5.1291,-5.1291,-5.1467,-5.1353,-5.1301,-5.1445,-5.1349,-5.1216,-5.046,-4.8735,-4.8412,-4.9383,-5.1274,-4.9681,-4.8506,-4.8582,-4.8135,-4.7879,-4.7756,-4.7784,-5.3572,-6.574,-6.5593,-6.6489,-6.7853,-6.9404,-7.0009,-1.5444,-1.5717,-1.5941,-1.6653,-1.6521,0.0,-2.0701,-2.136,-2.2151,-2.5461,-2.6344,-2.6674,-2.7135,-2.7241,-2.7267,-2.7267,-2.7175,-2.728,-2.7768,-2.7861,-2.7503,-2.7795,-2.8125,-2.8442,-2.8388,-2.8131,-2.7969,-2.728,-2.7043,-2.7017,-2.7294,-2.7557,-2.7716,-2.7742,-2.7755,-2.7768,-2.7795,-2.7795,-2.7795,-2.7795,-2.7795,-2.7795,-2.7795,-2.7795,-2.7781,-2.7755,-2.7755,-2.7912,-2.8306,-3.1946,-3.3782,-3.4414,-3.5074,-3.7419,-4.1113,-4.1113,-4.1113,-4.1113,-4.1448,-4.1522,-4.1862,-4.6148,-4.7501,-4.7796,-5.1707,-5.3005,-5.2979,-5.2927,-5.2485,-5.2044,-5.2044,-5.168,-5.1291,-5.1291,-5.1291,-5.1291,-5.1291,-5.1291,-5.1291,-5.1291,-5.1291,-5.1291,-5.1291,-5.1291,-5.1291,-5.1291,-5.1291,-5.1265,-5.1213,-5.1213,-5.1187,-5.1441,-5.1327,-5.1366,-5.1038,-5.1012,-5.1155,-5.1327,-5.1102,-5.0801,-5.087,-4.9005,-4.7741,-4.769,-4.7756,-4.8503,-5.0393,-5.0342,-5.3789,-6.0248,-6.6908,-7.0009,-1.5506,-1.5756,-1.602,-1.6548,0.0,0.0,-2.0582,-2.1558,-2.2758,-2.5566,-2.6252,-2.6634,-2.761,-2.7795,-2.7795,-2.7795,-2.7729,-2.6318,-2.2924,-2.0873,-2.1595,-2.7197,-2.79,-2.7874,-2.7808,-2.7689,-2.761,-2.761,-2.7491,-2.7478,-2.761,-2.7729,-2.7795,-2.7795,-2.7795,-2.7795,-2.7795,-2.7795,-2.7795,-2.7795,-2.7795,-2.7795,-2.7795,-2.7795,-2.7795,-2.7795,-2.7795,-2.7729,-2.761,-2.9629,-3.0368,-3.0484,-3.0484,-3.1851,-3.3525,-3.3525,-3.3525,-3.3865,-3.6547,-3.71,-3.7648,-4.2329,-4.3533,-4.4047,-4.8688,-5.0018,-5.0621,-5.2933,-5.3316,-5.3057,-5.2719,-5.2226,-5.1784,-5.1784,-5.1525,-5.1291,-5.1291,-5.1291,-5.1291,-5.1291,-5.1291,-5.1291,-5.1291,-5.1291,-5.1291,-5.1291,-5.1291,-5.1291,-5.1291,-5.1291,-5.1291,-5.1291,-5.1415,-5.1285,-5.1285,-5.1285,-5.1206,-5.1301,-5.118,-5.138,-5.1455,-5.0512,-4.9254,-4.7905,-4.7715,-4.8122,-4.8876,-4.9141,-5.1964,-5.766,-6.4566,-6.9207,-1.5598,0.0,0.0,0.0,0.0,0.0,-2.1532,-2.2494,-2.3602,-2.5764,-2.6212,-2.6542,-2.7597,-2.7795,-2.7795,-2.7795,-2.7847,-2.6123,-2.1533,-1.7014,-1.6676,-2.4361,-2.6826,-2.7874,-2.7808,-2.7795,-2.7795,-2.7795,-2.7795,-2.7795,-2.7795,-2.7795,-2.7795,-2.7795,-2.7795,-2.7795,-2.7795,-2.7795,-2.7795,-2.7795,-2.7795,-2.7795,-2.7795,-2.7795,-2.7795,-2.7795,-2.7795,-2.7795,-2.7795,-2.7795,-2.7795,-2.7795,-2.7795,-2.7795,-2.7795,-2.7795,-2.7795,-2.8125,-3.1494,-3.2844,-3.3525,-3.7882,-3.9232,-4.0242,-4.462,-4.5976,-4.6908,-5.1192,-5.1795,-5.172,-5.3048,-5.2797,-5.233,-5.1835,-5.15,-5.1473,-5.1317,-5.1216,-5.1319,-5.1343,-5.1421,-5.1447,-5.1317,-5.1291,-5.1291,-5.1291,-5.1291,-5.1291,-5.1291,-5.1291,-5.1291,-5.1291,-5.1291,-5.1291,-5.1291,-5.1291,-5.1291,-5.1291,-5.1291,-5.1441,-5.138,-5.1222,-5.0579,-4.8812,-4.8597,-4.8953,-4.9645,-4.9938,-5.2179,-5.6084,-6.2208,-6.7594,0.0,0.0,0.0,-1.9712,-2.0319,-2.1321,-2.5039,-2.5474,-2.5606,-2.7373,-2.7729,-2.7742,-2.7795,-2.7795,-2.7795,-2.7795,-2.7847,-2.79,-2.7542,-1.947,-1.493,-1.8379,-2.4004,-2.7874,-2.7808,-2.7795,-2.7795,-2.7795,-2.7795,-2.7795,-2.7795,-2.7795,-2.7795,-2.7795,-2.7795,-2.7795,-2.7795,-2.7795,-2.7795,-2.7795,-2.7795,-2.7795,-2.7795,-2.7795,-2.7795,-2.7795,-2.7795,-2.7795,-2.7795,-2.7795,-2.7795,-2.7795,-2.7795,-2.7795,-2.7795,-2.7795,-2.7795,-2.7795,-2.7795,-2.8138,-2.8812,-3.3184,-3.4852,-3.5531,-3.9905,-4.1251,-4.2257,-4.6953,-4.7109,-4.7109,-5.2345,-5.3394,-5.2823,-5.1573,-5.142,-5.1266,-5.1395,-5.1445,-5.12,-5.1164,-5.137,-5.124,-5.1369,-5.1291,-5.1291,-5.1291,-5.1291,-5.1291,-5.1291,-5.1291,-5.1291,-5.1291,-5.1291,-5.1291,-5.1291,-5.1291,-5.1291,-5.1291,-5.1291,-5.1291,-5.1265,-5.1406,-5.1143,-5.1117,-5.0539,-4.99,-4.9577,-4.9577,-5.1597,-5.5384,-5.9317,-6.5319,-1.7141,-1.7932,-1.8881,-2.1017,-2.2283,-2.347,-2.5329,-2.6212,-2.6845,-2.7636,-2.7795,-2.7795,-2.7795,-2.7795,-2.7795,-2.7795,-2.7847,-2.79,-2.79,-2.5111,-2.3358,-2.4361,-2.6481,-2.7874,-2.7808,-2.7795,-2.7795,-2.7795,-2.7795,-2.7795,-2.7795,-2.7795,-2.7795,-2.7795,-2.7795,-2.7795,-2.7795,-2.7795,-2.7795,-2.7795,-2.7795,-2.7795,-2.7795,-2.7795,-2.7795,-2.7795,-2.7795,-2.7795,-2.7795,-2.7795,-2.7795,-2.7795,-2.7795,-2.7795,-2.7795,-2.7795,-2.7795,-2.7795,-2.7795,-2.7795,-2.8138,-2.9484,-3.0156,-3.0826,-3.5531,-3.6886,-3.7189,-3.9753,-4.2968,-4.5817,-4.5539,-4.9931,-5.3978,-5.2754,-5.1898,-5.1464,-5.1291,-5.1478,-5.1867,-5.3375,-5.2343,-5.1453,-5.1317,-5.1163,-5.137,-5.1343,-5.1291,-5.1291,-5.1291,-5.1291,-5.1291,-5.1291,-5.1291,-5.1291,-5.1291,-5.1291,-5.1291,-5.1291,-5.1291,-5.1291,-5.1291,-5.1441,-5.1363,-5.1363,-5.046,-5.0356,-5.0719,-5.0719,-5.1301,-5.2787,-5.6575,-5.9806,-1.8038,-1.8974,-2.0002,-2.2455,-2.3931,-2.5052,-2.6146,-2.6977,-2.7571,-2.7755,-2.7795,-2.7795,-2.7795,-2.7795,-2.7795,-2.7795,-2.7834,-2.7861,-2.7861,-2.79,-2.7913,-2.7861,-2.7861,-2.7847,-2.7795,-2.7795,-2.7795,-2.7795,-2.7795,-2.7795,-2.7795,-2.7795,-2.7795,-2.7795,-2.7795,-2.7795,-2.7795,-2.7795,-2.7795,-2.7795,-2.7795,-2.7795,-2.7795,-2.7795,-2.7795,-2.7795,-2.7795,-2.7795,-2.7795,-2.7795,-2.7795,-2.7795,-2.7795,-2.7795,-2.7795,-2.7795,-2.7795,-2.7795,-2.7795,-2.7795,-2.7795,-2.7795,-2.7795,-2.8469,-3.1168,-3.2177,-3.2828,-3.5412,-3.7544,-3.895,-3.7026,-4.5534,-5.4627,-5.4003,-5.3113,-5.0949,-4.4392,-4.3,-4.3464,-4.4707,-4.9237,-5.2637,-5.2506,-5.1856,-5.1209,-5.1319,-5.1267,-5.119,-5.1317,-5.1291,-5.1291,-5.1291,-5.1291,-5.1291,-5.1291,-5.1291,-5.1291,-5.1291,-5.1291,-5.1291,-5.1291,-5.1291,-5.1291,-5.1291,-5.0927,-5.0901,-5.1291,-5.1291,-5.1291,-5.1291,-5.5458,-5.7244,-1.8657,-1.9686,-2.0925,-2.4076,-2.5263,-2.6041,-2.7478,-2.7795,-2.7795,-2.7795,-2.7795,-2.7795,-2.7795,-2.7795,-2.7795,-2.7795,-2.7795,-2.7795,-2.7795,-2.7795,-2.7795,-2.7795,-2.7795,-2.7795,-2.7795,-2.7795,-2.7795,-2.7795,-2.7795,-2.7795,-2.7795,-2.7795,-2.7795,-2.7795,-2.7795,-2.7795,-2.7795,-2.7795,-2.7795,-2.7795,-2.7795,-2.7795,-2.7795,-2.7795,-2.7795,-2.7795,-2.7795,-2.7795,-2.7795,-2.7795,-2.7795,-2.7795,-2.7795,-2.7795,-2.7795,-2.7795,-2.7795,-2.7795,-2.7795,-2.7795,-2.7795,-2.7795,-2.7795,-2.7795,-2.7795,-2.7795,-2.8812,-3.3184,-3.1168,-2.7663,-2.7726,-4.1408,-5.4728,-5.4953,-5.4693,-4.9955,-3.1844,-2.7672,-2.7712,-2.7841,-4.1578,-5.3703,-5.4586,-5.2997,-5.1428,-5.1548,-5.1471,-5.1291,-5.1447,-5.1343,-5.1343,-5.1343,-5.1317,-5.1291,-5.1291,-5.1291,-5.1291,-5.1291,-5.1291,-5.1291,-5.1291,-5.1291,-5.1291,-5.1291,-5.1291,-5.1291,-5.1291,-5.1291,-5.1291,-5.1291,-5.5154,-5.6942,-2.0187,-2.1782,-2.318,-2.5725,-2.6463,-2.6793,-2.761,-2.7795,-2.7795,-2.7795,-2.7795,-2.7795,-2.7795,-2.7795,-2.7795,-2.7795,-2.7795,-2.7795,-2.7795,-2.7795,-2.7795,-2.7795,-2.7795,-2.7795,-2.7795,-2.7795,-2.7795,-2.7795,-2.7795,-2.7795,-2.7795,-2.7795,-2.7795,-2.7795,-2.7795,-2.7795,-2.7795,-2.7795,-2.7795,-2.7795,-2.7795,-2.7795,-2.7795,-2.7795,-2.7795,-2.7795,-2.7795,-2.7795,-2.7795,-2.7795,-2.7795,-2.7795,-2.7795,-2.7795,-2.7795,-2.7795,-2.7795,-2.7795,-2.7795,-2.7795,-2.7795,-2.7795,-2.7795,-2.7795,-2.7795,-2.7795,-2.8138,-2.9142,-2.8812,-2.7716,-2.7738,-4.1187,-5.485,-5.4703,-5.4909,-4.972,-3.155,-2.7698,-2.7885,-2.7915,-3.1565,-3.8984,-5.2622,-5.4315,-5.3819,-5.393,-5.2429,-5.1301,-5.1174,-5.1471,-5.124,-5.124,-5.1216,-5.1291,-5.1291,-5.1291,-5.1291,-5.1291,-5.1291,-5.1291,-5.1291,-5.1291,-5.1291,-5.1291,-5.1291,-5.1291,-5.1291,-5.1291,-5.1291,-5.1291,-5.2186,-5.2771,-1.9804,-2.1874,-2.401,-2.6331,-2.6898,-2.7056,-2.7663,-2.7795,-2.7795,-2.7795,-2.7795,-2.7795,-2.7795,-2.7795,-2.7795,-2.7795,-2.7795,-2.7795,-2.7795,-2.7795,-2.7795,-2.7795,-2.7795,-2.7795,-2.7795,-2.7795,-2.7795,-2.7795,-2.7913,-2.7979,-2.7979,-2.7979,-2.7979,-2.7979,-2.7861,-2.7795,-2.7795,-2.7795,-2.7795,-2.7795,-2.7795,-2.7795,-2.7795,-2.7795,-2.7795,-2.7795,-2.7795,-2.7795,-2.7795,-2.7795,-2.7795,-2.7795,-2.7795,-2.7795,-2.7795,-2.7795,-2.7795,-2.7795,-2.7795,-2.7795,-2.7795,-2.7795,-2.7795,-2.7795,-2.7795,-2.7795,-2.7795,-2.7795,-2.7795,-2.7742,-2.7858,-3.5242,-4.3079,-4.2775,-4.2816,-4.0058,-2.9869,-2.7636,-2.7755,-2.7636,-2.7711,-3.3668,-5.1597,-5.4667,-5.477,-5.4885,-5.3714,-5.2919,-5.3005,-5.2719,-5.2511,-5.1438,-5.1183,-5.1343,-5.1343,-5.1448,-5.1319,-5.1319,-5.1421,-5.1291,-5.1291,-5.1291,-5.1291,-5.1291,-5.155,-5.1784,-5.2044,-5.1784,-5.1784,-5.2044,-5.1784,-5.168,-1.8921,-2.1189,-2.3931,-2.6212,-2.6845,-2.7056,-2.761,-2.7768,-2.7795,-2.7795,-2.7795,-2.7795,-2.7795,-2.7795,-2.7795,-2.7795,-2.7795,-2.7795,-2.7795,-2.7795,-2.7795,-2.7795,-2.7795,-2.7795,-2.7795,-2.7795,-2.7808,-2.7847,-2.8072,-2.823,-2.8269,-2.823,-2.8203,-2.8203,-2.794,-2.7795,-2.7795,-2.7795,-2.7795,-2.7795,-2.7795,-2.7795,-2.7795,-2.7795,-2.7795,-2.7795,-2.7795,-2.7795,-2.7795,-2.7795,-2.7795,-2.7795,-2.7795,-2.7795,-2.7795,-2.7795,-2.7795,-2.7795,-2.7795,-2.7795,-2.7795,-2.7795,-2.7795,-2.7795,-2.7795,-2.7795,-2.7795,-2.7795,-2.7795,-2.7755,-2.7898,-2.7845,-2.7805,-2.7631,-2.7725,-2.7898,-2.7755,-2.7795,-2.7795,-2.7795,-2.7845,-3.2821,-4.8611,-5.3147,-5.4942,-5.477,-5.4691,-5.4856,-5.4752,-5.4938,-5.4168,-5.2025,-5.1949,-5.1898,-5.1898,-5.1489,-5.1548,-5.1548,-5.1448,-5.1525,-5.1525,-5.1525,-5.1525,-5.1525,-5.2018,-5.2485,-5.3005,-5.2485,-5.2511,-5.2979,-5.2485,-5.22,-2.0648,-2.2099,-2.3575,-2.5672,-2.6555,-2.699,-2.7346,-2.7623,-2.7795,-2.7795,-2.7795,-2.7795,-2.7795,-2.7795,-2.7795,-2.7795,-2.7795,-2.7795,-2.7795,-2.7795,-2.7795,-2.7795,-2.7795,-2.7795,-2.7795,-2.7795,-2.7887,-2.8124,-2.8177,-2.8309,-2.8559,-2.8335,-2.8203,-2.8203,-2.794,-2.7795,-2.7795,-2.7795,-2.7795,-2.7795,-2.7795,-2.7795,-2.7795,-2.7795,-2.7795,-2.7795,-2.7795,-2.7795,-2.7795,-2.7795,-2.7795,-2.7795,-2.7795,-2.7795,-2.7795,-2.7795,-2.7795,-2.7795,-2.7795,-2.7795,-2.7795,-2.7795,-2.7795,-2.7795,-2.7795,-2.7795,-2.7795,-2.7795,-2.7795,-2.7781,-2.7755,-2.7742,-2.7729,-2.7702,-2.7716,-2.7755,-2.7795,-2.7795,-2.7795,-2.7795,-2.7742,-2.8689,-3.2009,-4.4727,-5.4752,-5.4968,-5.489,-5.4864,-5.4785,-5.4717,-5.4776,-5.4402,-5.4353,-5.4089,-5.4089,-5.327,-5.2506,-5.2455,-5.2719,-5.2719,-5.2719,-5.2719,-5.2719,-5.2719,-5.2797,-5.2901,-5.3005,-5.2901,-5.2901,-5.3005,-5.2901,-5.2589,-2.0081,-2.1637,-2.3312,-2.4604,-2.5922,-2.6977,-2.728,-2.7584,-2.7755,-2.7597,-2.7689,-2.7795,-2.7795,-2.7795,-2.7795,-2.7795,-2.7795,-2.7795,-2.7795,-2.7795,-2.7795,-2.7795,-2.7795,-2.7795,-2.7795,-2.7927,-2.8072,-2.8203,-2.8493,-2.8731,-2.8876,-2.8744,-2.8599,-2.8441,-2.8164,-2.794,-2.7795,-2.7795,-2.7795,-2.7795,-2.7795,-2.7795,-2.7795,-2.7795,-2.7795,-2.7795,-2.7795,-2.7795,-2.7795,-2.7795,-2.7795,-2.7795,-2.7795,-2.7795,-2.7795,-2.7795,-2.7795,-2.7795,-2.7795,-2.7795,-2.7795,-2.7795,-2.7795,-2.7795,-2.7795,-2.7795,-2.7795,-2.7795,-2.7795,-2.7795,-2.7795,-2.7795,-2.7795,-2.7795,-2.7795,-2.7795,-2.7795,-2.7795,-2.7795,-2.7795,-2.7795,-2.7729,-2.7845,-3.5024,-4.3994,-5.3302,-5.47,-5.4953,-5.4719,-5.4812,-5.4681,-5.4681,-5.477,-5.4961,-5.4961,-5.3628,-5.3074,-5.3074,-5.3135,-5.3005,-5.3005,-5.3576,-5.3888,-5.3888,-5.3602,-5.3576,-5.3888,-5.3576,-5.3602,-5.3888,-5.3576,-5.329,-1.9554,-2.1202,-2.3101,-2.3879,-2.5224,-2.6489,-2.7043,-2.7491,-2.7729,-2.7491,-2.7531,-2.765,-2.7768,-2.7689,-2.765,-2.7781,-2.7795,-2.7795,-2.7795,-2.7795,-2.7795,-2.7795,-2.7795,-2.7821,-2.7874,-2.8085,-2.8256,-2.8388,-2.8836,-2.9126,-2.9192,-2.9126,-2.8995,-2.8757,-2.8454,-2.8203,-2.7979,-2.7979,-2.7979,-2.7979,-2.7913,-2.7887,-2.7887,-2.7953,-2.7979,-2.7979,-2.7913,-2.7847,-2.7795,-2.7795,-2.7795,-2.7795,-2.7795,-2.7795,-2.7795,-2.7795,-2.7795,-2.7795,-2.7795,-2.7795,-2.7795,-2.7795,-2.7795,-2.7795,-2.7795,-2.7795,-2.7795,-2.7795,-2.7795,-2.7795,-2.7795,-2.7795,-2.7795,-2.7795,-2.7795,-2.7795,-2.7795,-2.7795,-2.7795,-2.7795,-2.7795,-2.7742,-2.7912,-2.7845,-3.2609,-4.6842,-5.2174,-5.4855,-5.4771,-5.4693,-5.4693,-5.4693,-5.4693,-5.4693,-5.4693,-5.3926,-5.3642,-5.4018,-5.3602,-5.3368,-5.3368,-5.4225,-5.4693,-5.4693,-5.4251,-5.4251,-5.4693,-5.4251,-5.4251,-5.4693,-5.4225,-5.3966,-2.0793,-2.1835,-2.2956,-2.4327,-2.4604,-2.4894,-2.6265,-2.7201,-2.7795,-2.7768,-2.7346,-2.7149,-2.7702,-2.736,-2.7162,-2.7702,-2.7795,-2.7795,-2.7795,-2.7795,-2.7795,-2.7795,-2.7795,-2.79,-2.8151,-2.819,-2.8441,-2.8981,-2.9074,-2.9205,-2.9456,-2.9232,-2.9087,-2.906,-2.877,-2.8599,-2.8573,-2.8573,-2.8573,-2.8573,-2.8296,-2.8164,-2.8177,-2.8454,-2.8573,-2.8559,-2.8283,-2.8032,-2.7795,-2.7795,-2.7795,-2.7795,-2.7795,-2.7795,-2.7795,-2.7795,-2.7795,-2.7795,-2.7795,-2.7795,-2.7795,-2.7795,-2.7795,-2.7795,-2.7795,-2.7795,-2.7795,-2.7795,-2.7795,-2.7795,-2.7795,-2.7795,-2.7795,-2.7795,-2.7795,-2.7795,-2.7795,-2.7795,-2.7795,-2.7795,-2.7795,-2.7795,-2.7768,-2.7938,-2.8484,-2.9869,-4.4392,-5.4855,-5.4771,-5.4693,-5.4693,-5.4693,-5.4693,-5.4693,-5.4693,-5.4641,-5.4615,-5.4615,-5.4589,-5.4537,-5.4537,-5.4641,-5.4693,-5.4693,-5.4667,-5.4667,-5.4693,-5.4667,-5.4667,-5.4693,-5.4641,-5.4355,-1.8895,-2.0068,-2.1439,-2.2204,-2.3351,-2.4591,-2.5698,-2.5962,-2.6199,-2.7083,-2.7215,-2.7188,-2.7254,-2.736,-2.7399,-2.728,-2.7557,-2.7795,-2.7795,-2.7795,-2.7795,-2.7795,-2.7795,-2.79,-2.8177,-2.8375,-2.8652,-2.9074,-2.9258,-2.939,-2.9509,-2.9403,-2.9271,-2.9113,-2.8981,-2.8836,-2.8652,-2.848,-2.848,-2.8652,-2.8348,-2.8401,-2.8744,-2.8678,-2.8652,-2.8639,-2.852,-2.8414,-2.8296,-2.8124,-2.8151,-2.8283,-2.7927,-2.79,-2.8045,-2.8045,-2.8045,-2.8045,-2.8045,-2.8045,-2.8365,-2.7847,-2.7795,-2.7795,-2.7795,-2.7795,-2.7795,-2.7795,-2.7795,-2.7795,-2.7795,-2.7795,-2.7795,-2.7795,-2.7795,-2.7795,-2.7795,-2.7795,-2.7795,-2.7795,-2.7795,-2.7795,-2.7795,-2.7729,-2.7663,-2.7663,-3.3961,-4.2308,-5.3303,-5.4693,-5.4693,-5.4693,-5.4693,-5.4693,-5.4693,-5.4693,-5.4693,-5.4693,-5.4693,-5.4693,-5.4693,-5.4693,-5.4693,-5.4693,-5.4693,-5.4693,-5.4693,-5.4693,-5.4693,-5.4693,-5.4693,-5.4589,-1.7879,-1.8921,-2.0292,-2.0938,-2.2323,-2.3879,-2.5184,-2.5026,-2.5052,-2.6595,-2.6806,-2.6727,-2.6779,-2.6977,-2.7096,-2.6938,-2.7399,-2.7795,-2.7795,-2.7795,-2.7795,-2.7795,-2.7874,-2.8032,-2.8309,-2.8612,-2.8902,-2.9205,-2.9403,-2.9509,-2.9509,-2.9509,-2.943,-2.9232,-2.9219,-2.9126,-2.8915,-2.8691,-2.8691,-2.8902,-2.8612,-2.8731,-2.9219,-2.9008,-2.8902,-2.8902,-2.8823,-2.8784,-2.8757,-2.8467,-2.8467,-2.8612,-2.8203,-2.8164,-2.8335,-2.8335,-2.8335,-2.8335,-2.8348,-2.8699,-2.8672,-2.8472,-2.8352,-2.8272,-2.7913,-2.7861,-2.7795,-2.7795,-2.7795,-2.7795,-2.7795,-2.7795,-2.7795,-2.7795,-2.7795,-2.7795,-2.7795,-2.7795,-2.7795,-2.7795,-2.7795,-2.7795,-2.7795,-2.7795,-2.7768,-2.7702,-2.7738,-3.4321,-5.2417,-5.4771,-5.4693,-5.4693,-5.4693,-5.4693,-5.4693,-5.4693,-5.4693,-5.4693,-5.4693,-5.4693,-5.4693,-5.4693,-5.4693,-5.4693,-5.4693,-5.4693,-5.4693,-5.4693,-5.4693,-5.4693,-5.4693,-5.4693,-1.867,-1.9092,-1.9883,-2.1334,-2.1703,-2.2336,-2.467,-2.4736,-2.4802,-2.6542,-2.6001,-2.5474,-2.6344,-2.6015,-2.5909,-2.6766,-2.7399,-2.7795,-2.7795,-2.7795,-2.7795,-2.7795,-2.8032,-2.8322,-2.8612,-2.8915,-2.9205,-2.9482,-2.9509,-2.9509,-2.9509,-2.9509,-2.9509,-2.9509,-2.9509,-2.9509,-2.9509,-2.9496,-2.9496,-2.9496,-2.9219,-2.9232,-2.9509,-2.9509,-2.9509,-2.9482,-2.9219,-2.91,-2.9074,-2.877,-2.8652,-2.8652,-2.8639,-2.8639,-2.8652,-2.8652,-2.8652,-2.8652,-2.9006,-2.9019,-2.9019,-2.9374,-2.9537,-2.9291,-2.8203,-2.7659,-2.7795,-2.7795,-2.7795,-2.7795,-2.7795,-2.7795,-2.7795,-2.7795,-2.7795,-2.7795,-2.7795,-2.7795,-2.7795,-2.7795,-2.7795,-2.7795,-2.7795,-2.7795,-2.7716,-2.7845,-2.7631,-3.4387,-5.2458,-5.4953,-5.4693,-5.4693,-5.4693,-5.4693,-5.4693,-5.4693,-5.4693,-5.4693,-5.4693,-5.4693,-5.4693,-5.4693,-5.4693,-5.4693,-5.4693,-5.4693,-5.4693,-5.4693,-5.4693,-5.4693,-5.4693,-5.4693,-1.7787,-1.8499,-1.9435,-2.0305,-2.111,-2.2151,-2.3905,-2.4156,-2.4235,-2.4973,-2.4999,-2.5039,-2.5514,-2.6265,-2.6819,-2.6898,-2.7399,-2.7795,-2.7795,-2.7795,-2.7795,-2.7795,-2.8045,-2.8322,-2.8625,-2.8929,-2.9219,-2.9496,-2.9509,-2.9509,-2.9509,-2.9509,-2.9509,-2.9509,-2.9509,-2.9509,-2.9509,-2.9324,-2.9324,-2.9509,-2.943,-2.943,-2.9509,-2.9509,-2.9509,-2.9509,-2.9416,-2.9377,-2.9377,-2.9285,-2.9126,-2.8942,-2.8731,-2.877,-2.8955,-2.8955,-2.8955,-2.8955,-2.9327,-2.9327,-2.93,-2.9455,-2.9537,-2.9291,-2.8566,-2.8019,-2.7795,-2.7795,-2.7795,-2.7795,-2.7795,-2.7795,-2.7795,-2.7795,-2.7795,-2.7795,-2.7795,-2.7795,-2.7795,-2.7795,-2.7795,-2.7795,-2.7795,-2.7676,-2.7885,-2.7818,-3.8392,-4.8488,-5.3937,-5.4953,-5.4693,-5.4693,-5.4693,-5.4693,-5.4693,-5.4693,-5.4693,-5.4693,-5.4693,-5.4693,-5.4693,-5.4693,-5.4693,-5.4693,-5.4693,-5.4693,-5.4693,-5.4693,-5.4693,-5.4693,-5.4693,-5.4693,-1.7747,-1.8459,-1.929,-2.0108,-2.0754,-2.1598,-2.3061,-2.3312,-2.3378,-2.3879,-2.4129,-2.434,-2.4643,-2.579,-2.6674,-2.6595,-2.7175,-2.7663,-2.7781,-2.7795,-2.7834,-2.794,-2.8203,-2.8493,-2.8797,-2.9087,-2.9324,-2.9496,-2.9509,-2.9509,-2.9509,-2.9509,-2.9509,-2.9509,-2.9509,-2.9509,-2.9509,-2.9337,-2.9337,-2.9509,-2.9509,-2.9509,-2.9509,-2.9509,-2.9509,-2.9509,-2.9509,-2.9509,-2.9509,-2.9509,-2.9416,-2.9232,-2.9047,-2.9087,-2.9258,-2.9258,-2.9258,-2.9258,-2.962,-2.962,-2.9593,-2.9407,-2.9523,-2.9279,-2.8899,-2.8348,-2.8098,-2.7992,-2.7953,-2.7979,-2.8098,-2.8124,-2.8098,-2.7979,-2.8312,-2.8285,-2.7821,-2.7795,-2.7795,-2.7795,-2.7795,-2.7768,-2.7689,-2.7898,-3.0208,-3.7082,-4.7555,-5.4933,-5.4778,-5.4875,-5.4693,-5.4693,-5.4693,-5.4693,-5.4693,-5.4693,-5.4693,-5.4693,-5.4693,-5.4693,-5.4693,-5.4693,-5.4693,-5.4693,-5.4693,-5.4693,-5.4693,-5.4693,-5.4693,-5.4693,-5.4693,-5.4693,-1.8314,-1.8829,-1.9343,-2.049,-2.0648,-2.0872,-2.2244,-2.2323,-2.2323,-2.3101,-2.3272,-2.3378,-2.3681,-2.4683,-2.5619,-2.6067,-2.6766,-2.7386,-2.7742,-2.7781,-2.7874,-2.8151,-2.8454,-2.8757,-2.9047,-2.9337,-2.9509,-2.9509,-2.9509,-2.9509,-2.9509,-2.9509,-2.9509,-2.9509,-2.9509,-2.9509,-2.9509,-2.9509,-2.9509,-2.9509,-2.9509,-2.9509,-2.9509,-2.9509,-2.9509,-2.9509,-2.9874,-2.9874,-2.9509,-2.9874,-2.9874,-2.9509,-2.9509,-2.9509,-2.9509,-2.9509,-2.9509,-2.9509,-2.9509,-2.9509,-2.9509,-2.9509,-2.97,-2.9473,-2.8727,-2.8519,-2.8599,-2.8672,-2.8619,-2.8699,-2.8953,-2.9019,-2.8939,-2.8646,-2.8928,-2.9209,-2.8205,-2.7795,-2.7795,-2.7781,-2.7768,-2.7702,-2.7818,-2.8823,-3.5361,-5.2174,-5.4984,-5.4804,-5.4745,-5.4693,-5.4693,-5.4693,-5.4693,-5.4693,-5.4693,-5.4693,-5.4693,-5.4693,-5.4693,-5.4693,-5.4693,-5.4693,-5.4693,-5.4693,-5.4693,-5.4693,-5.4693,-5.4693,-5.4693,-5.4693,-5.4693,-5.4693,-1.7866,-1.838,-1.9,-1.9949,-2.0965,-2.1822,-2.2165,-2.2019,-2.1729,-2.1492,-2.1624,-2.1874,-2.2165,-2.3351,-2.4894,-2.674,-2.6661,-2.67,-2.7663,-2.7597,-2.7571,-2.7861,-2.8335,-2.8678,-2.8744,-2.9219,-2.9509,-2.9509,-2.9509,-2.9509,-2.9509,-2.9509,-2.9509,-2.9509,-2.9509,-2.9509,-2.9509,-2.9509,-2.9509,-2.9509,-2.9509,-2.9509,-2.9509,-2.9509,-2.9509,-2.9874,-3.3456,-3.3108,-2.9874,-3.3456,-3.2745,-2.9509,-2.9509,-2.9509,-2.9509,-2.9509,-2.9509,-2.9509,-2.9509,-2.9509,-2.9509,-2.9509,-2.9324,-2.91,-2.91,-2.8889,-2.8639,-2.8573,-2.8718,-2.8863,-2.8691,-2.8652,-2.8586,-2.8996,-2.8928,-2.8499,-2.7861,-2.7795,-2.7742,-2.7912,-2.7885,-2.7818,-2.7942,-3.9361,-5.003,-5.4295,-5.4726,-5.4823,-5.4719,-5.4693,-5.4693,-5.4693,-5.4693,-5.4693,-5.4693,-5.4693,-5.4693,-5.4693,-5.4693,-5.4693,-5.4693,-5.4693,-5.4693,-5.4693,-5.4693,-5.4693,-5.4693,-5.4693,-5.4693,-5.4693,-5.4693,-5.4693,-1.8051,-1.8815,-1.9554,-1.9897,-2.0767,-2.1505,-2.1373,-2.1215,-2.1017,-2.0701,-2.0661,-2.0938,-2.1756,-2.2336,-2.3364,-2.5421,-2.5804,-2.6212,-2.7241,-2.7597,-2.7808,-2.7966,-2.8507,-2.8863,-2.8863,-2.9258,-2.9509,-2.9509,-2.9509,-2.9509,-2.9509,-2.9509,-2.9509,-2.9509,-2.9509,-2.9509,-2.9509,-2.9509,-2.9509,-2.9509,-2.9509,-2.9509,-2.9509,-2.9509,-2.9509,-2.9874,-3.4528,-3.4181,-2.9874,-3.489,-3.3819,-2.9509,-2.9509,-2.9509,-2.9509,-2.9509,-2.9509,-2.9509,-2.9509,-2.9509,-2.9509,-2.9509,-2.9416,-2.9285,-2.9285,-2.9179,-2.9021,-2.8889,-2.906,-2.9258,-2.9087,-2.9047,-2.8981,-2.9046,-2.8612,-2.8141,-2.7724,-2.7633,-2.7874,-2.7872,-3.4513,-4.0134,-4.005,-4.8488,-5.4933,-5.4752,-5.4849,-5.4693,-5.4693,-5.4693,-5.4693,-5.4693,-5.4693,-5.4693,-5.4693,-5.4693,-5.4693,-5.4693,-5.4693,-5.4693,-5.4693,-5.4693,-5.4693,-5.4693,-5.4693,-5.4693,-5.4693,-5.4693,-5.4693,-5.4693,-5.4693,-5.4693,-1.8499,-1.9554,-2.0345,-2.0108,-2.0411,-2.0701,-2.045,-2.0358,-2.0319,-2.0266,-2.0108,-2.0358,-2.1584,-2.1558,-2.1822,-2.3259,-2.4564,-2.5738,-2.67,-2.7597,-2.8164,-2.8203,-2.8731,-2.91,-2.91,-2.9351,-2.9509,-2.9509,-2.9509,-2.9509,-2.9509,-2.9509,-2.9509,-2.9509,-2.9509,-2.9509,-2.9509,-2.9509,-2.9509,-2.9509,-2.9509,-2.9509,-2.9509,-2.9509,-2.9874,-3.0954,-3.5614,-3.5252,-3.0954,-3.596,-3.4528,-2.9509,-2.9509,-2.9509,-2.9509,-2.9509,-2.9509,-2.9509,-2.9509,-2.9509,-2.9509,-2.9509,-2.9509,-2.9509,-2.9509,-2.9509,-2.9469,-2.9232,-2.9324,-2.9509,-2.9509,-2.9509,-2.9443,-2.9166,-2.8727,-2.8212,-2.8037,-2.7893,-2.7737,-2.7636,-4.2481,-5.4824,-5.4806,-5.4959,-5.4778,-5.4771,-5.4693,-5.4693,-5.4693,-5.4693,-5.4693,-5.4693,-5.4693,-5.4693,-5.4693,-5.4693,-5.4693,-5.4693,-5.4693,-5.4693,-5.4693,-5.4693,-5.4693,-5.4693,-5.4693,-5.4693,-5.4693,-5.4693,-5.4693,-5.4693,-5.4693,-5.4693,-1.8789,-1.9699,-2.0385,-2.0345,-2.0398,-2.045,-2.0398,-2.0213,-1.9976,-1.9712,-1.9831,-2.0055,-2.0266,-2.1031,-2.165,-2.1677,-2.3259,-2.4986,-2.6357,-2.7307,-2.7953,-2.8177,-2.8731,-2.91,-2.91,-2.9351,-2.9509,-2.9509,-2.9509,-2.9509,-2.9509,-2.9509,-2.9509,-2.9509,-2.9509,-2.9509,-2.9509,-2.9509,-2.9509,-2.9509,-2.9509,-2.9509,-2.9509,-2.9509,-3.1668,-3.596,-4.0624,-3.9906,-3.596,-4.0982,-3.7403,-2.9509,-2.9509,-2.9509,-2.9509,-2.9509,-2.9509,-2.9509,-2.9509,-2.9509,-2.9509,-2.9509,-2.9509,-2.9509,-2.9509,-2.9509,-2.9496,-2.9456,-2.9482,-2.9509,-2.9509,-2.9509,-2.9443,-2.954,-2.9473,-2.9367,-2.9387,-2.8441,-2.7854,-2.7966,-4.228,-5.4647,-5.4883,-5.4778,-5.4771,-5.4719,-5.4693,-5.4693,-5.4693,-5.4693,-5.4693,-5.4693,-5.4693,-5.4693,-5.4693,-5.4693,-5.4693,-5.4693,-5.4693,-5.4693,-5.4693,-5.4693,-5.4693,-5.4693,-5.4693,-5.4693,-5.4693,-5.4693,-5.4693,-5.4693,-5.4693,-5.4693,-1.8987,-1.9963,-2.0872,-2.0872,-2.0991,-2.1057,-2.0912,-2.0648,-2.0358,-2.0055,-1.9989,-2.0081,-2.0385,-2.0741,-2.1215,-2.1874,-2.289,-2.4103,-2.558,-2.7083,-2.8072,-2.819,-2.8863,-2.9271,-2.9113,-2.9351,-2.9509,-2.9509,-2.9509,-2.9509,-2.9509,-2.9509,-2.9509,-2.9509,-2.9509,-2.9509,-2.9509,-2.9509,-2.9509,-2.9509,-2.9509,-2.9509,-2.9509,-2.9509,-3.2018,-3.7043,-4.1699,-4.2415,-4.0624,-4.2773,-3.9546,-3.3093,-3.059,-2.9509,-2.9509,-2.9509,-2.9509,-2.9509,-2.9509,-2.9509,-2.9509,-2.9509,-2.9509,-2.9509,-2.9509,-2.9509,-2.9509,-2.9509,-2.9509,-2.9509,-2.9509,-2.9509,-2.9482,-2.9727,-2.9593,-2.9433,-2.9509,-2.9252,-3.1879,-4.2371,-5.0917,-5.6094,-5.4986,-5.4984,-5.47,-5.4745,-5.4693,-5.4693,-5.4693,-5.4693,-5.4693,-5.4693,-5.4693,-5.4693,-5.4693,-5.4693,-5.4693,-5.4693,-5.4693,-5.4693,-5.4693,-5.4693,-5.4693,-5.4693,-5.4693,-5.4693,-5.4693,-5.4693,-5.4693,-5.4693,-5.4693,-5.4693,-1.9778,0.0,-2.1795,-2.1795,-2.1848,-2.1835,0.0,-2.1202,-2.0833,-2.0464,-2.0226,-2.0213,-2.0648,-2.0543,-2.0806,-2.2072,-2.2507,-2.3233,-2.4775,-2.6371,-2.7544,-2.7953,-2.8784,-2.9232,-2.9021,-2.9311,-2.9509,-2.9509,-2.9509,-2.9509,-2.9509,-2.9509,-2.9509,-2.9509,-2.9509,-2.9509,-2.9509,-2.9509,-2.9509,-2.9509,-2.9509,-2.9509,-2.9509,-2.9509,-3.2745,-3.8467,-4.2057,-4.4558,-4.5271,-4.4202,-4.0982,-3.6321,-3.1304,-2.9509,-2.9509,-2.9509,-2.9509,-2.9509,-2.9509,-2.9509,-2.9509,-2.9509,-2.9509,-2.9509,-2.9509,-2.9509,-2.9509,-2.9509,-2.9509,-2.9509,-2.9509,-2.9509,-2.9509,-2.9509,-2.97,-3.0608,-3.5215,-3.6362,-4.0433,-5.5325,-5.8108,-5.7634,-5.5965,-5.5063,-5.4806,-5.4797,-5.4823,-5.4849,-5.4719,-5.4693,-5.4693,-5.4693,-5.4693,-5.4693,-5.4693,-5.4693,-5.4693,-5.4693,-5.4693,-5.4693,-5.4693,-5.4693,-5.4693,-5.4693,-5.4693,-5.4693,-5.4693,-5.4693,-5.4693,-5.4693,-5.4693,-5.4693,0.0,-2.2797,-2.3285,-2.3285,-2.2903,-2.2441,-2.2151,-2.165,0.0,-2.0516,-2.0371,-2.0371,-2.0424,-2.0411,-2.0609,-2.1268,-2.1611,-2.2389,-2.4129,-2.4722,-2.5593,-2.7228,-2.819,-2.8704,-2.8691,-2.9179,-2.9509,-2.9509,-2.9509,-2.9509,-2.9509,-2.9509,-2.9509,-2.9509,-2.9509,-2.9509,-2.9509,-2.9509,-2.9509,-2.9509,-2.9509,-2.9509,-2.9509,-2.9509,-3.4544,-4.313,-4.3864,-4.6359,-4.9927,-4.5627,-4.0982,-3.6321,-3.1304,-2.9509,-2.9509,-2.9509,-2.9509,-2.9509,-2.9509,-2.9509,-2.9509,-2.9509,-2.9509,-2.9509,-2.9509,-2.9509,-2.9509,-2.9509,-2.9509,-2.9509,-2.9509,-2.9509,-2.9509,-2.9509,-2.97,-3.4405,-5.2128,-5.624,-5.6451,-5.7937,-5.7965,-5.7897,-5.8023,-5.6043,-5.4856,-5.4849,-5.4804,-5.4959,-5.4771,-5.4693,-5.4693,-5.4693,-5.4693,-5.4693,-5.4693,-5.4693,-5.4693,-5.4693,-5.4693,-5.4693,-5.4693,-5.4693,-5.4693,-5.4693,-5.4693,-5.4693,-5.4693,-5.4693,-5.4693,-5.4693,-5.4693,-5.4693,-2.2811,-2.3536,-2.3945,-2.376,-2.3417,-2.2995,-2.2521,-2.1967,-2.1373,-2.0793,-2.0675,-2.0675,-2.0675,-2.0675,-2.0978,-2.194,-2.2178,-2.2797,-2.4353,-2.4986,-2.579,-2.7188,-2.8441,-2.9192,-2.9192,-2.939,-2.9509,-2.9509,-2.9509,-2.9509,-2.9509,-2.9509,-2.9509,-2.9509,-2.9509,-2.9509,-2.9509,-2.9509,-2.9509,-2.9509,-2.9509,-2.9509,-2.9509,-3.2745,-3.7403,-4.3845,-4.707,-5.0986,0.0,-4.7049,-4.2773,-4.0265,-3.2745,-2.9509,-2.9509,-2.9509,-2.9509,-2.9509,-2.9509,-2.9509,-2.9509,-2.9509,-2.9509,-2.9509,-2.9509,-2.9509,-2.9509,-2.9509,-2.9509,-2.9509,-2.9509,-2.9509,-2.9509,-2.9509,-2.9607,-3.4921,-5.381,-5.827,-5.8031,-5.8031,-5.8121,-5.7947,-5.8156,-5.6433,-5.5294,-5.673,-5.5637,-5.4927,-5.4719,-5.4693,-5.4693,-5.4693,-5.4693,-5.4693,-5.4693,-5.4693,-5.4693,-5.4693,-5.4693,-5.4693,-5.4693,-5.4693,-5.4693,-5.4693,-5.4693,-5.4693,-5.4693,-5.4693,-5.4693,-5.4693,-5.4693,-5.4693,-2.3945,-2.4485,-2.4815,-2.4617,-2.4287,-2.38,-2.3035,-2.2402,-2.1756,-2.0991,-2.0833,-2.0833,-2.0833,-2.0833,-2.1162,-2.2151,-2.2468,-2.3088,-2.4538,-2.5237,-2.6041,-2.7215,-2.823,-2.8942,-2.9219,-2.9403,-2.9509,-2.9509,-2.9509,-2.9509,-2.9509,-2.9509,-2.9509,-2.9509,-2.9509,-2.9509,-2.9509,-2.9509,-2.9509,-2.9509,-2.9509,-2.9509,-2.9874,-3.4528,-3.9187,-4.3845,-4.707,-5.1339,-5.5276,-4.5627,-4.1699,-4.0624,-3.2745,-2.9509,-2.9509,-2.9509,-2.9509,-2.9509,-2.9509,-2.9509,-2.9509,-2.9509,-2.9509,-2.9509,-2.9509,-2.9509,-2.9509,-2.9509,-2.9509,-2.9509,-2.9509,-2.9509,-2.9496,-2.9416,-2.95,-3.4763,-5.3812,-5.7937,-5.8147,-5.8147,-5.8147,-5.8234,-5.8054,-5.6115,-5.5391,-5.6693,-5.5874,-5.4752,-5.4745,-5.4693,-5.4693,-5.4693,-5.4693,-5.4693,-5.4693,-5.4693,-5.4693,-5.4693,-5.4693,-5.4693,-5.4693,-5.4693,-5.4693,-5.4693,-5.4693,-5.4693,-5.4693,-5.4693,-5.4693,-5.4693,-5.4693,-5.4693,-2.5369,-2.583,-2.6054,-2.6054,-2.5619,-2.4881,-2.372,-2.2995,-2.2257,-2.1083,-2.0833,-2.0833,-2.0833,-2.0846,-2.1031,-2.1611,-2.2204,-2.3101,-2.4538,-2.525,-2.6041,-2.7215,-2.736,-2.7702,-2.8573,-2.9179,-2.9509,-2.9509,-2.9509,-2.9509,-2.9509,-2.9509,-2.9509,-2.9509,-2.9509,-2.9509,-2.9509,-2.9509,-2.9509,-2.9509,-2.9509,-2.9509,-2.9874,-3.4528,-3.9187,-4.3845,-4.3845,-4.6338,-5.028,-4.0605,-3.6682,-3.6321,-3.1304,-2.9509,-2.9509,-2.9509,-2.9509,-2.9509,-2.9509,-2.9509,-2.9509,-2.9509,-2.9509,-2.9509,-2.9509,-2.9509,-2.9509,-2.9509,-2.9509,-2.9509,-2.9509,-2.9509,-2.9456,-2.9593,-2.9752,-3.5088,-5.4186,-5.8108,-5.8147,-5.8147,-5.8147,-5.7991,-5.8186,-5.6218,-5.4855,-5.4754,-5.4932,-5.4881,-5.4849,-5.4719,-5.4719,-5.4693,-5.4693,-5.4693,-5.4693,-5.4693,-5.4693,-5.4693,-5.4693,-5.4693,-5.4693,-5.4693,-5.4693,-5.4693,-5.4693,-5.4693,-5.4693,-5.4693,-5.4693,-5.4693,-5.4693,-5.4693,-2.5685,-2.5975,-2.6054,-2.6054,-2.5619,-2.4881,-2.372,-2.2995,-2.2257,-2.1083,-2.0833,-2.0833,-2.0833,-2.1004,-2.1334,-2.1914,-2.2679,-2.3549,-2.4604,-2.5421,-2.6357,-2.7531,-2.7834,-2.8296,-2.9166,-2.9416,-2.9509,-2.9509,-2.9509,-2.9509,-2.9509,-2.9509,-2.9509,-2.9509,-2.9509,-2.9509,-2.9509,-2.9509,-3.1304,-3.4528,-3.4528,-3.6321,-3.9564,-4.0982,-4.2415,-4.3845,-4.3845,-4.4558,-4.5271,-3.9187,-3.6682,-3.6321,-3.1304,-2.9509,-2.9509,-2.9509,-2.9509,-2.9509,-2.9509,-2.9509,-2.9509,-2.9509,-2.9509,-2.9509,-2.9509,-2.9509,-2.9509,-2.9509,-2.9509,-2.9509,-2.9509,-2.939,-2.962,-2.9553,-3.9709,-5.1146,-5.6905,-5.8108,-5.8147,-5.8147,-5.8147,-5.7991,-5.8186,-5.7472,-5.7238,-5.7109,-5.594,-5.4697,-5.4704,-5.5342,-5.5543,-5.4745,-5.4693,-5.4693,-5.4693,-5.4693,-5.4693,-5.4693,-5.4693,-5.4693,-5.4693,-5.4693,-5.4693,-5.4693,-5.4693,-5.4693,-5.4693,-5.4693,-5.4693,-5.4693,-5.4693,-5.4693,-2.5698,-2.5962,-2.6054,-2.6054,-2.579,-2.5171,-2.376,-2.318,-2.2534,-2.1123,-2.0833,-2.0872,-2.0991,-2.1255,-2.1716,-2.2534,-2.3391,-2.4314,-2.5303,-2.6094,-2.6964,-2.8019,-2.8283,-2.8678,-2.9443,-2.9509,-2.9509,-2.9509,-2.9509,-2.9509,-2.9509,-2.9509,-2.9509,-2.9509,-2.9509,-2.9509,-2.9509,-3.1304,-3.3819,-3.6682,-3.8467,-4.0982,-4.3845,-4.5627,-4.6694,-4.6694,-4.6694,-4.6694,-4.5983,-3.9546,-3.6682,-3.6321,-3.1304,-2.9509,-2.9509,-2.9509,-2.9509,-2.9509,-2.9509,-2.9509,-2.9509,-2.9509,-2.9509,-2.9509,-2.9509,-2.9509,-2.9509,-2.9509,-2.9509,-2.9509,-2.9509,-2.9714,-3.1357,-3.9046,-4.9773,-5.8039,-5.8211,-5.7979,-5.8147,-5.8147,-5.8147,-5.8069,-5.8103,-5.8051,-5.8213,-5.8054,-5.7163,-5.6198,-5.6043,-5.6144,-5.6215,-5.5439,-5.4849,-5.4693,-5.4693,-5.4693,-5.4693,-5.4693,-5.4693,-5.4693,-5.4693,-5.4693,-5.4693,-5.4693,-5.4693,-5.4693,-5.4693,-5.4693,-5.4693,-5.4693,-5.4693,-5.4693,-2.5527,-2.583,-2.6054,-2.6054,-2.6054,-2.5606,-2.3879,-2.3483,-2.2995,-2.1242,-2.0886,-2.0951,-2.1202,-2.1558,-2.2178,-2.3272,-2.4261,-2.5289,-2.6371,-2.703,-2.7702,-2.852,-2.8612,-2.8823,-2.9377,-2.943,-2.9443,-2.9469,-2.9469,-2.9482,-2.9509,-2.9509,-2.9509,-2.9509,-2.9509,-2.9874,-3.0239,-3.4528,-3.7026,-3.8107,-4.2415,-4.4558,-4.5271,-4.9197,-5.0986,-5.0986,-5.0633,-4.9904,-4.8843,-4.0247,-3.6321,-3.5598,-3.1304,-2.9509,-2.9509,-2.9509,-2.9509,-2.9509,-2.9509,-2.9509,-2.9509,-2.9509,-2.9482,-2.9456,-2.9456,-2.9456,-2.9456,-2.9456,-2.9456,-2.9456,-2.9456,-2.966,-3.425,-5.3526,-5.8039,-5.8263,-5.8225,-5.8147,-5.8147,-5.8147,-5.8147,-5.8147,-5.8147,-5.8147,-5.7991,-5.816,-5.8081,-5.8213,-5.7996,-5.705,-5.6013,-5.5961,-5.5082,-5.4693,-5.4693,-5.4693,-5.4693,-5.4693,-5.4693,-5.4693,-5.4693,-5.4693,-5.4693,-5.4693,-5.4693,-5.4693,-5.4693,-5.4693,-5.4693,-5.4693,-5.4693,-5.4693,-2.5527,-2.583,-2.6054,-2.6054,-2.6054,-2.5645,-2.4142,-2.38,-2.3298,-2.1545,-2.1189,-2.1136,-2.0965,-2.1914,-2.2877,-2.3364,-2.4947,-2.6278,-2.6753,-2.7333,-2.7847,-2.8256,-2.8309,-2.8441,-2.8797,-2.8836,-2.8929,-2.9179,-2.9192,-2.9285,-2.9496,-2.9509,-2.9509,-2.9509,-2.9509,-3.1304,-3.5252,-3.6321,-4.0605,-4.7758,-4.8843,-5.1339,-5.4925,-5.2067,-5.0986,-5.0633,-4.707,-4.313,-3.9529,-3.7747,-3.4528,-3.0954,-2.9874,-2.9509,-2.9509,-2.9509,-2.9509,-2.9509,-2.9509,-2.9509,-2.9509,-2.9509,-2.9647,-2.938,-2.938,-2.938,-2.938,-2.938,-2.938,-2.938,-2.938,-2.9698,-3.4406,-5.3455,-5.8185,-5.8251,-5.8173,-5.8147,-5.8147,-5.8147,-5.8147,-5.8147,-5.8147,-5.8147,-5.7991,-5.816,-5.8081,-5.7713,-5.6327,-5.6066,-5.5628,-5.5602,-5.5056,-5.4693,-5.4693,-5.4693,-5.4693,-5.4693,-5.4693,-5.4693,-5.4693,-5.4693,-5.4693,-5.4693,-5.4693,-5.4693,-5.4693,-5.4693,-5.4693,-5.4693,-5.4693,-5.4693,-2.5369,-2.5725,-2.6054,-2.6054,-2.6054,-2.5777,-2.4749,-2.4512,-2.4063,-2.2441,-2.1993,-2.1769,-2.1334,-2.2323,-2.3404,-2.3971,-2.554,-2.6845,-2.7267,-2.7597,-2.79,-2.8177,-2.8203,-2.8322,-2.8625,-2.8652,-2.877,-2.9074,-2.91,-2.9166,-2.9311,-2.9443,-2.9509,-2.9509,-3.1668,-3.4166,-3.6682,-4.1322,-4.5983,-5.0986,-5.3146,-5.5651,-5.8147,-5.5626,-5.42,-5.42,-5.1714,-4.9197,-4.6652,-4.0369,-3.6452,-3.3713,-3.0802,-2.9416,-2.9509,-2.9509,-2.9509,-2.9509,-2.9509,-2.9443,-3.122,-4.0335,-4.3118,-4.3111,-4.3111,-4.3111,-4.3111,-4.3111,-4.3111,-4.3111,-4.3111,-4.3351,-4.5838,-5.5745,-5.8108,-5.8147,-5.8147,-5.8147,-5.8147,-5.8147,-5.8147,-5.8147,-5.8147,-5.8147,-5.7991,-5.816,-5.7711,-5.7372,-5.6147,-5.5524,-5.5186,-5.5186,-5.4901,-5.4693,-5.4693,-5.4693,-5.4693,-5.4693,-5.4693,-5.4693,-5.4693,-5.4693,-5.4693,-5.4693,-5.4693,-5.4693,-5.4693,-5.4693,-5.4693,-5.4693,-5.4693,-5.4693,-2.5171,-2.5606,-2.6054,-2.6054,-2.6054,-2.5896,-2.5329,-2.5197,-2.4802,-2.343,-2.289,-2.2507,-2.2006,-2.2877,-2.3931,-2.4696,-2.6081,-2.7228,-2.7729,-2.7795,-2.7887,-2.8111,-2.8137,-2.823,-2.848,-2.8507,-2.8625,-2.8929,-2.8942,-2.8995,-2.91,-2.9311,-2.9469,-2.9509,-3.4166,-3.7387,-3.9187,-4.7049,-5.1339,-5.2067,-5.635,-5.8147,-5.8147,-5.8147,-5.8147,-5.8147,-5.8147,-5.7424,-5.5576,-4.5095,-4.1269,-4.1587,-3.2767,-2.962,-2.9456,-2.9456,-2.9482,-2.9509,-2.9509,-2.9364,-3.2525,-5.1991,-5.8069,-5.812,-5.812,-5.812,-5.812,-5.812,-5.812,-5.812,-5.812,-5.8219,-5.7962,-5.7962,-5.8056,-5.8147,-5.8147,-5.8147,-5.8147,-5.8147,-5.8147,-5.8147,-5.8147,-5.8147,-5.7939,-5.8029,-5.7186,-5.6559,-5.6225,-5.5316,-5.4693,-5.4693,-5.4693,-5.4693,-5.4693,-5.4693,-5.4693,-5.4693,-5.4693,-5.4693,-5.4693,-5.4693,-5.4693,-5.4693,-5.4693,-5.4693,-5.4693,-5.4693,-5.4693,-5.4693,-5.4693,-5.4693,-2.5052,-2.5606,-2.6054,-2.6054,-2.6054,-2.5896,-2.5329,-2.5197,-2.492,-2.3971,-2.3325,-2.2916,-2.2837,-2.3786,-2.4696,-2.5078,-2.6568,-2.7702,-2.7781,-2.7795,-2.7808,-2.7847,-2.7847,-2.7861,-2.79,-2.7913,-2.8032,-2.8309,-2.8322,-2.8546,-2.9074,-2.914,-2.9271,-2.9509,-3.4166,-4.0605,-4.8843,-5.028,-5.3122,-5.7075,-5.7798,-5.8147,-5.8147,-5.8147,-5.8147,-5.8147,-5.8147,-5.4852,-4.9748,-4.7897,-5.0483,-5.3954,-3.632,-2.9407,-2.958,-2.958,-2.9714,-2.9509,-2.9509,-2.9364,-3.2827,-5.1776,-5.7937,-5.7979,-5.7979,-5.7979,-5.7979,-5.7979,-5.7979,-5.7979,-5.7979,-5.8277,-5.8225,-5.8225,-5.8199,-5.8147,-5.8147,-5.8147,-5.8147,-5.8147,-5.8147,-5.8147,-5.8147,-5.8147,-5.7809,-5.7137,-5.6589,-5.6173,-5.5082,-5.4797,-5.4693,-5.4693,-5.4693,-5.4693,-5.4693,-5.4693,-5.4693,-5.4693,-5.4693,-5.4693,-5.4693,-5.4693,-5.4693,-5.4693,-5.4693,-5.4693,-5.4693,-5.4693,-5.4693,-5.4693,-5.4693,-5.4693,-2.4393,-2.5118,-2.5804,-2.5804,-2.5922,-2.6028,-2.5949,-2.5922,-2.5725,-2.4999,-2.4393,-2.3826,-2.3338,-2.4208,-2.5039,-2.5171,-2.6661,-2.7795,-2.7795,-2.7795,-2.7795,-2.7795,-2.7795,-2.7795,-2.7795,-2.7795,-2.7913,-2.819,-2.8203,-2.8401,-2.8823,-2.9008,-3.065,-3.3456,-3.5598,-4.1322,-5.0986,-5.3497,-5.6001,-5.8147,-5.8147,-5.8147,-5.8147,-5.8147,-5.8147,-5.8147,-5.8147,-5.6674,-5.3776,-5.3776,-5.5572,-5.7207,-4.8793,-4.5596,-4.4336,-3.3441,-2.943,-2.9496,-2.9364,-3.6682,-4.7049,-5.549,-5.8134,-5.8147,-5.8147,-5.8147,-5.8147,-5.8147,-5.8147,-5.8147,-5.8147,-5.8147,-5.8147,-5.8147,-5.8147,-5.8147,-5.8147,-5.8147,-5.8147,-5.8147,-5.8147,-5.8147,-5.8147,-5.826,-5.779,-5.6954,-5.6199,-5.568,-5.4823,-5.4693,-5.4693,-5.4693,-5.4693,-5.4693,-5.4693,-5.4693,-5.4693,-5.4693,-5.4693,-5.4693,-5.4693,-5.4693,-5.4693,-5.4693,-5.4693,-5.4693,-5.4693,-5.4693,-5.4693,-5.4693,-5.4693,-5.4693,-2.3813,-2.4564,-2.5316,-2.5461,-2.5672,-2.5883,-2.6107,-2.6212,-2.6146,-2.5698,-2.521,-2.4683,-2.4103,-2.4775,-2.5434,-2.5514,-2.6806,-2.7795,-2.7795,-2.7795,-2.7795,-2.7795,0.0,-2.7795,-2.7795,-2.7795,-2.7887,-2.8085,-2.8098,-2.8256,-2.8625,-2.8863,-3.1272,-3.6665,-3.7747,-4.2396,-5.0986,-5.5651,-5.8147,-5.8147,-5.8147,-5.8147,-5.8147,-5.8147,-5.8147,-5.8147,-5.8147,-5.8147,-5.8147,-5.8147,-5.7979,-5.7962,-5.8018,-5.5218,-4.8932,-3.4984,-2.9456,-2.9469,-2.9567,-4.2076,-5.8095,-5.8039,-5.8056,-5.8147,-5.8147,-5.8147,-5.8147,-5.8147,-5.8147,-5.8147,-5.8147,-5.8147,-5.8147,-5.8147,-5.8147,-5.8147,-5.8147,-5.8147,-5.8147,-5.8147,-5.8147,-5.8121,-5.7991,-5.7868,-5.7293,-5.5965,-5.5527,-5.5368,-5.4771,-5.4693,-5.4693,-5.4693,-5.4693,-5.4693,-5.4693,-5.4693,-5.4693,-5.4693,-5.4693,-5.4693,-5.4693,-5.4693,-5.4693,-5.4693,-5.4693,-5.4693,-5.4693,-5.4693,-5.4693,-5.4693,-5.4693,-5.4693,-2.3589,-2.4129,-2.4498,-2.5078,-2.5224,-2.5237,-2.525,-2.5461,-2.5645,-2.5606,-2.5369,-2.5237,-2.5448,-2.5777,-2.6094,-2.6384,-2.7201,-2.7795,-2.7795,-2.7795,-2.7795,-2.7795,-2.7795,-2.7795,-2.7795,-2.7795,-2.7808,-2.7821,-2.7821,-2.8058,-2.8625,-2.8665,-3.1045,-3.6649,-4.1341,-4.6003,-5.0986,-5.5651,-5.8147,-5.8147,-5.8147,-5.8147,-5.8147,-5.8147,-5.8147,-5.8147,-5.8147,-5.8147,-5.8147,-5.8147,-5.8173,-5.8225,-5.8289,-4.7007,-3.0758,-2.986,-2.9687,-2.9456,-2.9393,-4.213,-5.8039,-5.7979,-5.8173,-5.8147,-5.8147,-5.8147,-5.8147,-5.8147,-5.8147,-5.8147,-5.8147,-5.8147,-5.8147,-5.8147,-5.8147,-5.8147,-5.8147,-5.8147,-5.8147,-5.8147,-5.8147,-5.7991,-5.8213,-5.7267,-5.594,-5.4986,-5.4883,-5.4984,-5.4771,-5.4693,-5.4693,-5.4693,-5.4693,-5.4693,-5.4693,-5.4693,-5.4693,-5.4693,-5.4693,-5.4693,-5.4693,-5.4693,-5.4693,-5.4693,-5.4693,-5.4693,-5.4693,-5.4693,-5.4693,-5.4693,-5.4693,-5.4693,-2.2652,-2.3391,-2.4129,-2.4525,-2.4907,-2.5197,-2.5197,-2.5276,-2.5395,-2.5566,-2.5382,-2.5276,-2.5553,-2.5843,-2.6146,-2.645,-2.7069,-2.7584,-2.7768,-2.7795,-2.7795,-2.7795,-2.7795,-2.7795,-2.7795,-2.7795,-2.7795,-2.7795,-2.7795,-2.7966,-2.8348,-3.1135,-3.5149,-4.0192,-4.5406,-5.0157,-5.5128,-5.7244,-5.8147,-5.8147,-5.8147,-5.8147,-5.8147,-5.8147,-5.8147,-5.8147,-5.8147,-5.8147,-5.8147,-5.8147,-5.7953,-5.8237,-5.7942,-4.6546,-2.946,-2.9674,-2.9714,-3.1442,-4.3805,-5.2558,-5.8173,-5.8108,-5.8213,-5.8213,-5.8213,-5.8213,-5.8213,-5.8213,-5.8213,-5.8213,-5.8213,-5.8213,-5.8213,-5.8213,-5.8213,-5.8213,-5.8213,-5.8213,-5.8213,-5.8213,-5.8213,-5.816,-5.7975,-5.7764,-5.7004,-5.496,-5.4881,-5.4927,-5.4719,-5.4693,-5.4693,-5.4693,-5.4693,-5.4693,-5.4693,-5.4693,-5.4693,-5.4693,-5.4693,-5.4693,-5.4693,-5.4693,-5.4693,-5.4693,-5.4693,-5.4693,-5.4693,-5.4693,-5.4693,-5.4693,-5.4693,-5.4693,-2.1822,-2.256,-2.3364,-2.3654,-2.4169,-2.4604,-2.4604,-2.4762,-2.4947,-2.5131,-2.5184,-2.5276,-2.5553,-2.5843,-2.6173,-2.6568,-2.703,-2.7452,-2.7755,-2.7795,-2.7795,-2.7795,-2.7795,-2.7795,-2.7795,-2.7795,-2.7795,-2.7795,-2.7795,-2.7913,-2.819,-3.2682,-3.7296,-4.2548,-4.7381,-5.21,-5.703,-5.7576,-5.7783,-5.7576,-5.7809,-5.7887,-5.7861,-5.8069,-5.8147,-5.8147,-5.8147,-5.8147,-5.8173,-5.7953,-5.8185,-5.7359,-5.1177,-4.0696,-2.9553,-2.9714,-3.3622,-4.0952,-5.3812,-5.7627,-5.6998,-5.7058,-5.6849,-5.6849,-5.6849,-5.6849,-5.6849,-5.6849,-5.6849,-5.6849,-5.6849,-5.6849,-5.6849,-5.6849,-5.6849,-5.6849,-5.6849,-5.6849,-5.6849,-5.6849,-5.6849,-5.7135,-5.6977,-5.6951,-5.6379,-5.501,-5.4927,-5.4693,-5.4693,-5.4693,-5.4693,-5.4693,-5.4693,-5.4693,-5.4693,-5.4693,-5.4693,-5.4693,-5.4693,-5.4693,-5.4693,-5.4693,-5.4693,-5.4693,-5.4693,-5.4693,-5.4693,-5.4693,-5.4693,-5.4693,-5.4693,-5.4589,-2.1202,-2.169,-2.2191,-2.2481,-2.2982,-2.3404,-2.3417,-2.3852,-2.4261,-2.4287,-2.4762,-2.525,-2.5527,-2.583,-2.6226,-2.6793,-2.7135,-2.7425,-2.7729,-2.7781,-2.7781,-2.7781,-2.7795,-2.7795,-2.7795,-2.7795,-2.7795,-2.7795,-2.7795,-2.7913,-2.8177,-3.2651,-3.7624,-4.2874,-4.7399,-5.1918,-5.6433,-5.7004,-5.7004,-5.6459,-5.7424,-5.7659,-5.6921,-5.7861,-5.8121,-5.8121,-5.8121,-5.8147,-5.8173,-5.8263,-5.7687,-5.5417,-3.6827,-2.954,-2.954,-2.95,-4.1624,-5.8103,-5.8055,-5.6456,-5.49,-5.4875,-5.4875,-5.4875,-5.4875,-5.4875,-5.4875,-5.4875,-5.4875,-5.4875,-5.4875,-5.4875,-5.4875,-5.4875,-5.4875,-5.4875,-5.4875,-5.4875,-5.4875,-5.4875,-5.4875,-5.4723,-5.4909,-5.4832,-5.4984,-5.4797,-5.4693,-5.4693,-5.4693,-5.4693,-5.4693,-5.4693,-5.4693,-5.4693,-5.4693,-5.4693,-5.4693,-5.4693,-5.4693,-5.4693,-5.4693,-5.4693,-5.4693,-5.4693,-5.4693,-5.4693,-5.4667,-5.4667,-5.4667,-5.4667,-5.4667,-5.4355,-2.1202,-2.14,-2.1598,-2.2429,-2.2794,-2.2853,-2.3643,-2.3821,-2.3834,-2.3879,-2.4301,-2.4643,-2.4933,-2.5395,-2.5856,-2.6226,-2.6529,-2.6832,-2.7109,-2.7333,-2.7478,-2.7478,-2.7663,-2.7795,-2.7795,-2.7795,-2.7795,-2.7795,-2.7795,-2.7834,-2.79,-3.5359,-4.3039,-5.1196,-5.3536,-5.5191,-5.6248,-5.6433,-5.7006,-5.7605,-5.7006,-5.6301,-5.5544,-5.729,-5.7947,-5.7947,-5.7947,-5.813,-5.8095,-5.8237,-4.9773,-3.681,-3.1488,-2.9712,-2.9407,-2.8712,-3.9914,-5.5686,-5.5602,-5.5217,-5.4652,-5.4933,-5.4804,-5.4804,-5.4804,-5.4804,-5.4804,-5.4804,-5.4804,-5.4804,-5.4804,-5.4804,-5.4804,-5.4804,-5.4804,-5.4804,-5.4804,-5.4804,-5.4804,-5.4804,-5.4804,-5.4752,-5.4953,-5.4927,-5.4875,-5.4719,-5.4693,-5.4693,-5.4693,-5.4693,-5.4693,-5.4693,-5.4693,-5.4693,-5.4693,-5.4693,-5.4693,-5.4693,-5.4693,-5.4693,-5.4693,-5.4693,-5.4693,-5.4693,-5.4693,-5.4485,-5.407,-5.407,-5.3862,-5.3472,-5.3472,-5.3394,-2.0867,-2.113,-2.1588,-2.2022,-2.1905,-2.192,-2.285,-2.315,-2.3233,-2.3266,-2.3483,-2.3852,-2.4142,-2.467,-2.5237,-2.5777,-2.612,-2.645,-2.6845,-2.7056,-2.7215,-2.7333,-2.7505,-2.761,-2.761,-2.7729,-2.7795,-2.7795,-2.7795,-2.7795,-2.7795,-3.6209,-4.5254,-5.452,-5.5498,-5.57,-5.5883,-5.6095,-5.6355,-5.6666,-5.612,-5.5468,-5.4738,-5.6192,-5.7264,-5.7894,-5.7101,-5.7256,-5.7514,-4.9345,-3.9489,-2.9401,-2.9592,-2.9252,-2.9633,-3.6571,-4.5913,-5.4799,-5.4755,-5.4855,-5.4804,-5.4797,-5.4693,-5.4693,-5.4693,-5.4693,-5.4693,-5.4693,-5.4693,-5.4693,-5.4693,-5.4693,-5.4693,-5.4693,-5.4693,-5.4693,-5.4693,-5.4693,-5.4693,-5.4693,-5.4693,-5.4693,-5.4693,-5.4693,-5.4693,-5.4693,-5.4693,-5.4693,-5.4693,-5.4693,-5.4693,-5.4693,-5.4693,-5.4693,-5.4693,-5.4693,-5.4693,-5.4693,-5.4693,-5.4693,-5.4693,-5.4693,-5.4589,-5.4355,-5.4355,-5.407,-5.3498,-5.3498,-5.3316,-5.3005,-5.3005,-5.2485,-2.0226,-2.0861,-2.1281,-2.1081,-2.0994,-2.1002,0.0,-2.1932,-2.2349,-2.1945,-2.231,-2.2811,-2.318,-2.3747,-2.4446,-2.5316,-2.5711,-2.6107,-2.6674,-2.6793,-2.6911,-2.7175,-2.7241,-2.728,-2.7346,-2.7597,-2.7755,-2.7795,-2.7795,-2.7795,-2.7795,-3.5497,-4.4497,-5.452,-5.483,-5.4953,-5.4652,-5.3698,-5.2739,-5.1872,-5.1969,-5.1822,-5.1822,-5.187,-5.289,-5.446,-5.2588,-5.2957,-5.3327,-3.6224,-3.0485,-3.2305,-3.2275,-3.1839,-3.2735,-4.8764,-5.4933,-5.4881,-5.4849,-5.4693,-5.4693,-5.4693,-5.4693,-5.4693,-5.4693,-5.4693,-5.4693,-5.4693,-5.4693,-5.4693,-5.4693,-5.4693,-5.4693,-5.4693,-5.4693,-5.4693,-5.4693,-5.4693,-5.4693,-5.4693,-5.4693,-5.4693,-5.4693,-5.4693,-5.4693,-5.4693,-5.4693,-5.4693,-5.4693,-5.4693,-5.4693,-5.4693,-5.4693,-5.4693,-5.4693,-5.4693,-5.4693,-5.4693,-5.4693,-5.4667,-5.4615,-5.4615,-5.4329,-5.3758,-5.3758,-5.3446,-5.2797,-5.2797,-5.2745,-5.2615,-5.2615,-5.1473,0.0,0.0,0.0,0.0,0.0,0.0,0.0,-2.0828,-2.1572,-2.0321,-2.0503,-2.1136,-2.1901,-2.2705,-2.3536,-2.4406,-2.4802,-2.5197,-2.5777,-2.6067,-2.6239,-2.6292,-2.6516,-2.7177,-2.7658,-2.7751,-2.7885,-2.7781,-2.7795,-2.7795,-2.7795,-2.9487,-3.802,-5.4159,-5.4781,-5.4907,-5.4678,-4.0404,-3.3094,-3.3078,-3.3142,-3.3158,-3.3174,-3.309,-3.3121,-3.364,-3.32,-3.32,-3.3397,-2.9771,-3.6829,-5.0027,-5.0005,-4.9608,-5.0055,-5.3456,-5.4823,-5.4823,-5.4745,-5.4693,-5.4693,-5.4693,-5.4693,-5.4693,-5.4693,-5.4693,-5.4693,-5.4693,-5.4693,-5.4693,-5.4693,-5.4693,-5.4693,-5.4693,-5.4693,-5.4693,-5.4693,-5.4693,-5.4693,-5.4693,-5.4693,-5.4693,-5.4693,-5.4693,-5.4693,-5.4693,-5.4693,-5.4693,-5.4693,-5.4693,-5.4693,-5.4693,-5.4693,-5.4693,-5.4693,-5.4693,-5.4693,-5.4693,-5.4693,-5.4485,-5.4018,-5.4018,-5.3732,-5.3187,-5.3161,-5.2667,-5.1628,-5.1628,-5.1161,-5.0252,-5.0252,-4.9525,0.0,0.0,0.0,0.0,0.0,0.0,0.0,0.0,0.0,0.0,0.0,-1.9501,-2.0081,0.0,-2.2375,-2.3101,-2.3958,-2.4683,-2.5118,-2.5553,-2.583,-2.615,-2.643,-2.679,-2.7231,-2.7739,-2.7888,-2.7698,-2.7845,-2.7925,-2.7925,-2.7751,-3.6105,-5.4098,-5.4805,-5.0554,-4.127,-3.2484,-2.7711,-2.7818,-2.7818,-2.7818,-2.7818,-2.7965,-2.7952,-2.7818,-2.7845,-2.7791,-2.8402,-3.767,-4.6786,-5.4663,-5.4881,-5.4959,-5.4693,-5.4693,-5.4693,-5.4693,-5.4693,-5.4693,-5.4693,-5.4693,-5.4693,-5.4693,-5.4693,-5.4693,-5.4693,-5.4693,-5.4693,-5.4693,-5.4693,-5.4693,-5.4693,-5.4693,-5.4693,-5.4693,-5.4693,-5.4693,-5.4693,-5.4693,-5.4693,-5.4693,-5.4693,-5.4693,-5.4693,-5.4693,-5.4693,-5.4693,-5.4693,-5.4693,-5.4355,-5.3152,-5.3394,-5.342,-5.342,-5.342,-5.3784,-5.4641,-5.4433,-5.4018,-5.3446,-5.342,-5.3031,-5.2174,-5.2148,-5.1447,-5.0018,-5.0018,-4.9577,-4.872,-4.7551,-4.672,0.0,0.0,0.0,0.0,0.0,0.0,0.0,0.0,0.0,0.0,0.0,0.0,0.0,0.0,0.0,-2.2132,-2.3386,-2.4129,-2.4591,-2.5013,-2.5616,-2.5669,-2.632,-2.6658,-2.663,-2.7253,-2.7455,-2.7509,-2.7444,-2.7631,-2.7698,-2.7711,-3.4447,-4.9091,-4.9561,-4.2559,-2.7805,-2.7845,-2.7965,-2.7795,-2.7795,0.0,-2.7795,-2.7755,-2.7729,-2.7716,-2.7845,-2.9826,-3.401,-4.8925,-5.4883,-5.483,-5.4719,-5.489,-5.4864,-5.4785,-5.4812,-5.489,-5.489,-5.4942,-5.4693,-5.4693,-5.4693,-5.4693,-5.4916,-5.489,0.0,-5.4759,-5.4812,-5.489,-5.489,-5.4968,-5.4693,-5.4693,-5.4693,-5.4693,-5.4693,-5.4693,-5.4693,-5.4693,-5.4693,-5.4693,-5.4693,-5.4942,-5.4812,-5.4954,-5.4838,-5.4916,-5.4954,-5.4838,-5.4147,-5.2087,-5.1907,-5.1907,-5.2641,-5.2226,-5.2719,-5.4433,-5.368,-5.2927,-5.2356,-5.233,-5.181,-5.0668,-5.0538,-4.9785,-4.8434,-4.8304,-4.7889,-4.7162,-4.4175,-4.3032,0.0,0.0,0.0,0.0,0.0,0.0,0.0,0.0,0.0,0.0,0.0,0.0,0.0,0.0,0.0,0.0,-2.274,-2.3153,-2.4195,-2.4821,-2.5106,-2.4419,-2.5577,-2.605,-2.6003,-2.6296,-2.6252,-2.6188,-2.6116,-2.6721,-2.7685,-2.7874,0.0,0.0,0.0,-2.9883,-2.7805,-2.7663,-2.7768,-2.7795,-2.7795,-2.7795,-2.7795,-2.7938,-2.7845,-2.7831,-2.7969,-3.687,-5.1817,-5.3988,-5.483,-5.4719,-5.4875,-5.4691,-5.4961,-5.4832,-5.4938,-5.4691,-5.4691,0.0,0.0,-5.4693,-5.4693,-5.4942,-5.4822,-5.4691,-5.4909,-5.4779,-5.4671,-5.4691,-5.4691,-5.4681,-5.4693,-5.4693,-5.4693,-5.4693,-5.4693,-5.4693,-5.4693,-5.4693,-5.4693,-5.4693,-5.4693,-5.4655,-5.4697,-5.4745,-5.4829,-5.4875,-5.4772,-5.4856,-5.4641,-5.4433,-5.182,0.0,-5.4381,-5.2563,-5.2122,-5.3836,-5.1992,-5.059,-4.9992,-4.9966,-4.9447,-4.8304,-4.7785,-4.7421,-4.7239,-4.6746,-4.5915,-4.4694,-3.9371,-3.7968,0.0,0.0,0.0,0.0,0.0,0.0,0.0,0.0,0.0,0.0,0.0,0.0,0.0,0.0,0.0,0.0,-2.2906,-2.2915,-2.2455,-2.3173,-2.3956,-2.4294,-2.4735,-2.5068,-2.4933,-2.499,-2.5224,-2.5883,-2.6081,-2.6135,-2.6595,-2.7509,-2.7712,-2.782,-2.7834,-2.7915,-2.7738,-2.7845,-2.7636,-2.7795,-2.7795,-2.7729,-2.7938,-2.7845,-3.3381,-4.3592,-4.3638,-4.7776,-5.4984,-5.4726,-5.4849,-5.4942,0.0,0.0,0.0,0.0,-5.279,-5.2971,-5.4433,-5.4938,-5.4803,-5.4803,-5.4803,-5.475,-5.4859,-5.3714,-5.2919,-5.2713,-5.279,-5.2997,-5.4433,-5.4856,-5.4927,-5.4927,-5.4812,-5.4693,-5.4693,-5.4693,-5.4693,-5.4693,-5.4785,0.0,-5.3036,-5.3871,-5.4965,-5.4853,-5.1438,-5.0209,-5.4194,-5.4726,-5.4165,-5.2061,-5.096,-5.1402,-5.3161,-5.233,0.0,0.0,0.0,-5.168,-5.1109,-5.0745,0.0,0.0,0.0,-4.472,-4.3058,-4.15,0.0,0.0,-3.5605,-3.4852,0.0,0.0,0.0,0.0,0.0,0.0,0.0,0.0,0.0,0.0,0.0,0.0,0.0,0.0,0.0,0.0,-2.248,-2.2405,-2.1037,-2.1825,-2.2942,-2.3672,-2.3934,-2.3865,-2.4267,-2.8337,-2.9375,-2.5696,-2.5536,-2.5725,-2.6136,-2.6942,-2.7307,-2.7469,-2.7469,-2.7284,-2.7228,-2.7578,-2.7685,-2.7898,-2.7898,-2.7791,-2.7928,-3.2837,-4.2318,-5.4858,-5.4933,-5.4752,-5.4927,-5.4942,-5.4733,-5.4822,-5.4063,-5.2878,-5.1413,-5.1445,-5.1343,-5.1706,-5.3296,-5.3822,-5.3955,-5.3955,-5.3955,-5.3928,-5.3768,-5.2643,-5.1209,-5.1394,-5.1234,-5.1804,-5.3272,-5.3797,-5.3976,-5.4697,-5.4665,-5.4954,-5.4954,-5.4954,-5.4954,-5.4954,-5.4244,-5.3192,-5.1515,-5.2748,-5.3948,-5.3992,-4.954,-4.8331,-5.319,-5.4008,-5.3035,-5.0801,-5.1525,-5.2148,-5.2563,-5.2174,-5.2407,-5.355,-5.2641,-5.2018,-5.1914,-5.0901,-4.9785,-4.8538,-4.5681,-4.2721,0.0,0.0,0.0,0.0,0.0,0.0,0.0,0.0,0.0,0.0,0.0,0.0,0.0,0.0,0.0,0.0,0.0,0.0,0.0,0.0,0.0,0.0,0.0,0.0,-2.0846,-2.1896,-2.2618,-2.2694,-2.2639,-2.2933,-2.4145,-3.8171,-4.0648,-2.5644,-2.4208,-2.4907,-2.5847,-2.6145,-2.623,-2.6148,-2.6175,-2.5962,-2.6232,-2.7257,-2.7951,-2.7964,-2.7964,-2.7869,-2.8364,-4.5935,-5.4216,-5.4942,-5.4693,-5.4785,-5.4961,-5.4961,-5.4671,-5.4724,-5.2173,-5.1343,-5.1239,-5.1455,-5.1381,-5.1461,-5.1366,-5.1564,-5.1343,-5.1343,-5.1343,-5.1572,-5.138,-5.1222,-5.1419,-5.1216,-5.1196,-5.1343,-5.1343,-5.1471,-5.1949,-5.4115,-5.4831,-5.4858,-5.4858,-5.4858,-5.4858,-5.4858,-5.3104,-5.1406,-5.1265,-5.1258,-5.1508,-5.138,-5.1128,0.0,-5.1295,-5.1293,-5.1898,-5.2927,-5.342,-5.3758,-5.3784,-5.2278,-5.181,-5.2953,-5.0927,-5.02,-5.1265,-4.9187,-4.7967,-4.7915,-4.5084,-4.1942,-3.854,0.0,0.0,0.0,0.0,0.0,0.0,0.0,0.0,0.0,0.0,0.0,0.0,0.0,0.0,0.0,0.0,0.0,0.0,0.0,0.0,0.0,0.0,0.0,0.0,-1.9609,-2.1672,-2.2506,-2.0402,-1.9877,-2.1658,-3.4965,-3.7735,-2.4247,-2.3074,-2.3622,-2.4942,-2.4988,-2.4807,-2.5003,-2.5527,-2.619,-2.6005,-2.6344,-2.6529,-2.6565,-2.6779,-2.6608,-2.7077,-4.4535,-5.3216,-5.4965,-5.4671,-5.4912,-5.4726,-5.3265,-5.2617,-5.2397,-5.1595,-5.0276,-4.8905,-4.8866,-4.9031,-4.9109,-4.9008,-4.899,-4.9067,-4.9059,-4.9021,-4.9005,-4.9142,-4.9064,-4.9116,-4.8979,-4.897,-4.9357,-5.0775,-5.1406,-5.1421,-5.2457,-5.2562,-5.2434,-5.248,-5.2407,-5.2356,-5.2382,-5.0501,-4.8881,-4.9135,-4.9141,-4.8909,-4.8972,-4.9093,-4.9615,-5.1155,-5.118,-5.1964,-5.4109,-5.3666,-5.3244,-5.361,-5.3087,-5.2433,-5.2433,-5.1706,-5.1109,-5.0745,-4.9992,-4.9057,-4.7915,-4.6201,-4.2695,-3.7345,0.0,0.0,0.0,0.0,0.0,0.0,0.0,0.0,0.0,0.0,0.0,0.0,0.0,0.0,0.0,0.0,0.0,0.0,0.0,0.0,0.0,0.0,0.0,0.0,0.0,0.0,-2.1769,-1.925,0.0,-1.8856,-2.6819,-2.9163,-2.2413,-2.1862,-2.231,-2.3648,-2.364,-2.3958,-2.4274,-2.4988,-2.5429,-2.558,-2.5936,-2.615,-2.6173,-2.6001,-2.9108,-3.5518,-4.6413,-5.2171,-5.3529,-5.3715,-5.3689,-5.3449,-5.0958,-5.0122,-5.001,-5.0042,-4.8746,-4.6634,-4.6538,-4.7052,-4.7674,-4.7811,-4.7886,-4.7937,-4.7733,-4.7359,-4.6687,-4.6687,-4.6562,-4.662,-4.6582,-4.7078,-4.8141,-4.97,-4.996,-4.994,-4.9976,-5.0564,-5.1206,-5.0237,-5.0875,-5.0723,-4.8015,-4.7237,-4.6502,-4.6522,-4.3864,-4.2717,-4.6085,-4.728,-4.841,-4.9987,-5.0749,-5.1789,-5.3535,-5.329,-5.3009,-5.3351,-5.3218,-5.2745,-5.2174,-5.194,-5.1421,-5.0486,-4.9862,-4.8642,-4.6694,-4.4954,-4.1448,0.0,0.0,0.0,0.0,0.0,0.0,0.0,0.0,0.0,0.0,0.0,0.0,0.0,0.0,0.0,0.0,0.0,0.0,0.0,0.0,0.0,0.0,0.0,0.0,0.0,0.0,0.0,-2.0594,-1.8739,0.0,0.0,0.0,0.0,-2.0232,-2.0522,-2.1144,-2.2264,-2.2358,-2.2983,-2.4176,-2.4161,-2.4301,-2.4351,-2.5375,-2.639,-2.7047,-2.7166,-3.5553,-5.1181,-5.1076,-5.1102,-5.109,-5.1285,-5.1206,-5.0959,-4.8634,-4.7779,-4.7565,-4.739,-4.5756,-4.4001,-4.4011,-4.5455,-4.7347,-4.7507,-4.7701,-4.7751,-4.7756,-4.6248,-4.4305,-4.4418,-4.4017,0.0,0.0,-4.5766,-4.7711,-4.7743,-4.7629,-4.7802,-4.793,-4.9377,-5.0467,-4.8183,-4.9568,-4.9027,-4.238,-4.2789,-4.436,-4.4445,0.0,-3.363,-4.2428,-4.6029,-4.7836,-4.7758,-4.9882,-5.1064,-5.1445,-5.2089,-5.2434,-5.246,-5.2615,-5.2667,-5.2096,-5.155,-5.0979,-5.0356,-4.8642,-4.6616,-4.4279,-4.1396,0.0,0.0,0.0,0.0,0.0,0.0,0.0,0.0,0.0,0.0,0.0,0.0,0.0,0.0,0.0,0.0,0.0,0.0,0.0,0.0,0.0,0.0,0.0,0.0,0.0,0.0,-1.9493,-2.0457,-2.0831,-2.0173,-2.0992,0.0,0.0,0.0,0.0,0.0,0.0,-1.8635,-2.024,-2.191,-2.2848,-2.2859,-2.3288,-2.4172,-2.4672,-3.0641,-4.2354,-4.2334,-4.4419,-4.8608,-4.8571,-4.8623,-4.8571,-4.8761,-4.871,-4.8582,-4.6255,-4.5464,-4.4871,-3.9719,-3.7266,-3.6918,-3.6809,-3.9293,-4.3038,-4.4803,-4.5225,-4.5455,-4.5278,-4.3864,-4.2007,-4.181,0.0,0.0,0.0,0.0,-4.5272,-4.5409,-4.5256,-4.5897,-4.7401,-4.8237,-4.8583,-4.7834,-4.837,-4.7187,-4.201,-4.1538,-4.1927,-4.1961,-3.5686,0.0,-3.3796,-4.0477,-4.6004,-4.7726,-4.8477,-4.9377,-5.1012,-5.1406,-5.1721,-5.1499,-5.1654,-5.1499,-5.0927,-5.0745,-5.0044,-4.859,-4.646,-4.4045,-4.1344,0.0,0.0,0.0,0.0,0.0,0.0,0.0,0.0,0.0,0.0,0.0,0.0,0.0,0.0,0.0,0.0,0.0,0.0,0.0,0.0,0.0,0.0,0.0,0.0,0.0,0.0,0.0,-1.8345,-1.9669,-1.8695,-1.8517,-1.922,0.0,0.0,0.0,0.0,0.0,0.0,0.0,0.0,0.0,-1.9351,-2.0977,-2.5024,-3.1426,-3.2633,-3.7562,-4.6504,-4.6362,-4.6492,-4.6388,-4.6466,-4.7006,-4.791,-4.7914,-4.7157,-4.6132,-4.3805,-4.1156,-3.8076,0.0,0.0,0.0,0.0,-3.3383,-3.6747,-3.8117,-4.0504,-4.2923,-4.2929,0.0,0.0,0.0,0.0,0.0,0.0,0.0,-3.8422,-3.8349,-4.0625,-4.3421,-4.5897,-4.6456,-4.6502,-4.6253,-4.5443,-4.4191,-4.1623,-3.6882,-3.3475,-3.3524,-2.9472,0.0,0.0,0.0,-4.0421,-4.5606,-4.711,-4.8356,-4.9577,-5.0801,-5.1248,-5.0901,-5.0927,-5.0797,-5.0486,-4.9759,-4.8434,-4.646,-4.3941,-4.0747,0.0,0.0,0.0,0.0,0.0,0.0,0.0,0.0,0.0,0.0,0.0,0.0,0.0,0.0,0.0,0.0,0.0,0.0,0.0,0.0,0.0,0.0,0.0,0.0,0.0,0.0,0.0,0.0,0.0,-1.7506,-1.5565,0.0,0.0,0.0,0.0,0.0,0.0,0.0,0.0,0.0,0.0,0.0,0.0,0.0,-2.7033,-3.7634,-4.0941,-4.2123,-4.1432,-4.324,-4.41,-4.4126,-4.3917,-4.4968,-4.6889,-4.7015,0.0,-4.3754,-4.0762,0.0,0.0,0.0,0.0,0.0,0.0,0.0,0.0,0.0,0.0,0.0,0.0,0.0,0.0,0.0,0.0,0.0,0.0,0.0,0.0,0.0,0.0,-4.1604,-4.3451,-4.3964,-4.376,-4.2568,-4.0488,-3.8726,-3.8311,-3.0271,-2.3514,0.0,0.0,0.0,0.0,0.0,0.0,-4.3312,-4.6343,-4.7941,-4.769,-4.9655,-5.0933,-5.0304,-5.033,-5.0278,-5.0122,-4.8356,-4.6253,-4.3863,-4.1111,0.0,0.0,0.0,0.0,0.0,0.0,0.0,0.0,0.0,0.0,0.0,0.0,0.0,0.0,0.0,0.0,0.0,0.0,0.0,0.0,0.0,0.0,0.0,0.0,0.0,0.0,0.0,0.0,0.0,0.0,0.0,0.0,0.0,0.0,0.0,0.0,0.0,0.0,0.0,0.0,0.0,0.0,0.0,0.0,0.0,0.0,0.0,0.0,0.0,0.0,-3.6207,-4.1556,-4.1528,-4.1706,-4.1725,-4.2207,-4.2254,-4.2012,-4.1104,-3.5117,0.0,0.0,0.0,0.0,0.0,0.0,0.0,0.0,0.0,0.0,0.0,0.0,0.0,0.0,0.0,0.0,0.0,0.0,0.0,0.0,0.0,0.0,-4.1064,-4.1479,-4.1699,-3.9542,-3.2107,0.0,0.0,0.0,0.0,0.0,0.0,0.0,0.0,0.0,0.0,0.0,-4.3297,-4.6454,-4.7726,-4.7904,-4.8928,-4.9908,-5.0057,-4.9759,-4.9343,-4.8408,-4.5811,-4.3084,0.0,0.0,0.0,0.0,0.0,0.0,0.0,0.0,0.0,0.0,0.0,0.0,0.0,0.0,0.0,0.0,0.0,0.0,0.0,0.0,0.0,0.0,0.0,0.0,0.0,0.0,0.0,0.0,0.0,0.0,0.0,0.0,0.0,0.0,0.0,0.0,0.0,0.0,0.0,0.0,0.0,0.0,0.0,0.0,0.0,0.0,0.0,0.0,0.0,0.0,0.0,0.0,0.0,0.0,0.0,0.0,0.0,0.0,-3.8181,-3.7923,0.0,0.0,0.0,0.0,0.0,0.0,0.0,0.0,0.0,0.0,0.0,0.0,0.0,0.0,0.0,0.0,0.0,0.0,0.0,0.0,0.0,0.0,0.0,0.0,0.0,0.0,0.0,0.0,0.0,0.0,0.0,0.0,0.0,0.0,0.0,0.0,0.0,0.0,0.0,0.0,-4.3252,-4.6368,-4.7877,-4.7733,-4.9383,-5.0205,-4.9482,-4.9135,-4.7648,-4.5595,-4.2252,0.0,0.0,0.0,0.0,0.0,0.0,0.0,0.0,0.0,0.0,0.0,0.0,0.0,0.0,0.0,0.0,0.0,0.0,0.0,0.0,0.0,0.0,0.0,0.0,0.0,0.0,0.0,0.0,0.0,0.0,0.0,0.0,0.0,0.0,0.0,0.0,0.0,0.0,0.0,0.0,0.0,0.0,0.0,0.0,0.0,0.0,0.0,0.0,0.0,0.0,0.0,0.0,0.0,0.0,0.0,0.0,0.0,0.0,0.0,-3.3139,-3.2976,0.0,0.0,0.0,0.0,0.0,0.0,0.0,0.0,0.0,0.0,0.0,0.0,0.0,0.0,0.0,0.0,0.0,0.0,0.0,0.0,0.0,0.0,0.0,0.0,0.0,0.0,0.0,0.0,0.0,0.0,0.0,0.0,0.0,0.0,0.0,0.0,0.0,0.0,0.0,0.0,-4.2326,-4.5808,-4.7342,-4.7876,-4.9589,-5.0204,-4.8881,-4.8144,-4.6442,-4.2886,-3.8787,0.0,0.0,0.0,0.0,0.0,0.0,0.0,0.0,0.0,0.0,0.0,0.0,0.0,0.0,0.0,0.0,0.0,0.0,0.0,0.0,0.0,0.0,0.0,0.0,0.0,0.0,0.0,0.0,0.0,0.0,0.0,0.0,0.0,0.0,0.0,0.0,0.0,0.0,0.0,0.0,0.0,0.0,0.0,0.0,0.0,0.0,0.0,0.0,0.0,0.0,0.0,0.0,0.0,0.0,0.0,0.0,0.0,0.0,0.0,0.0,0.0,0.0,0.0,0.0,0.0,0.0,0.0,0.0,0.0,0.0,0.0,0.0,0.0,0.0,0.0,0.0,0.0,0.0,0.0,0.0,0.0,0.0,0.0,0.0,0.0,0.0,0.0,0.0,0.0,0.0,0.0,0.0,0.0,0.0,0.0,0.0,0.0,0.0,0.0,0.0,0.0,-4.0173,-4.3276,-4.5485,-4.7569,-4.7941,-4.7993,-4.7967,-4.7836,-4.5733,-4.0605,0.0,0.0,0.0,0.0,0.0,0.0,0.0,0.0,0.0,0.0,0.0,0.0,0.0,0.0,0.0,0.0,0.0,0.0,0.0,0.0,0.0,0.0,0.0,0.0,0.0,0.0,0.0,0.0,0.0,0.0,0.0,0.0,0.0,0.0,0.0,0.0,0.0,0.0,0.0,0.0,0.0,0.0,0.0,0.0,0.0,0.0,0.0,0.0,0.0,0.0,0.0,0.0,0.0,0.0,0.0,0.0,0.0,0.0,0.0,0.0,0.0,0.0,0.0,0.0,0.0,0.0,0.0,0.0,0.0,0.0,0.0,0.0,0.0,0.0,0.0,0.0,0.0,0.0,0.0,0.0,0.0,0.0,0.0,0.0,0.0,0.0,0.0,0.0,0.0,0.0,0.0,0.0,0.0,0.0,0.0,0.0,0.0,0.0,0.0,0.0,0.0,0.0,-3.9452,-4.2233,-4.4261,-4.6713,-4.7032,-4.7059,-4.7059,-4.7496,-4.5598,-4.015,0.0,0.0,0.0,0.0,0.0,0.0,0.0,0.0,0.0,0.0,0.0,0.0,0.0,0.0,0.0,0.0,0.0,0.0,0.0,0.0,0.0,0.0,0.0,0.0,0.0,0.0,0.0,0.0,0.0,0.0,0.0,0.0,0.0,0.0,0.0,0.0,0.0,0.0,0.0,0.0,0.0,0.0,0.0,0.0,0.0,0.0,0.0,0.0,0.0,0.0,0.0,0.0,0.0,0.0,0.0,0.0,0.0,0.0,0.0,0.0,0.0,0.0,0.0,0.0,0.0,0.0,0.0,0.0,0.0,0.0,0.0,0.0,0.0,0.0,0.0,0.0,0.0,0.0,0.0,0.0,0.0,0.0,0.0,0.0,0.0,0.0,0.0,0.0,0.0,0.0,0.0,0.0,0.0,0.0,0.0,0.0,0.0,0.0,0.0,0.0,0.0,0.0,-3.8014,-4.135,-4.4175,-4.6112,-4.6156,-4.616,-4.6466,-4.6642,-4.4757,-3.9879,0.0,0.0,0.0,0.0,0.0,0.0,0.0,0.0,0.0,0.0,0.0,0.0,0.0,0.0,0.0,0.0,0.0,0.0,0.0,0.0,0.0,0.0,0.0,0.0,0.0,0.0,0.0,0.0,0.0,0.0,0.0,0.0,0.0,0.0,0.0,0.0,0.0,0.0,0.0,0.0,0.0,0.0,0.0,0.0,0.0,0.0,0.0,0.0,0.0,0.0,0.0,0.0,0.0,0.0,0.0,0.0,0.0,0.0,0.0,0.0,0.0,0.0,0.0,0.0,0.0,0.0,0.0,0.0,0.0,0.0,0.0,0.0,0.0,0.0,0.0,0.0,0.0,0.0,0.0,0.0,0.0,0.0,0.0,0.0,0.0,0.0,0.0,0.0,0.0,0.0,0.0,0.0,0.0,0.0,0.0,0.0,0.0,0.0,0.0,0.0,0.0,0.0,-3.476,-4.0141,-4.4916,-4.5537,-4.5562,-4.5595,-4.5595,-4.5056,-4.2878,0.0,0.0,0.0,0.0,0.0,0.0,0.0,0.0,0.0,0.0,0.0,0.0,0.0,0.0,0.0,0.0,0.0,0.0,0.0,0.0,0.0,0.0,0.0,0.0,0.0,0.0,0.0,0.0,0.0,0.0,0.0,0.0,0.0,0.0,0.0,0.0,0.0,0.0,0.0,0.0,0.0,0.0,0.0,0.0,0.0,0.0,0.0,0.0,0.0,0.0,0.0,0.0,0.0,0.0,0.0,0.0,0.0,0.0,0.0,0.0,0.0,0.0,0.0,0.0,0.0,0.0,0.0,0.0,0.0,0.0,0.0,0.0,0.0,0.0,0.0,0.0,0.0,0.0,0.0,0.0,0.0,0.0,0.0,0.0,0.0,0.0,0.0,0.0,0.0,0.0,0.0,0.0,0.0,0.0,0.0,0.0,0.0,0.0,0.0,0.0,0.0,0.0,0.0,-3.8992,-4.0763,-4.2428,-4.4753,-4.524,-4.533,-4.533,-4.5149,-4.3136,-3.8222,0.0,0.0,0.0,0.0,0.0,0.0,0.0,0.0,0.0,0.0,0.0,0.0,0.0,0.0,0.0,0.0,0.0,0.0,0.0,0.0,0.0,0.0,0.0,0.0,0.0,0.0,0.0,0.0,0.0,0.0,0.0,0.0,0.0,0.0,0.0,0.0,0.0,0.0,0.0,0.0,0.0,0.0,0.0,0.0,0.0,0.0,0.0,0.0,0.0,0.0,0.0,0.0,0.0,0.0,0.0,0.0,0.0,0.0,0.0,0.0,0.0,0.0,0.0,0.0,0.0,0.0,0.0,0.0,0.0,0.0,0.0,0.0,0.0,0.0,0.0,0.0,0.0,0.0,0.0,0.0,0.0,0.0,0.0,0.0,0.0,0.0,0.0,0.0,0.0,0.0,0.0,0.0,0.0,0.0,0.0,0.0,0.0,0.0,0.0,0.0,0.0,0.0,0.0,-4.0179,-4.1916,-4.3915,-4.4642,-4.4928,-4.4694,-4.357,-4.1261,-3.7631,0.0,0.0,0.0,0.0,0.0,0.0,0.0,0.0,0.0,0.0,0.0,0.0,0.0,0.0,0.0,0.0,0.0,0.0,0.0,0.0,0.0,0.0,0.0,0.0,0.0,0.0,0.0,0.0,0.0,0.0,0.0,0.0,0.0,0.0,0.0,0.0,0.0,0.0,0.0,0.0,0.0,0.0,0.0,0.0,0.0,0.0,0.0,0.0,0.0,0.0,0.0,0.0,0.0,0.0,0.0,0.0,0.0,0.0,0.0,0.0,0.0,0.0,0.0,0.0,0.0,0.0,0.0,0.0,0.0,0.0,0.0,0.0,0.0,0.0,0.0,0.0,0.0,0.0,0.0,0.0,0.0,0.0,0.0,0.0,0.0,0.0,0.0,0.0,0.0,0.0,0.0,0.0,0.0,0.0,0.0,0.0,0.0,0.0,0.0,0.0,0.0,0.0,0.0,-3.9085,-4.2721,-4.3448,-4.3993,-4.4123,-4.363,-4.0308,-3.7999,-3.6837,-3.1417,0.0,0.0,0.0,0.0,0.0,0.0,0.0,0.0,0.0,0.0,0.0,0.0,0.0,0.0,0.0,0.0,0.0,0.0,0.0,0.0,0.0,0.0,0.0,0.0,0.0,0.0,0.0,0.0,0.0,0.0,0.0,0.0,0.0,0.0,0.0,0.0,0.0,0.0,0.0,0.0,0.0,0.0,0.0,0.0,0.0,0.0,0.0,0.0,0.0,0.0,0.0,0.0,0.0,0.0,0.0,0.0,0.0,0.0,0.0,0.0,0.0,0.0,0.0,0.0,0.0,0.0,0.0,0.0,0.0,0.0,0.0,0.0,0.0,0.0,0.0,0.0,0.0,0.0,0.0,0.0,0.0,0.0,0.0,0.0,0.0,0.0,0.0,0.0,0.0,0.0,0.0,0.0,0.0,0.0,0.0,0.0,0.0,0.0,0.0,0.0,0.0,0.0,-3.8624,-4.0383,-4.2695,-4.3058,-4.3266,-4.3552,-3.9995,-3.7618,-3.6811,-3.1417,0.0,0.0,0.0,0.0,0.0,0.0,0.0,0.0,0.0,0.0,0.0,0.0,0.0,0.0,0.0,0.0,0.0,0.0,0.0,0.0,0.0,0.0,0.0,0.0,0.0,0.0,0.0,0.0,0.0,0.0,0.0,0.0,0.0,0.0,0.0,0.0,0.0,0.0,0.0,0.0,0.0,0.0,0.0,0.0,0.0,0.0,0.0,0.0,0.0,0.0,0.0,0.0,0.0,0.0,0.0,0.0,0.0,0.0,0.0,0.0,0.0,0.0,0.0,0.0,0.0,0.0,0.0,0.0,0.0,0.0,0.0,0.0,0.0,0.0,0.0,0.0,0.0,0.0,0.0,0.0,0.0,0.0,0.0,0.0,0.0,0.0,0.0,0.0,0.0,0.0,0.0,0.0,0.0,0.0,0.0,0.0,0.0,0.0,0.0,0.0,0.0,0.0,-3.5752,-3.7423,-4.189,-4.2591,-4.2234,-4.069,-3.8598,-3.6381,-3.4169,-2.8536,0.0,0.0,0.0,0.0,0.0,0.0,0.0,0.0,0.0,0.0,0.0,0.0,0.0,0.0,0.0,0.0,0.0,0.0,0.0,0.0,0.0,0.0,0.0,0.0,0.0,0.0,0.0,0.0,0.0,0.0,0.0,0.0,0.0,0.0,0.0,0.0,0.0,0.0,0.0,0.0,0.0,0.0,0.0,0.0,0.0,0.0,0.0,0.0,0.0,0.0,0.0,0.0,0.0,0.0,0.0,0.0,0.0,0.0,0.0,0.0,0.0,0.0,0.0,0.0,0.0,0.0,0.0,0.0,0.0,0.0,0.0,0.0,0.0,0.0,0.0,0.0,0.0,0.0,0.0,0.0,0.0,0.0,0.0,0.0,0.0,0.0,0.0,0.0,0.0,0.0,0.0,0.0,0.0,0.0,0.0,0.0,0.0,0.0,0.0,0.0,0.0,0.0,0.0,-3.4878,-4.0513,-4.1413,-4.0221,-3.6507,-3.5565,-3.3812,-3.0944,0.0,0.0,0.0,0.0,0.0,0.0,0.0,0.0,0.0,0.0,0.0,0.0,0.0,0.0,0.0,0.0,0.0,0.0,0.0,0.0,0.0,0.0,0.0,0.0,0.0,0.0,0.0,0.0,0.0,0.0,0.0,0.0,0.0,0.0,0.0,0.0,0.0,0.0,0.0,0.0,0.0,0.0,0.0,0.0,0.0,0.0,0.0,0.0,0.0,0.0,0.0,0.0,0.0,0.0,0.0,0.0,0.0,0.0,0.0,0.0,0.0,0.0,0.0,0.0,0.0,0.0,0.0,0.0,0.0,0.0,0.0,0.0,0.0,0.0,0.0,0.0,0.0,0.0,0.0,0.0,0.0,0.0,0.0,0.0,0.0,0.0,0.0,0.0,0.0,0.0,0.0,0.0,0.0,0.0,0.0,0.0,0.0,0.0,0.0,0.0,0.0,0.0,0.0,0.0,-3.4852,-3.7319,-3.7103,-3.5847,-3.2845,-2.9401,-2.8145,-2.9933,0.0,0.0,0.0,0.0,0.0,0.0,0.0,0.0,0.0,0.0,0.0,0.0,0.0,0.0]}]]]